[[{"header":{"parameterUnit":"m.s-1","parameterCategory":1,"la1":30.6,"la2":29.2853,"lo1":-89.7004,"lo2":-87.6739,"dy":0.0162,"dx":0.0183,"nx":112,"ny":82,"refTime":"2025-01-20T06:00:00:Z","depth":0,"parameterNumber":2,"parameterNumberName":"U-component_of_WINDS"},"data":[0.0,0.0,0.0,0.0,0.0,0.0,0.0,0.0,0.0,0.0,0.0,0.0,0.0,0.0,0.0,0.0,0.0,0.0,0.0,0.0,0.0,0.0,0.0,0.0,0.0,0.0,0.0,0.0,0.0,0.0,0.0,0.0,0.0,0.0,0.0,0.0,0.0,0.0,0.0,0.0,0.0,0.0,0.0,0.0,0.0,0.0,0.0,0.0,0.0,0.0,0.0,0.0,0.0,0.0,0.0,0.0,0.0,0.0,0.0,0.0,0.0,0.0,0.0,0.0,0.0,0.0,0.0,0.0,0.0,0.0,0.0,0.0,0.0,0.0,0.0,0.0,0.0,0.0,0.0,0.0,0.0,0.0,0.0,0.0,0.0,0.0,0.0,0.0,0.0,0.0,0.0,2.1695,2.2892,2.361,2.361,2.352,2.2712,2.0976,0.0,0.0,0.0,0.0,0.0,0.0,0.0,0.0,0.0,0.0,0.0,0.0,0.0,0.0,0.0,0.0,0.0,0.0,0.0,0.0,0.0,0.0,0.0,0.0,0.0,0.0,0.0,0.0,0.0,0.0,0.0,0.0,0.0,0.0,0.0,0.0,0.0,0.0,0.0,0.0,0.0,0.0,0.0,0.0,0.0,0.0,0.0,0.0,0.0,0.0,0.0,0.0,0.0,0.0,0.0,0.0,0.0,0.0,0.0,0.0,0.0,0.0,0.0,0.0,0.0,0.0,0.0,0.0,0.0,0.0,0.0,0.0,0.0,0.0,0.0,0.0,0.0,0.0,0.0,0.0,0.0,0.0,0.0,0.0,0.0,0.0,0.0,0.0,0.0,0.0,0.0,0.0,0.0,0.0,0.0,0.0,0.0,0.0,0.0,0.0,0.0,0.0,0.0,0.0,2.0408,2.2323,2.3161,2.361,2.361,2.3131,2.2443,2.1605,0.0,0.0,0.0,0.0,0.0,0.0,0.0,0.0,0.0,0.0,0.0,0.0,0.0,0.0,0.0,0.0,0.0,0.0,0.0,0.0,0.0,0.0,0.0,0.0,0.0,0.0,0.0,0.0,0.0,0.0,0.0,0.0,0.0,0.0,0.0,0.0,0.0,0.0,0.0,0.0,0.0,0.0,0.0,0.0,0.0,0.0,0.0,0.0,0.0,0.0,0.0,0.0,0.0,0.0,0.0,0.0,0.0,0.0,0.0,0.0,0.0,0.0,0.0,0.0,0.0,0.0,0.0,0.0,0.0,0.0,0.0,0.0,0.0,0.0,0.0,0.0,0.0,0.0,0.0,0.0,0.0,0.0,0.0,0.0,0.0,0.0,0.0,0.0,0.0,0.0,0.0,0.0,0.0,0.0,0.0,0.0,0.0,0.0,0.0,0.0,0.0,0.0,0.0,2.0408,2.1395,2.3011,2.343,2.361,2.361,2.334,2.2742,2.1754,2.0438,0.0,0.0,0.0,0.0,0.0,0.0,0.0,0.0,0.0,0.0,0.0,0.0,0.0,0.0,0.0,0.0,0.0,0.0,0.0,0.0,0.0,0.0,0.0,0.0,0.0,0.0,0.0,0.0,0.0,0.0,0.0,0.0,0.0,0.0,0.0,0.0,0.0,0.0,0.0,0.0,0.0,0.0,0.0,0.0,0.0,0.0,0.0,0.0,0.0,0.0,0.0,0.0,0.0,0.0,0.0,0.0,0.0,0.0,0.0,0.0,0.0,0.0,0.0,0.0,0.0,0.0,0.0,0.0,0.0,0.0,0.0,0.0,0.0,0.0,0.0,0.0,0.0,0.0,0.0,0.0,0.0,0.0,0.0,0.0,0.0,0.0,0.0,0.0,0.0,0.0,0.0,0.0,0.0,0.0,0.0,0.0,0.0,0.0,0.0,0.0,0.0,0.0,2.1695,2.2173,2.346,2.361,2.361,2.361,2.346,2.2892,2.1754,2.0288,0.0,0.0,0.0,0.0,0.0,0.0,0.0,0.0,0.0,0.0,0.0,0.0,0.0,0.0,0.0,0.0,0.0,0.0,0.0,0.0,0.0,0.0,0.0,0.0,0.0,0.0,0.0,0.0,0.0,0.0,0.0,0.0,0.0,0.0,0.0,0.0,0.0,0.0,0.0,0.0,0.0,0.0,0.0,0.0,0.0,0.0,0.0,0.0,0.0,0.0,0.0,0.0,0.0,0.0,0.0,0.0,0.0,0.0,0.0,0.0,0.0,0.0,0.0,0.0,0.0,0.0,0.0,0.0,0.0,0.0,0.0,0.0,0.0,0.0,0.0,0.0,0.0,0.0,0.0,0.0,0.0,0.0,0.0,0.0,0.0,0.0,0.0,0.0,0.0,0.0,0.0,0.0,0.0,0.0,0.0,0.0,0.0,0.0,0.0,0.0,0.0,0.0,2.1695,2.2173,2.346,2.361,2.361,2.361,2.3071,2.2443,2.1754,1.9869,0.0,0.0,0.0,0.0,0.0,0.0,0.0,0.0,0.0,0.0,0.0,0.0,0.0,0.0,0.0,0.0,0.0,0.0,0.0,0.0,0.0,0.0,0.0,0.0,0.0,0.0,0.0,0.0,0.0,0.0,0.0,0.0,0.0,0.0,0.0,0.0,0.0,0.0,0.0,0.0,0.0,0.0,0.0,0.0,0.0,0.0,0.0,0.0,0.0,0.0,0.0,0.0,0.0,0.0,0.0,0.0,0.0,0.0,0.0,0.0,0.0,0.0,0.0,0.0,0.0,0.0,0.0,0.0,0.0,0.0,0.0,0.0,0.0,0.0,0.0,0.0,0.0,0.0,0.0,0.0,0.0,0.0,0.0,0.0,0.0,0.0,0.0,0.0,0.0,0.0,0.0,0.0,0.0,0.0,0.0,0.0,0.0,0.0,0.0,0.0,0.0,0.0,2.1695,2.2173,0.0,2.361,2.361,2.361,2.337,2.2622,2.1186,0.0,0.0,0.0,0.0,0.0,0.0,0.0,0.0,0.0,0.0,0.0,0.0,0.0,0.0,0.0,0.0,0.0,0.0,0.0,0.0,0.0,0.0,0.0,0.0,0.0,0.0,0.0,0.0,0.0,0.0,0.0,0.0,0.0,0.0,0.0,0.0,0.0,0.0,0.0,0.0,0.0,0.0,0.0,0.0,0.0,0.0,0.0,0.0,0.0,0.0,0.0,0.0,0.0,0.0,0.0,0.0,0.0,0.0,0.0,0.0,0.0,0.0,0.0,0.0,0.0,0.0,0.0,0.0,0.0,0.0,0.0,0.0,0.0,0.0,0.0,0.0,0.0,0.0,0.0,0.0,0.0,0.0,0.0,0.0,0.0,0.0,0.0,0.0,0.0,0.0,0.0,0.0,0.0,0.0,0.0,0.0,0.0,0.0,0.0,0.0,0.0,0.0,2.1365,2.1874,2.2413,0.0,2.361,2.361,2.361,2.3221,2.2353,2.0827,0.0,0.0,0.0,0.0,0.0,0.0,0.0,0.0,0.0,0.0,0.0,0.0,0.0,0.0,0.0,0.0,0.0,0.0,0.0,0.0,0.0,0.0,0.0,0.0,0.0,0.0,0.0,0.0,0.0,0.0,0.0,0.0,0.0,0.0,0.0,0.0,0.0,0.0,0.0,0.0,0.0,0.0,0.0,0.0,0.0,0.0,0.0,0.0,0.0,0.0,0.0,0.0,0.0,0.0,0.0,0.0,0.0,0.0,0.0,0.0,0.0,0.0,0.0,0.0,0.0,0.0,0.0,0.0,0.0,0.0,0.0,0.0,0.0,0.0,0.0,0.0,0.0,0.0,0.0,0.0,0.0,0.0,0.0,0.0,0.0,0.0,0.0,0.0,0.0,0.0,0.0,0.0,0.0,0.0,0.0,0.0,0.0,0.0,0.0,0.0,0.0,0.0,2.1425,2.2263,2.2921,2.352,2.361,2.361,2.361,2.2443,2.1425,0.0,0.0,0.0,0.0,0.0,0.0,0.0,0.0,0.0,0.0,0.0,0.0,0.0,0.0,0.0,0.0,0.0,0.0,0.0,0.0,0.0,0.0,0.0,0.0,0.0,0.0,0.0,0.0,0.0,0.0,0.0,0.0,0.0,0.0,0.0,0.0,0.0,0.0,0.0,0.0,0.0,0.0,0.0,0.0,0.0,0.0,0.0,0.0,0.0,0.0,0.0,0.0,0.0,0.0,0.0,0.0,0.0,0.0,0.0,0.0,0.0,0.0,0.0,0.0,0.0,0.0,0.0,0.0,0.0,0.0,0.0,0.0,0.0,0.0,0.0,0.0,0.0,0.0,0.0,0.0,0.0,0.0,0.0,0.0,0.0,0.0,0.0,0.0,0.0,0.0,0.0,0.0,0.0,0.0,0.0,0.0,0.0,0.0,0.0,0.0,0.0,0.0,0.0,2.1425,2.2263,2.2921,2.352,2.361,2.361,2.361,2.3251,2.2173,2.0109,0.0,0.0,0.0,0.0,0.0,0.0,0.0,0.0,0.0,0.0,0.0,0.0,0.0,0.0,0.0,0.0,0.0,0.0,0.0,0.0,0.0,0.0,0.0,0.0,0.0,0.0,0.0,0.0,0.0,0.0,0.0,0.0,0.0,0.0,0.0,0.0,0.0,0.0,0.0,0.0,0.0,0.0,0.0,0.0,0.0,0.0,0.0,0.0,0.0,0.0,0.0,0.0,0.0,0.0,0.0,0.0,0.0,0.0,0.0,0.0,0.0,0.0,0.0,0.0,0.0,0.0,0.0,0.0,0.0,0.0,0.0,0.0,0.0,0.0,0.0,0.0,0.0,0.0,0.0,0.0,0.0,0.0,0.0,0.0,0.0,0.0,0.0,0.0,0.0,0.0,0.0,0.0,0.0,0.0,0.0,0.0,0.0,0.0,0.0,0.0,0.0,0.0,2.1485,2.2503,2.3191,2.355,2.361,2.361,2.361,2.337,2.2323,2.0228,0.0,0.0,0.0,0.0,0.0,0.0,0.0,0.0,0.0,0.0,0.0,0.0,0.0,0.0,0.0,0.0,0.0,0.0,0.0,0.0,0.0,0.0,0.0,0.0,0.0,0.0,0.0,0.0,0.0,0.0,0.0,0.0,0.0,0.0,0.0,0.0,0.0,0.0,0.0,0.0,0.0,0.0,0.0,0.0,0.0,0.0,0.0,0.0,0.0,0.0,0.0,0.0,0.0,0.0,0.0,0.0,0.0,0.0,0.0,0.0,0.0,0.0,0.0,0.0,0.0,0.0,0.0,0.0,0.0,0.0,0.0,0.0,0.0,0.0,0.0,0.0,0.0,0.0,0.0,0.0,0.0,0.0,0.0,0.0,0.0,0.0,0.0,0.0,0.0,0.0,0.0,0.0,0.0,0.0,0.0,0.0,0.0,0.0,0.0,0.0,0.0,0.0,2.1554,2.2802,2.361,2.3699,2.3699,2.3699,2.3699,2.3191,2.2263,2.0887,0.0,0.0,0.0,0.0,0.0,0.0,0.0,0.0,0.0,0.0,0.0,0.0,0.0,0.0,0.0,0.0,0.0,0.0,0.0,0.0,0.0,0.0,0.0,0.0,0.0,0.0,0.0,0.0,0.0,0.0,0.0,0.0,0.0,0.0,0.0,0.0,0.0,0.0,0.0,0.0,0.0,0.0,0.0,0.0,0.0,0.0,0.0,0.0,0.0,0.0,0.0,0.0,0.0,0.0,0.0,0.0,0.0,0.0,0.0,0.0,2.0168,0.0,0.0,0.0,0.0,0.0,0.0,0.0,0.0,0.0,0.0,0.0,0.0,0.0,0.0,0.0,0.0,0.0,0.0,0.0,0.0,0.0,0.0,0.0,0.0,0.0,0.0,0.0,0.0,0.0,0.0,0.0,0.0,0.0,0.0,0.0,0.0,0.0,0.0,0.0,0.0,0.0,2.1603,2.2843,2.3819,2.4358,2.4418,2.4418,2.4418,2.4298,2.343,2.1605,2.0783,0.0,0.0,0.0,0.0,0.0,0.0,0.0,0.0,0.0,0.0,0.0,0.0,0.0,0.0,0.0,0.0,0.0,0.0,0.0,0.0,0.0,0.0,0.0,0.0,0.0,0.0,0.0,0.0,0.0,0.0,0.0,0.0,0.0,0.0,0.0,0.0,0.0,0.0,0.0,0.0,0.0,0.0,0.0,0.0,0.0,0.0,0.0,0.0,0.0,0.0,0.0,0.0,0.0,0.0,0.0,0.0,0.0,0.0,0.0,0.0,2.2004,0.0,0.0,0.0,0.0,0.0,0.0,0.0,0.0,0.0,0.0,0.0,0.0,0.0,0.0,0.0,0.0,0.0,0.0,0.0,0.0,0.0,0.0,0.0,0.0,0.0,0.0,0.0,0.0,0.0,0.0,0.0,0.0,0.0,0.0,0.0,0.0,0.0,0.0,0.0,0.0,2.1719,2.3311,2.4371,2.4687,2.4987,2.5198,2.5152,2.4852,2.4146,2.2877,2.1892,0.0,0.0,0.0,0.0,0.0,0.0,0.0,0.0,0.0,0.0,0.0,0.0,0.0,0.0,0.0,0.0,0.0,0.0,0.0,0.0,0.0,0.0,0.0,0.0,0.0,0.0,0.0,0.0,0.0,0.0,0.0,0.0,0.0,0.0,0.0,0.0,0.0,0.0,0.0,0.0,0.0,0.0,0.0,0.0,0.0,0.0,0.0,0.0,0.0,0.0,0.0,0.0,0.0,2.6782,2.741,2.797,2.797,2.8248,2.8607,2.5854,2.4642,2.4537,2.3721,0.0,0.0,0.0,0.0,0.0,0.0,0.0,0.0,0.0,0.0,0.0,0.0,0.0,0.0,0.0,0.0,0.0,0.0,0.0,0.0,0.0,0.0,0.0,0.0,2.5272,2.5056,2.284,0.0,0.0,0.0,0.0,0.0,0.0,0.0,0.0,0.0,0.0,0.0,2.22,2.3933,2.5031,2.5183,2.5666,2.5998,2.6029,2.547,2.4911,2.4377,2.3071,2.1865,0.0,0.0,0.0,0.0,0.0,0.0,0.0,0.0,0.0,0.0,0.0,0.0,0.0,0.0,0.0,0.0,0.0,0.0,0.0,0.0,0.0,0.0,0.0,0.0,0.0,0.0,0.0,0.0,0.0,0.0,0.0,0.0,2.0288,2.2323,0.0,0.0,0.0,0.0,0.0,0.0,0.0,0.0,0.0,0.0,0.0,0.0,0.0,2.5884,2.7051,2.7739,2.8128,2.8218,2.8876,2.9235,2.9325,2.9325,2.9355,2.9415,2.8996,0.0,2.7799,2.6116,0.0,0.0,0.0,0.0,0.0,0.0,0.0,0.0,0.0,0.0,0.0,0.0,0.0,0.0,0.0,0.0,0.0,0.0,0.0,0.0,0.0,0.0,2.7611,2.7119,2.7057,2.7026,0.0,2.4297,2.2145,2.1793,2.0905,0.0,0.0,0.0,0.0,0.0,0.0,0.0,2.3662,2.4554,2.5439,2.6593,2.6775,2.6836,2.6836,2.6775,2.6411,2.5788,2.4468,2.3732,2.3631,2.1827,0.0,0.0,0.0,0.0,0.0,0.0,0.0,0.0,0.0,0.0,0.0,0.0,0.0,0.0,0.0,0.0,0.0,0.0,0.0,0.0,0.0,0.0,0.0,0.0,0.0,0.0,0.0,0.0,0.0,2.1186,2.2652,2.3131,2.3281,2.3071,0.0,0.0,0.0,0.0,0.0,0.0,0.0,0.0,0.0,2.723,2.729,2.7739,2.8697,2.9355,2.9684,2.9684,3.0342,3.0672,3.0672,3.0672,3.0672,3.0672,3.0672,3.0522,3.0103,2.8252,2.6935,2.597,0.0,0.0,0.0,0.0,2.4357,2.4625,2.6058,2.5905,2.521,2.5518,0.0,0.0,0.0,0.0,0.0,0.0,0.0,0.0,0.0,0.0,2.8442,2.8504,2.8258,2.795,2.795,2.6472,2.481,0.0,2.324,2.2409,2.0258,0.0,0.0,0.0,0.0,2.2793,2.4081,2.5492,2.6535,2.7069,2.7466,2.7679,2.7679,2.7344,2.7008,2.6796,2.5877,2.5173,2.4817,2.3559,2.2432,0.0,0.0,0.0,0.0,0.0,0.0,0.0,0.0,0.0,0.0,0.0,0.0,0.0,0.0,0.0,0.0,0.0,0.0,0.0,0.0,0.0,0.0,0.0,0.0,0.0,0.0,0.0,0.0,2.3281,2.4507,2.4148,2.4866,2.4986,0.0,0.0,0.0,0.0,0.0,0.0,2.6333,2.6841,2.7709,2.9056,2.9086,2.9415,3.0073,3.0522,3.0761,3.0761,3.1243,3.1482,3.1482,3.1482,3.1482,3.1482,3.1482,3.1539,3.1477,2.9853,2.8656,2.7716,2.7144,2.6581,2.6134,2.6243,2.6304,2.6595,2.8271,2.8424,2.795,2.8104,2.7242,2.5918,2.4902,0.0,0.0,0.0,0.0,2.755,2.9243,2.9304,2.8996,2.9335,2.9027,2.8627,2.8442,2.8011,2.7149,0.0,2.5364,2.4748,2.204,0.0,0.0,0.0,0.0,2.4133,2.4995,2.6441,2.741,2.7469,2.7929,2.8235,2.8235,2.7776,2.7547,2.7642,2.7026,2.6411,2.5887,2.5179,2.4194,2.284,0.0,0.0,0.0,0.0,0.0,0.0,0.0,0.0,0.0,0.0,0.0,0.0,0.0,0.0,0.0,0.0,0.0,0.0,0.0,0.0,0.0,0.0,0.0,0.0,0.0,0.0,0.0,0.0,0.0,2.5435,2.6632,0.0,0.0,0.0,0.0,2.6452,2.7021,2.7709,2.8397,2.8487,2.9086,3.0372,3.0402,3.0731,3.1362,3.1392,3.1422,3.1422,3.1452,3.1482,3.1482,3.1482,3.1482,3.1482,3.1482,3.1597,3.1739,3.0788,3.0177,2.978,2.9113,2.8595,2.8319,2.8817,2.9081,2.9254,2.9889,2.9756,2.9427,3.0074,2.9366,2.8227,2.8165,2.7703,0.0,0.0,2.875,2.9427,3.0197,3.0351,3.0166,2.955,2.9396,2.9181,2.8535,2.8381,2.8134,0.0,2.6749,2.6072,2.521,0.0,2.5118,2.5056,2.5149,2.5703,2.7057,2.7334,2.7642,2.8288,2.8381,2.8411,2.8411,2.8381,2.835,2.835,2.7734,2.7334,2.7303,2.6626,2.561,2.4225,2.3517,0.0,0.0,0.0,0.0,0.0,0.0,0.0,0.0,0.0,0.0,0.0,0.0,0.0,0.0,0.0,0.0,0.0,0.0,0.0,0.0,0.0,0.0,0.0,0.0,0.0,0.0,0.0,0.0,2.6841,2.7679,0.0,2.6632,2.756,2.8128,2.7919,2.8876,2.9774,3.0462,3.0881,3.1539,3.2407,3.2018,3.2108,3.2796,3.1958,3.1749,3.2168,3.1749,3.1482,3.1482,3.1482,3.1482,3.1482,3.1482,3.1539,3.1567,3.1384,3.1369,3.1372,3.0777,3.0483,3.0289,3.0084,3.0022,3.0166,3.076,3.0545,3.0104,3.0351,3.0104,2.9704,2.9704,2.955,2.9489,3.0135,3.0505,3.0843,3.152,3.1366,3.0874,3.0228,2.9735,2.9243,2.8565,2.8411,2.8319,2.8104,2.7857,2.7334,2.6195,2.638,2.6349,2.5456,2.6072,2.6842,2.7334,2.7765,2.8134,2.8381,2.8411,2.8411,2.8411,2.8668,2.8873,2.8873,2.8898,2.8952,2.8952,2.8283,2.7498,2.65,2.536,2.3496,0.0,0.0,0.0,0.0,0.0,0.0,0.0,0.0,0.0,0.0,0.0,0.0,0.0,0.0,0.0,0.0,0.0,0.0,0.0,0.0,0.0,0.0,0.0,0.0,0.0,0.0,2.7919,2.7919,2.8906,2.9235,2.8338,2.9056,2.9684,2.9894,3.0702,3.148,3.2168,3.2617,3.3036,3.3484,3.3066,3.3066,3.3484,3.2617,3.2407,3.2826,3.2407,3.2198,3.2198,3.2198,3.2198,3.2168,3.1958,3.1927,3.2043,3.2158,3.2266,3.2241,3.1811,3.1682,3.1674,3.1243,3.1089,3.1151,3.1582,3.1459,3.1089,3.1089,3.1089,3.1028,3.0812,3.0905,3.112,3.1336,3.1551,3.1828,3.229,3.2074,3.152,3.0628,3.0074,2.952,2.8596,2.8411,2.8411,2.8411,2.8411,2.8134,2.7211,2.7426,2.7426,2.6503,2.7149,2.7734,2.7734,2.8134,2.8429,2.8621,2.8621,2.8716,2.8826,2.893,2.9093,2.9348,2.9166,2.9092,2.9219,2.8672,2.7962,2.7089,2.5754,2.4249,2.2703,0.0,0.0,0.0,0.0,0.0,0.0,0.0,0.0,0.0,0.0,0.0,0.0,0.0,0.0,0.0,0.0,0.0,0.0,0.0,0.0,0.0,0.0,0.0,2.6662,2.7799,2.8667,2.8697,3.0402,3.1061,2.9804,3.0851,3.181,3.2497,3.2527,3.2826,3.3484,3.3514,3.3544,3.3544,3.3544,3.3544,3.3544,3.3514,3.3514,3.3514,3.3514,3.3484,3.3484,3.3484,3.3484,3.3455,3.2826,3.2735,3.3029,3.3029,3.2806,3.2444,3.2277,3.2302,3.2382,3.2382,3.2382,3.2382,3.2382,3.2382,3.2382,3.2382,3.2382,3.2259,3.1613,3.1859,3.2259,3.1582,3.189,3.2382,3.2382,3.2382,3.2074,3.0782,3.0443,3.0074,2.8719,2.8442,2.8442,2.8411,2.8411,2.8411,2.8411,2.8411,2.8411,2.8411,2.8411,0.0,2.8411,2.8411,2.8573,2.9028,2.9074,2.9257,2.9705,2.9146,2.9049,2.9729,2.8424,2.7805,2.8164,2.7869,2.7162,2.605,2.4728,2.4116,2.4359,0.0,0.0,0.0,0.0,0.0,0.0,0.0,0.0,0.0,0.0,0.0,0.0,0.0,0.0,0.0,0.0,0.0,0.0,0.0,0.0,0.0,0.0,2.747,2.7979,2.9175,3.0163,3.0672,3.1629,3.2108,3.1749,3.2467,3.3036,3.3215,3.3215,3.3514,3.4173,3.4203,3.4442,3.4921,3.4472,3.4442,3.4951,3.3993,3.3724,3.4203,3.3724,3.3484,3.3484,3.3484,3.3484,3.3484,3.3305,3.3366,3.3607,3.3667,3.3724,3.3655,3.3223,3.2788,3.2382,3.2382,3.2382,3.2382,3.2382,3.2382,3.2382,3.2382,3.2382,3.2351,3.2167,3.2228,3.2351,3.2167,3.2259,3.2382,3.2382,3.2382,3.2167,3.1336,3.112,3.0751,2.9427,2.915,2.8996,2.8504,2.8411,2.8411,2.8411,2.8411,2.8411,2.8411,2.8411,0.0,2.8411,2.8411,2.846,2.8573,2.892,2.8982,2.8779,2.9512,2.9723,2.9016,2.927,2.9454,2.9536,2.9449,2.9287,2.8938,2.7217,2.5999,0.0,0.0,0.0,0.0,0.0,0.0,0.0,0.0,0.0,0.0,0.0,0.0,0.0,0.0,0.0,0.0,0.0,0.0,0.0,0.0,0.0,0.0,2.7769,2.8936,2.9355,3.0043,3.0761,3.1392,3.181,3.2198,3.2497,3.2856,3.3305,3.3873,3.3664,3.3903,3.4861,3.4622,3.4801,3.5489,3.513,3.51,3.5519,3.4741,3.4532,3.4891,3.4532,3.4352,3.4352,3.4352,3.4352,3.4322,3.4085,3.4089,3.4303,3.4455,3.4393,0.0,0.0,0.0,0.0,0.0,3.2628,3.2382,3.2382,3.2382,3.2382,3.2382,3.2382,3.2382,3.2382,3.2382,3.2382,3.2382,3.2382,3.2382,3.2382,3.2382,3.2228,3.1551,3.1397,3.1089,3.0074,2.9827,2.9704,2.9335,2.9027,0.0,2.8842,2.8596,2.8411,2.8411,2.8411,2.8411,2.8411,2.8411,2.8508,2.8668,2.912,2.9476,2.9749,3.0084,0.0,0.0,0.0,2.9634,2.9634,2.9484,0.0,0.0,0.0,0.0,0.0,0.0,0.0,0.0,2.5481,2.521,0.0,0.0,0.0,0.0,0.0,0.0,0.0,0.0,0.0,0.0,0.0,0.0,0.0,0.0,0.0,0.0,2.9325,3.0522,3.0612,3.0612,3.0851,3.1392,3.1541,3.1869,3.2467,3.2587,3.3095,3.4292,3.3903,3.4113,3.531,0.0,0.0,0.0,0.0,3.5519,3.5519,3.5519,3.5519,3.5519,3.5519,3.5519,3.5519,3.5519,3.5519,3.5459,3.4958,3.4876,3.5093,3.5248,3.5033,3.4691,3.4537,3.4475,3.4383,3.3675,3.3029,3.2505,3.2413,0.0,0.0,3.2382,3.2382,3.2382,3.2382,3.2382,3.2382,3.2382,3.2382,3.2382,3.2382,3.2382,3.2228,3.1643,3.149,3.1305,3.0566,3.0412,3.0412,3.032,2.9827,2.9427,2.952,2.8904,2.8411,2.8411,2.8411,2.8411,2.8411,2.846,2.87,2.92,0.0,0.0,3.155,3.0912,3.0948,3.2165,3.0446,2.9401,2.9401,2.9097,2.9536,3.0792,3.0833,3.1275,3.2215,3.2266,3.2095,3.1593,2.7827,2.7041,0.0,0.0,0.0,0.0,0.0,0.0,0.0,0.0,0.0,0.0,0.0,0.0,0.0,0.0,0.0,2.8996,2.9924,3.0702,3.127,3.133,3.1332,3.1452,3.1988,3.2377,3.2497,3.3006,3.3395,3.3664,3.4053,3.4412,3.4651,3.507,3.537,3.5519,3.5519,3.5519,3.5519,3.5519,3.5519,3.5519,0.0,0.0,3.5519,3.5519,3.5519,3.5489,3.537,3.5537,3.5791,3.5824,3.5951,3.5984,3.4906,3.4475,3.4383,3.3675,3.3306,3.3121,3.2598,3.2382,3.2382,3.2382,3.2382,3.2382,3.2382,3.2382,0.0,3.2382,3.2382,3.2382,3.2382,3.2382,3.2351,3.2228,3.2198,3.1859,3.0689,3.0412,3.0258,2.9704,2.952,2.9581,3.0135,2.9212,2.8411,2.8411,2.8411,2.8411,2.8411,2.8732,2.9202,2.9911,3.0758,3.1419,3.187,3.2417,3.2446,3.1774,3.1705,3.167,3.167,3.2124,3.2555,3.2824,3.2824,3.3048,3.3433,3.398,3.43,3.4374,3.1974,3.0873,0.0,0.0,0.0,0.0,0.0,0.0,0.0,0.0,0.0,0.0,0.0,2.6422,2.741,0.0,2.9265,2.9924,3.0582,3.115,3.1422,3.1482,3.1482,3.1482,3.2108,3.2647,3.2976,3.3604,3.4143,3.4472,3.4472,3.4622,3.4981,3.4981,3.516,3.5489,3.5519,3.5519,3.5519,3.5519,3.5519,3.5519,3.5519,3.5519,3.5519,3.5554,3.5589,3.5589,3.5782,3.5973,3.61,3.6226,3.6352,3.6415,3.5737,3.5276,3.4937,3.4568,3.4229,3.3829,3.3152,3.2906,3.2844,3.2505,3.2382,3.2382,3.2382,3.2382,3.2382,3.2382,3.2382,3.2382,3.2382,3.2382,3.2382,3.2382,3.2382,3.2228,3.1551,3.1397,3.1305,3.0966,3.0628,3.0505,3.0843,3.0074,2.9427,2.9427,2.9427,2.9427,2.9427,2.9859,3.0291,3.0671,3.1564,3.2354,3.2853,3.3539,3.3541,3.2588,3.2723,3.2848,3.2848,3.3558,3.4134,3.4506,3.4912,3.5363,3.584,3.6195,3.6288,3.612,3.5473,3.4494,0.0,0.0,0.0,0.0,0.0,0.0,0.0,0.0,2.5734,2.6931,2.759,2.8158,2.8846,2.9804,3.0552,3.0672,3.118,3.1482,3.1482,3.1571,3.1661,3.1661,3.2198,3.2766,3.3425,3.3963,3.4532,3.507,3.4711,3.4711,3.528,3.4921,3.4921,3.5489,3.5519,3.5519,3.5519,3.5519,3.5519,3.5519,3.5519,3.5519,3.5489,3.5589,3.5623,3.5688,3.6006,3.6196,3.6196,3.6414,3.6507,3.6507,3.6507,3.6168,3.5676,3.5522,3.5153,3.4568,3.386,3.3614,3.3521,3.2967,3.2813,3.2813,3.2813,3.2813,3.2782,3.2628,3.2598,3.2567,3.2413,3.2382,3.2382,3.2382,3.2382,3.2351,3.2228,3.2198,3.2198,3.2198,3.1767,3.1428,3.1551,3.1257,3.0876,3.0598,3.0567,3.0618,3.069,3.116,3.1534,3.1694,3.2512,3.3339,3.4072,3.4488,3.4539,3.41,3.4066,3.4134,3.4269,3.4844,3.5453,3.6062,3.6671,3.7381,3.8125,3.8125,3.7965,3.7703,3.8269,3.7458,2.5435,2.4837,0.0,2.5046,2.5704,2.6722,0.0,0.0,2.8368,2.9086,2.9295,2.9535,3.0163,3.0402,3.0702,3.133,3.1422,3.1482,3.1482,3.2048,3.2407,3.2407,3.2467,3.2766,3.3425,3.3574,3.3634,3.3724,3.4203,3.4502,3.4592,3.51,3.5429,3.5519,3.5519,3.5519,3.5519,3.5519,3.5519,3.5519,3.5519,3.5519,3.5519,3.5489,3.5489,3.5554,3.5846,3.61,3.6196,3.6414,3.6507,3.6507,3.6507,3.6445,3.6322,3.5707,3.543,3.5276,3.4599,3.4352,3.4352,3.426,3.4229,3.4229,3.4229,3.4229,3.4106,3.346,3.3306,3.3152,3.2536,3.2382,3.2382,3.2382,3.2382,3.2228,3.1613,3.149,3.149,3.149,3.1428,3.1582,3.2167,3.26,3.2499,3.13,3.111,3.1258,3.1789,3.2223,3.2805,3.3466,3.3985,3.4587,3.5329,3.5442,3.5757,3.6366,3.64,3.6705,3.7381,3.7483,3.755,3.7652,3.7753,3.8125,3.887,3.887,3.9208,3.9767,3.9868,3.8553,2.6931,0.0,0.0,0.0,2.726,2.8457,2.8906,2.9086,2.9355,2.9983,3.0133,3.0313,3.0971,3.1091,3.121,0.0,3.1869,3.2108,3.2108,3.2677,3.3215,3.3604,3.3664,3.3754,3.4023,3.4412,3.4651,3.4651,3.4921,3.507,3.507,3.534,3.5519,3.5519,3.5519,3.5519,3.5519,3.5519,3.5519,3.5519,3.5519,3.5519,3.5489,3.5589,3.5718,3.591,3.6163,3.6289,3.6352,3.6476,3.6507,3.6507,3.6507,3.6507,3.6445,3.6168,3.6076,3.5984,3.5306,3.506,3.4999,3.4599,3.4475,3.4475,3.4475,3.4475,3.4414,3.4106,3.4014,3.386,3.3152,3.2967,3.2875,3.2475,3.2382,3.2321,3.2044,3.1982,3.206,3.2382,3.2457,3.2657,3.3203,3.3527,3.3558,3.3324,3.3064,3.2915,3.3161,3.3609,3.416,3.4767,3.5464,3.596,3.6265,3.6705,3.7077,3.7415,3.7449,3.7584,3.7889,3.8294,3.8531,3.8531,3.8937,3.9309,3.9614,3.9614,3.9783,4.0087,4.0087,3.9373,2.753,0.0,0.0,2.738,2.8637,2.9774,2.9475,2.9774,3.0253,3.0702,3.0791,3.1001,3.1689,3.1809,3.1869,3.2048,3.2467,3.2796,3.2796,3.3335,3.3933,3.4412,3.4651,3.4771,3.4771,3.522,3.5519,3.5519,3.5669,3.5789,3.5789,3.5938,3.5938,3.5789,3.5789,3.5699,3.5519,3.5519,3.5489,3.5554,3.5554,3.5554,3.5619,3.5718,3.5943,3.6196,3.6352,3.6414,3.6507,3.6507,3.6507,3.6507,3.6507,3.6507,3.6507,3.6507,3.6507,3.6415,3.5922,3.5768,3.5676,3.5183,3.5029,3.5029,3.5029,3.5029,3.4999,3.4814,3.4752,3.4599,3.3891,3.3706,3.3521,3.2844,3.2659,3.2628,3.2444,3.2382,3.2547,3.3108,3.3182,3.3339,3.3935,3.4136,3.4333,3.4721,3.4577,3.4431,3.4431,3.4769,3.5245,3.5881,3.6434,3.6874,3.7077,3.7584,3.799,3.8193,3.8193,3.8294,3.8497,3.9005,3.9276,3.9276,3.9817,4.0087,4.0087,4.0087,4.0087,4.0087,4.0087,3.985,0.0,0.0,2.8697,2.9325,2.9983,3.0642,3.13,3.1392,3.1422,3.1452,3.1452,3.1631,3.2377,3.2497,3.2706,3.3335,3.3455,3.3455,3.3455,3.4023,3.4442,3.4472,3.507,3.5459,0.0,3.5489,3.5519,3.5519,3.6088,3.6447,3.6447,3.7015,3.7075,3.6477,3.6447,3.6148,3.5519,3.5519,3.5554,3.5688,3.5688,3.5816,3.5973,3.5973,3.61,3.6196,3.6196,3.6352,3.6507,3.6507,3.6507,3.6507,3.6507,3.6507,3.6507,3.6507,3.6507,3.6507,3.6476,3.6476,3.6445,3.6445,3.6445,3.6445,3.6445,3.6445,3.6292,3.5645,3.546,3.5306,3.4599,3.4445,3.426,3.3552,3.3367,3.3183,3.2536,3.2382,3.2547,3.3108,3.3182,3.3339,3.3935,3.4431,3.4769,3.4769,3.5224,3.5577,3.5577,3.5577,3.5847,3.6671,3.6772,3.7077,3.7821,3.7889,3.8227,3.8903,3.8971,3.9276,3.9986,4.002,4.0054,4.0054,4.0054,4.0087,4.0087,4.0087,4.0087,4.0087,4.0087,4.0087,0.0,0.0,2.8846,2.9924,3.0702,3.124,3.1422,3.1482,3.1482,3.1482,3.1482,3.1541,3.175,3.1869,3.2078,3.2736,3.3215,3.3634,3.4083,3.4741,3.516,3.516,3.537,0.0,0.0,0.0,0.0,3.5519,3.6118,3.6477,3.6477,3.7075,3.7315,3.7105,3.7105,3.7053,3.7007,3.6977,3.7044,3.7213,3.6758,3.6334,3.5973,3.61,3.6133,3.6196,3.6352,3.6414,3.6507,3.6507,3.6507,3.6507,3.6507,3.6507,3.6507,3.6507,3.6507,3.6507,3.6507,3.6507,3.6507,3.6507,3.6507,3.6507,3.6507,3.6507,3.6445,3.623,3.6138,3.5984,3.5306,3.5153,3.4968,3.426,3.4452,3.4642,3.4478,3.4714,3.5145,3.5668,3.5771,3.5923,3.6504,3.6731,3.6875,3.6875,3.6612,3.64,3.64,3.684,3.7246,3.7516,3.7956,3.8362,3.8599,3.9073,3.9445,3.9681,3.9715,3.9817,4.0054,4.0087,4.0087,4.0087,4.0087,4.0087,4.0087,4.0087,4.0087,4.0087,4.0087,4.0087,0.0,2.8936,2.9535,3.0612,3.121,3.1482,3.1482,3.1482,3.1482,3.1482,3.1482,3.1541,3.1839,3.1898,3.2168,3.3066,3.3574,3.4083,3.4741,3.522,3.5519,3.5519,3.5519,3.5519,0.0,0.0,0.0,3.5519,3.6327,3.6806,3.6806,3.7644,3.8003,3.7764,3.7833,3.7811,3.7707,3.7775,3.791,3.8111,3.775,3.7292,3.6865,3.6748,3.6626,3.6689,3.6537,3.6507,3.6507,3.6507,3.6507,3.6507,3.6507,3.6507,3.6507,3.6507,3.6507,3.6507,3.6507,3.6507,3.6507,3.6507,3.6507,3.6507,3.6507,3.6507,3.6538,3.6785,3.6846,3.6783,3.6585,3.6519,3.633,3.564,3.5823,3.6007,3.5751,3.6013,3.6437,3.7018,3.7119,3.727,3.7793,3.7922,3.7922,3.7922,3.7719,3.7483,3.7212,3.7618,3.8024,3.8261,3.8734,3.9106,3.9343,3.9817,4.0087,4.0087,4.0087,4.0087,4.0087,4.0087,4.0087,4.0087,4.0087,4.0087,4.0087,4.0087,4.0087,4.0087,4.0087,4.0223,2.8637,2.9564,3.0672,3.1302,3.1482,3.1482,3.1482,3.1482,3.1482,3.1482,3.1482,3.1661,0.0,0.0,3.2946,3.4233,3.4442,3.4741,3.5459,3.5549,3.5579,0.0,0.0,0.0,0.0,0.0,0.0,3.5609,0.0,3.7434,3.7464,3.8721,3.911,3.8452,3.8662,3.843,3.7896,3.8135,3.8305,3.8371,3.8569,3.8539,3.8477,3.7895,3.7617,3.7523,3.6939,3.6631,3.6538,3.6538,3.6538,3.6569,3.66,3.6569,3.66,3.6631,3.6631,3.66,3.66,3.6538,3.6507,3.6507,3.6476,3.6538,3.6538,3.6538,3.6723,3.7298,3.7476,3.7562,3.8165,3.8278,3.8116,3.7491,3.7384,3.7189,3.6592,3.6482,3.664,3.7168,3.7269,3.7453,3.7894,3.8024,3.8024,3.8024,3.8599,3.8802,3.8058,3.799,3.8294,3.8971,3.9039,3.9343,4.002,4.0087,4.0087,4.0087,4.0087,4.0087,4.0087,4.0087,4.0087,4.0087,4.0087,4.0087,4.0087,4.0087,4.0087,4.0087,4.0121,4.0527,2.9056,2.9894,3.0672,3.1302,3.1482,3.1482,3.1482,3.1482,3.1482,3.1482,3.1482,3.1511,0.0,0.0,0.0,3.3604,3.4143,0.0,3.6058,3.6237,0.0,0.0,0.0,3.6926,3.6926,3.6926,0.0,0.0,3.7225,3.7614,3.8123,3.896,3.9421,3.9354,3.9313,3.9616,4.036,4.1053,4.0896,3.9908,3.9973,3.9464,3.8508,3.8872,3.8715,3.8231,3.8591,3.8185,3.7246,3.7246,3.7251,3.7241,3.7804,3.7888,3.7918,3.843,3.8302,3.7822,3.7822,3.7266,3.6507,3.6507,3.6785,3.7178,3.7178,3.7504,3.7879,3.8026,3.8084,3.8108,3.8278,3.8278,3.8246,3.8107,3.8406,3.8644,3.8533,3.8783,3.9177,3.9312,3.9362,3.9362,3.9512,3.9512,3.9512,3.9512,3.9681,3.9546,3.8802,3.9174,3.958,3.9783,3.9817,3.9884,4.0054,4.0087,4.0087,4.0087,4.0087,4.0087,4.0087,4.0087,4.0087,4.0087,4.0087,4.0087,4.0087,4.0087,4.0087,4.0087,4.0663,4.1035,2.9714,3.0462,3.1061,3.1392,3.1482,3.1482,3.1482,3.1482,3.1482,3.1482,3.1482,0.0,0.0,0.0,0.0,0.0,0.0,0.0,3.6297,3.6477,3.6716,0.0,3.7404,0.0,3.7404,3.7404,3.7524,0.0,3.7853,3.8003,3.8362,3.905,3.9409,3.9553,3.995,4.0653,4.1852,4.2269,4.1949,4.0956,4.1247,4.0864,3.9804,4.0229,4.0133,3.9819,0.0,3.9527,3.8809,3.8809,3.8772,3.8814,3.9198,3.9339,3.9307,3.9729,3.9632,3.9275,3.9275,3.8809,3.8146,3.7487,3.7725,3.8211,3.7892,3.8219,3.8756,3.8711,3.8668,3.8756,3.8995,3.9082,3.9082,3.9082,3.9348,3.9592,3.9592,3.985,4.0087,4.0087,4.0087,4.0087,4.0087,4.0087,4.0087,4.0087,4.0087,3.9918,3.9512,3.9817,4.0087,4.0087,4.0087,4.0087,4.0087,4.0087,4.0087,4.0087,4.0087,4.0087,4.0087,4.0087,4.0087,4.0087,4.0087,4.0087,4.0087,4.0392,4.0561,4.0595,4.1339,4.1847,3.0372,3.1001,3.1482,3.1482,3.1482,3.1482,3.1482,3.1482,3.1452,3.1362,0.0,0.0,3.0642,0.0,3.2527,3.2617,0.0,3.4981,3.6417,3.6596,3.6866,3.7584,3.7674,3.7674,3.7674,3.7674,3.7913,3.8482,3.8512,3.8512,3.8512,3.908,3.9481,3.9553,4.0721,4.1755,4.2583,4.2707,4.2458,4.1755,4.2332,4.2269,4.1625,4.1687,4.1736,4.1642,4.1113,4.0821,4.0664,4.0664,4.0599,4.0652,4.075,4.0776,4.0769,4.0867,4.0834,4.0736,4.0638,4.0606,4.0352,3.8943,3.8918,3.939,3.8618,3.8958,3.9486,3.9388,3.9295,3.9435,3.9952,4.0087,4.0087,4.0087,4.0087,4.0087,4.0087,4.0087,4.0087,4.0087,4.0087,4.0087,4.0087,4.0087,4.0087,4.0087,4.0087,4.0087,4.0087,4.0087,4.0087,4.0087,4.0087,4.0087,4.0087,4.0087,4.0087,4.0087,4.0087,4.0087,4.0087,4.0155,4.0189,4.0087,4.0257,4.0324,4.0223,4.1001,4.1339,4.1373,4.2083,4.2794,3.0462,3.1001,3.1482,3.1482,3.1482,3.1482,3.1482,3.1482,0.0,0.0,0.0,3.133,3.0642,3.1599,0.0,3.3245,0.0,0.0,0.0,0.0,3.7704,0.0,0.0,0.0,0.0,0.0,0.0,0.0,0.0,3.923,3.923,3.9349,3.9737,4.0416,4.2173,4.3075,4.3169,4.3889,4.3856,4.3136,4.3257,4.2953,4.2332,4.2883,4.2818,4.2326,4.2807,0.0,4.1351,4.1351,4.1292,4.1295,4.189,4.2099,4.2085,4.269,4.2522,4.1917,4.1312,4.111,4.0883,3.9593,3.9649,4.0007,3.9259,3.9501,3.9967,3.9935,3.9952,3.9986,4.0087,4.0087,4.0087,4.0087,4.0087,4.0087,4.0087,4.0087,4.0087,4.0087,4.0087,4.0087,4.0087,4.0087,4.0087,4.0087,4.0087,4.0087,4.0087,4.0087,4.0087,4.0087,4.0087,4.0087,4.0087,4.0087,4.0087,4.0087,4.0087,4.0087,4.0087,4.0696,4.073,4.0087,4.1271,4.161,4.1001,4.1745,4.2117,4.2117,4.2861,4.3301,3.0851,3.127,3.1482,3.1482,3.1482,3.1482,3.1482,0.0,0.0,0.0,0.0,3.0402,3.0073,3.112,0.0,0.0,0.0,0.0,0.0,0.0,0.0,0.0,0.0,0.0,0.0,0.0,0.0,0.0,0.0,3.995,3.995,4.0378,4.0805,4.131,4.2337,4.2767,4.2779,4.3204,4.306,4.2369,4.2689,4.2518,4.1901,4.2575,4.2889,4.2965,4.3313,4.3347,4.309,4.309,4.2832,4.2512,4.2847,4.2711,4.232,4.2692,4.2591,4.2252,4.188,4.1779,4.1606,4.0634,4.05,4.0635,3.9897,4.012,4.0595,4.0189,4.0087,4.0087,4.0087,4.0087,4.0087,4.0087,4.0087,4.0087,4.0087,4.0087,4.0087,4.0087,4.0087,4.0087,4.0087,4.0087,4.0087,4.0087,4.0087,4.0087,4.0087,4.0087,4.0087,4.0087,4.0087,4.0087,4.0087,4.0087,4.0257,4.0629,4.0663,4.0832,4.1204,4.1576,4.161,4.1238,4.1914,4.2117,4.1779,4.2523,4.2861,4.2895,4.3673,4.4248,3.121,3.1482,3.1482,3.1482,3.1482,3.1482,3.1482,3.1001,0.0,0.0,0.0,2.9594,2.9594,3.0522,3.1629,0.0,0.0,0.0,0.0,0.0,0.0,0.0,0.0,0.0,0.0,0.0,0.0,0.0,0.0,4.0484,4.0504,4.1179,4.159,4.1737,4.203,4.2222,4.2286,4.2286,4.2072,4.151,4.2038,4.2038,4.151,4.2038,4.2625,4.3166,4.3166,4.3538,4.4079,4.4079,4.3741,4.3166,4.3166,4.2828,4.2286,4.2286,4.2286,4.2286,4.2117,4.2049,4.1948,4.1204,4.1068,4.1068,4.029,4.0493,4.0832,4.0257,4.0087,4.0087,4.0087,4.0087,4.0087,4.0087,4.0087,4.0087,4.0087,4.0087,4.0087,4.0087,4.0087,4.0087,4.0087,4.0087,4.0087,4.0087,4.0087,4.0087,4.0087,4.0087,4.0155,4.029,4.0324,4.0324,4.0324,4.046,4.0798,4.1407,4.1441,4.1711,4.2286,4.2455,4.2455,4.2286,4.2625,4.2692,4.2523,4.347,4.391,4.391,4.4688,4.5365,3.133,3.1482,3.1482,3.1482,3.1482,3.1482,3.1482,0.0,0.0,0.0,2.9624,2.9594,2.9594,3.0133,3.121,0.0,0.0,0.0,0.0,0.0,0.0,0.0,0.0,0.0,0.0,0.0,0.0,0.0,4.0166,4.0566,4.061,4.078,4.0958,4.1066,4.1866,4.2301,4.2286,4.2286,4.2286,4.2233,4.2286,4.2286,4.2233,4.2286,4.232,4.2388,4.2388,4.2422,0.0,4.2489,4.2455,4.2388,4.2388,4.2354,4.2286,4.2286,4.2286,4.2185,4.1542,4.1305,4.117,4.0426,4.0629,4.1068,4.029,4.0121,4.0155,4.0087,4.0087,4.0087,4.0087,4.0087,4.0087,4.0087,4.0087,4.0087,4.0087,4.0087,4.0087,4.0087,4.0087,4.0087,4.0087,4.0087,4.0087,4.0087,4.0087,4.0087,4.0087,4.0087,4.0358,4.1035,4.1102,4.1102,4.1102,4.1711,4.2117,4.2185,4.2185,4.2219,4.2286,4.2963,4.2997,4.2286,4.3673,4.4012,4.3301,4.479,4.55,4.55,4.6244,4.6616,3.0731,3.121,3.1482,3.1482,3.1482,3.1482,3.1482,0.0,0.0,2.9624,2.9265,2.9116,2.9505,3.0073,3.115,0.0,3.3484,0.0,0.0,0.0,0.0,0.0,0.0,0.0,0.0,0.0,0.0,0.0,3.9951,4.0189,4.0713,4.1276,4.14,4.1021,4.1398,4.1407,4.0967,4.0967,4.0967,4.0967,4.0967,4.0967,4.0967,4.0967,4.1204,4.1644,4.1644,4.188,0.0,4.2286,4.2049,4.1644,4.1644,4.1373,4.0967,4.0967,4.0967,4.0899,4.0629,4.0527,4.0493,4.0189,4.029,4.046,4.0155,4.0087,4.0087,4.0087,4.0087,4.0087,4.0087,4.0426,4.0764,4.0764,4.1102,4.1407,4.1407,4.1407,4.1407,4.1407,4.1407,4.1407,4.1407,4.1407,4.1407,4.1407,4.1407,4.1407,4.1407,4.1407,4.1542,4.1813,4.1474,4.1373,4.1813,4.2117,4.2489,4.2929,4.2963,4.3166,4.3639,4.3944,4.3978,4.3673,4.4722,4.5094,4.479,4.5838,4.6346,4.638,4.665,4.7022,3.0563,3.1227,3.1739,3.1739,3.1739,3.1796,0.0,0.0,2.9678,3.0075,2.9335,2.8899,2.9954,3.0303,3.1207,0.0,3.3607,3.3963,3.531,0.0,0.0,0.0,0.0,0.0,0.0,0.0,0.0,0.0,3.9748,3.9842,4.0447,4.111,4.1249,4.0744,4.0814,4.0629,4.0087,4.0087,4.0087,4.0087,4.0087,4.0087,4.0087,4.0087,4.0358,4.0865,4.0865,4.117,0.0,4.1644,4.1339,4.0865,4.0865,4.0561,4.0087,4.0087,4.0087,4.0087,4.0087,4.0087,4.0121,4.0324,4.0426,4.046,4.0663,4.0595,4.046,4.0663,4.073,4.073,4.073,4.1136,4.1542,4.1542,4.1914,4.2286,4.2286,4.2286,4.2286,4.2286,4.2286,4.2286,4.2286,4.2286,4.2286,4.2286,4.2286,4.2286,4.2286,4.2286,4.2388,4.2591,4.2354,4.232,4.2591,4.2828,4.32,4.3741,4.3775,4.4113,4.4891,4.4925,4.5026,4.5229,4.5771,4.6041,4.6041,4.6786,4.7124,4.7124,4.7361,4.7733,3.0968,3.1805,3.2382,3.2382,3.2382,3.2547,0.0,3.1336,2.9907,3.1137,2.9902,2.9155,3.1014,3.0879,3.1291,3.3839,3.3879,3.3963,3.531,0.0,0.0,0.0,0.0,0.0,0.0,0.0,0.0,3.9301,3.9554,0.0,3.9677,3.9935,4.0087,4.0087,4.0087,4.0087,4.0087,4.0087,4.0087,4.0087,4.0087,4.0087,4.0087,4.0087,4.0087,4.0087,4.0087,4.0087,0.0,4.0087,4.0087,4.0087,4.0087,4.0087,4.0087,4.0087,4.0087,4.0087,4.0087,4.0087,4.0189,4.0933,4.1204,4.1339,4.2049,4.1779,4.1339,4.2049,4.2286,4.2286,4.2286,4.2286,4.2286,4.2286,4.2286,4.2286,4.2286,4.2286,4.2286,4.2286,4.2286,4.2286,4.2286,4.2286,4.2286,4.2286,4.2286,4.2286,4.2286,4.2286,4.2591,4.3335,4.4079,4.4248,4.347,4.4113,4.4553,4.4553,4.4553,4.4891,4.5669,4.5703,4.6041,4.6752,4.6786,4.6786,4.6786,4.753,4.7902,4.7936,4.8646,4.8984,3.0467,3.1643,3.2823,3.2332,3.2551,3.3002,3.313,3.1851,3.0865,3.1757,3.1092,3.0616,3.1757,3.2185,3.2757,3.4106,3.4176,0.0,0.0,0.0,0.0,0.0,0.0,0.0,0.0,0.0,0.0,3.9448,3.9573,3.9729,3.9833,3.9986,4.0087,4.0087,4.0087,4.0087,4.0087,4.0087,4.0087,4.0087,4.0087,4.0087,4.0087,4.0087,4.0087,4.0087,4.0087,4.0087,4.0087,4.0087,4.0087,4.0087,4.0087,4.0087,4.0087,4.0087,4.0392,4.0832,4.0832,4.117,4.161,4.188,4.2286,4.2861,4.3606,4.2963,4.1982,4.2219,4.2286,4.2286,4.2286,4.2658,4.3064,4.3064,4.347,4.3842,4.3842,4.3842,4.3842,4.3842,4.3842,4.3842,4.3842,4.3842,4.4012,4.4553,4.4621,4.4621,4.4621,4.4621,4.4519,4.4248,4.4891,4.5263,4.4993,4.5669,4.6075,4.6075,4.6075,4.5974,4.5703,4.5703,4.5568,4.5297,4.6278,4.6786,4.6786,4.8037,4.8646,4.868,4.8883,4.9018,0.0,3.1932,3.308,3.2902,3.3208,3.3515,3.343,3.2219,3.1272,3.1946,3.1561,3.1272,3.1946,3.2704,3.3414,3.4077,3.4472,0.0,0.0,0.0,0.0,0.0,0.0,0.0,0.0,0.0,3.9342,3.9501,3.9625,3.9781,3.9884,4.0037,4.0087,4.0087,4.0087,4.0087,4.0087,4.0087,4.0087,4.0087,4.0087,4.0087,4.0087,4.0087,4.0087,4.0087,4.0087,4.0087,0.0,4.0087,4.0087,4.0087,4.0087,4.0257,4.0493,4.0493,4.0967,4.1644,4.1948,4.232,4.2828,4.3403,4.391,4.4316,4.4519,4.4113,4.3504,4.3234,4.3166,4.3166,4.3166,4.3504,4.3842,4.3842,4.4215,4.4587,4.4587,4.4587,4.4587,4.4587,4.4587,4.4587,4.4587,4.4587,4.4756,4.5196,4.5263,4.5263,4.5263,4.5263,4.5094,4.4621,4.55,4.6109,4.6109,4.6549,4.6684,4.638,4.638,4.6312,4.6109,4.6109,4.6143,4.6244,4.7158,4.7631,4.7631,4.8545,4.9018,4.9018,4.9018,4.9018,0.0,3.2432,3.3145,3.3761,3.3956,3.3974,3.3763,3.2399,0.0,3.1837,3.1534,3.1341,3.2013,3.2752,3.3443,3.4111,3.4856,0.0,0.0,0.0,0.0,0.0,0.0,0.0,0.0,3.9408,3.9428,3.9501,3.9625,3.9781,3.9884,4.0037,4.0087,4.0087,4.0087,4.0087,4.0087,4.0087,4.0087,4.0087,4.0087,4.0087,4.0087,4.0087,4.0087,0.0,4.0087,4.0087,4.0087,4.0087,4.0087,4.0087,4.0155,4.0595,4.1204,4.1339,4.1847,4.2557,4.3335,4.3572,4.3809,4.5229,4.5703,4.5568,4.4857,4.5128,4.5466,4.479,4.4587,4.4587,4.4587,4.4587,4.4587,4.4587,4.4587,4.4587,4.4587,4.4587,4.4587,4.4587,4.4621,4.4654,4.4654,4.4688,4.4756,4.4823,4.4823,4.4823,4.4823,4.4823,4.479,4.4756,4.6007,4.6887,4.6887,4.6921,4.665,4.5974,4.594,4.621,4.6853,4.6887,4.7496,4.8815,4.8917,4.8951,4.9018,4.9018,4.9018,4.9018,4.9018,4.9018,3.1331,0.0,3.2681,3.2319,3.2615,3.3024,0.0,3.2187,0.0,0.0,0.0,3.2052,3.3867,3.3904,3.4268,3.6141,3.6142,0.0,0.0,0.0,0.0,0.0,0.0,0.0,0.0,4.0226,4.0101,3.9692,3.9781,3.9884,4.0037,4.0087,4.0087,4.0087,4.0087,4.0087,4.0087,4.0087,4.0087,4.0087,4.0087,4.0087,4.0087,4.0087,4.0087,4.0087,4.0087,4.0087,4.0087,4.0087,4.0087,4.0155,4.073,4.1035,4.1339,4.2489,4.3369,4.4147,4.4891,4.5162,4.5229,4.5602,4.5703,4.5669,4.55,4.5162,4.479,4.4621,4.4587,4.4587,4.4587,4.4587,4.4587,4.4587,4.4587,4.4587,4.4587,4.4587,4.4587,4.4587,4.506,4.5432,4.5432,4.5906,4.6481,4.7056,4.7124,4.7124,4.7124,4.7124,4.6921,4.6346,4.709,4.7665,4.7665,4.8173,4.8409,4.824,4.824,4.8071,4.7665,4.7665,4.753,4.7327,4.7868,4.8443,4.9018,4.9018,4.9018,4.9018,4.9018,4.9018,3.0907,3.2133,3.3193,3.3127,3.3425,3.3624,0.0,0.0,0.0,0.0,0.0,0.0,3.3657,0.0,0.0,0.0,0.0,0.0,0.0,0.0,0.0,0.0,0.0,0.0,0.0,4.1045,4.0988,4.0749,4.0538,4.0441,4.0595,4.0257,4.0087,4.0087,4.0087,4.0257,4.0595,4.0595,4.0764,4.1102,4.0764,4.0595,4.0595,4.0223,4.0087,4.0087,4.0087,4.0087,4.0087,4.0087,4.029,4.0629,4.1035,4.161,4.2354,4.3538,4.4215,4.4722,4.5838,4.621,4.6143,4.5805,4.5703,4.5635,4.5297,4.4891,4.4587,4.4587,4.4587,4.4587,4.4587,4.4587,4.4587,4.4587,4.4587,4.4587,4.4587,4.4857,4.5094,4.5094,4.5703,4.621,4.621,4.6549,4.6921,4.7327,4.7394,4.7394,4.7394,4.7394,4.7259,4.6819,4.7462,4.7936,4.7936,4.8578,4.8849,4.8545,4.8511,4.8342,4.7936,4.7936,4.7868,4.78,4.8206,4.8612,4.9018,4.9018,4.9018,4.9018,4.9357,4.9492,3.0775,3.2365,3.4021,3.4319,3.4551,3.4518,0.0,0.0,0.0,0.0,0.0,0.0,0.0,0.0,0.0,0.0,0.0,0.0,0.0,0.0,0.0,0.0,0.0,0.0,4.1697,4.1777,4.1911,4.1921,4.148,4.1201,4.1204,4.0696,4.0358,4.0257,4.0358,4.0764,4.1542,4.1305,4.1576,4.2286,4.1677,4.1373,4.1339,4.0696,4.0426,4.0426,0.0,0.0,4.0257,4.0358,4.073,4.1238,4.1474,4.2388,4.3673,4.4451,4.4823,4.5094,4.6244,4.6616,4.6515,4.5771,4.5534,4.5432,4.479,4.4587,4.4587,4.4722,4.4688,4.4587,4.4587,4.4587,4.4587,4.4587,4.4654,4.4756,4.4756,4.5331,4.5872,4.5872,4.6447,4.6955,4.6955,4.7056,4.7124,4.7124,4.7124,4.7124,4.7124,4.7124,4.7124,4.7124,4.7699,4.8071,4.8071,4.8646,4.8748,4.8139,4.8071,4.8071,4.8071,4.8071,4.8376,4.8984,4.9018,4.9018,4.9018,4.912,4.9187,4.9187,4.9932,5.027,3.2,3.3524,3.4319,3.2564,3.3061,3.3756,0.0,0.0,0.0,0.0,0.0,0.0,0.0,0.0,0.0,0.0,0.0,0.0,0.0,0.0,0.0,0.0,0.0,4.3431,4.2835,4.2769,4.2613,4.2118,4.2078,4.1847,4.1238,4.1677,4.1677,4.1035,4.1644,4.232,4.3064,4.1847,4.1576,4.2286,4.2185,4.2117,4.2117,4.2016,4.1948,4.1948,0.0,4.161,4.1068,4.1677,4.1644,4.1339,4.2591,4.3606,4.4485,4.5263,4.594,4.6413,4.6007,4.5872,4.5737,4.4993,4.4756,4.4722,4.4621,4.4587,4.4722,4.5365,4.506,4.4587,4.4587,4.4587,4.4587,4.4587,4.506,4.5534,4.5534,4.6109,4.6616,4.6616,4.7225,4.7733,4.7733,4.824,4.8646,4.8646,4.8646,4.8646,4.8646,4.8646,4.8646,4.8646,4.8748,4.8849,4.8849,4.8951,4.8951,4.8849,4.8849,4.8849,4.8849,4.8849,4.8883,4.9018,4.9018,4.9018,4.9018,4.9627,4.9932,4.9932,5.071,5.1048,3.1338,3.2907,3.4147,3.315,3.428,0.0,0.0,0.0,0.0,0.0,0.0,0.0,0.0,0.0,0.0,0.0,0.0,0.0,0.0,0.0,0.0,0.0,0.0,4.3905,4.3628,4.3652,4.3597,4.3317,4.3023,4.276,4.2422,4.232,4.2151,4.1813,4.2117,4.2658,4.3403,4.2726,4.2794,4.3538,4.3098,4.2895,4.2895,4.2489,4.2286,4.2286,0.0,4.2117,4.1813,4.2151,4.2354,4.2455,4.3166,4.391,4.4621,4.4959,4.5568,4.6109,4.5365,4.5365,4.5635,4.5297,4.5466,4.5771,4.5771,4.5771,4.5838,4.621,4.5466,4.4756,4.5568,4.5466,4.5297,4.5669,4.6041,4.6278,4.6278,4.6887,4.7394,4.7394,4.8003,4.8511,4.8511,4.8781,4.9018,4.9018,4.9018,4.9018,4.9018,4.9018,4.9018,4.9018,4.9018,4.9018,4.9018,4.9018,4.9018,4.9018,4.9018,4.9018,4.9018,4.9018,4.9018,4.9018,4.939,4.9593,4.9593,5.0338,5.071,5.071,5.1454,5.1792,3.1205,3.2619,3.4072,0.0,0.0,0.0,0.0,0.0,0.0,0.0,0.0,0.0,0.0,0.0,0.0,0.0,0.0,0.0,0.0,0.0,0.0,4.4088,4.4155,4.4155,4.4212,4.427,4.4293,4.4384,4.3956,4.3606,4.3436,4.3031,4.2726,4.2557,4.2726,4.3098,4.3673,4.3673,4.3978,4.4587,4.3978,4.3673,4.3673,4.3098,4.2828,4.2828,4.2828,4.2726,4.2557,4.276,4.3064,4.347,4.3809,4.4316,4.4857,4.4857,4.5196,4.5635,4.5026,4.5331,4.5974,4.5974,4.6346,4.6786,4.6786,4.6786,4.6819,4.6989,4.6109,4.5365,4.6515,4.638,4.6109,4.665,4.6921,4.7056,4.7056,4.7631,4.8173,4.8173,4.8612,4.9018,4.9018,4.9018,4.9018,4.9018,4.9018,4.9018,4.9018,4.9018,4.9018,4.9018,4.9018,4.9086,4.9255,4.9255,4.9323,4.9526,4.9187,4.9018,4.9018,4.9018,4.9086,4.9255,4.9796,5.0168,5.0338,5.1116,5.1488,5.1488,5.2232,5.257,3.3193,3.3781,3.4305,0.0,0.0,0.0,0.0,0.0,0.0,0.0,0.0,0.0,0.0,0.0,0.0,0.0,0.0,0.0,0.0,0.0,4.4259,4.4293,4.4293,4.4384,4.4587,4.4384,4.4384,4.4587,4.4519,4.4181,4.347,4.4045,4.4079,4.3369,4.4045,4.4451,4.4485,4.4485,4.4519,4.4587,4.4519,4.4485,4.4485,4.4451,4.4418,4.4418,4.4418,4.4012,4.3403,4.4113,4.4012,4.3572,4.4993,4.5568,4.5635,4.5635,4.5669,4.5703,4.5635,4.6109,4.6718,4.6718,4.6752,4.6786,4.6786,4.6786,4.6921,4.7631,4.7259,4.665,4.6752,4.6752,4.6718,4.6786,4.7327,4.7834,4.7834,4.8409,4.8917,4.8917,4.8951,4.9018,4.9018,4.9018,4.9018,4.9018,4.9018,4.9018,4.9018,4.9018,4.9018,4.9018,4.9018,4.9289,4.9965,4.9999,5.0304,5.1014,4.9763,4.9018,4.9018,4.9018,4.9323,4.9999,5.0067,5.0439,5.115,5.186,5.2232,5.2232,5.3044,5.3416,3.2383,3.3061,0.0,0.0,0.0,0.0,0.0,0.0,0.0,0.0,0.0,0.0,0.0,0.0,0.0,0.0,0.0,0.0,0.0,4.4497,4.4497,4.4497,4.4497,4.4497,4.4587,4.4497,4.4497,4.4587,4.4587,4.4451,4.4147,4.4418,4.4451,4.4147,4.4418,4.4587,4.4587,4.4587,4.4587,4.4587,4.4587,4.4587,4.4587,4.4587,4.4587,4.4587,4.4587,4.4418,4.4147,4.4451,4.4688,4.4891,4.5466,4.5703,4.5703,4.5703,4.6007,4.638,4.638,4.6853,4.7496,4.7496,4.78,4.8173,4.8173,4.8173,4.824,4.8511,4.8376,4.8173,4.8173,4.7834,4.7597,4.8071,4.8376,4.8578,4.8578,4.8815,4.9018,4.9018,4.9357,4.9661,4.9661,5.0067,5.0371,5.0371,5.0371,5.0371,5.0371,5.0371,5.0371,5.0371,5.0371,5.0507,5.0777,5.0777,5.0913,5.1183,5.071,5.0371,5.0371,5.0371,5.0507,5.0777,5.1217,5.1623,5.1894,5.2672,5.3044,5.3044,5.3382,5.3518,3.2378,3.3018,0.0,0.0,0.0,0.0,0.0,0.0,0.0,0.0,0.0,0.0,0.0,0.0,0.0,0.0,0.0,0.0,4.4587,4.4587,4.4587,4.4587,4.4587,4.4587,4.4587,4.4587,4.4587,4.4587,4.4587,4.4587,4.4587,4.4587,4.4587,4.4587,4.4587,4.4587,4.4587,4.4587,4.4587,4.4587,4.4587,4.4587,4.4587,4.4587,4.4587,4.4587,4.4587,4.4587,4.4587,4.4587,4.5026,4.5737,4.5974,4.6041,4.6041,4.6041,4.6515,4.7158,4.7158,4.7631,4.8274,4.8274,4.8612,4.9018,4.9018,4.9018,4.9018,4.9018,4.9018,4.9018,4.9018,4.8646,4.8376,4.8883,4.9018,4.9018,4.9018,4.9187,4.9357,4.9357,4.9932,5.0439,5.0439,5.0879,5.1217,5.1217,5.1217,5.1217,5.1217,5.1217,5.1217,5.1217,5.1217,5.1319,5.1555,5.1555,5.1657,5.1928,5.1928,5.1725,5.1251,5.1217,5.1319,5.1555,5.2063,5.2435,5.2672,5.3247,5.3518,5.3518,5.3518,5.3518,3.3775,0.0,0.0,0.0,0.0,0.0,0.0,0.0,0.0,0.0,0.0,0.0,0.0,0.0,0.0,0.0,0.0,0.0,4.4587,4.4587,4.4587,4.4587,4.4587,4.4587,4.4587,4.4587,4.4587,4.4587,4.4587,4.4587,4.4587,4.4587,4.4587,4.4587,4.4587,4.4587,4.4587,4.4587,4.4587,4.4587,4.4587,4.4587,4.4587,4.4587,4.4587,4.4587,4.4587,4.4587,4.4587,4.4587,4.5026,4.5771,4.6515,4.6819,4.6819,4.6819,4.7293,4.7936,4.7936,4.8409,4.9018,4.9018,4.9018,4.9018,4.9018,4.9018,4.9018,4.9018,4.9018,4.9018,4.9018,4.9018,4.9018,4.9018,4.9018,4.9018,4.9018,4.9593,5.0101,5.0101,5.071,5.1217,5.1217,5.1251,5.1251,5.1251,5.1251,5.1251,5.1251,5.1251,5.1251,5.1251,5.1251,5.1522,5.2266,5.23,5.2638,5.345,5.3484,5.2807,5.1319,5.1251,5.1589,5.23,5.23,5.2706,5.3518,5.3518,5.3518,5.3518,5.3518,5.3518,3.2105,0.0,0.0,0.0,0.0,0.0,0.0,0.0,0.0,0.0,0.0,0.0,0.0,0.0,0.0,0.0,0.0,4.4587,4.4587,4.4587,4.4587,4.4587,4.4587,4.4587,4.4587,4.4587,4.4587,4.4587,4.4587,4.4587,4.4587,4.4587,4.4587,4.4587,4.4587,4.4587,4.4587,4.4587,4.4587,4.4587,4.4587,4.4587,4.4587,4.4587,4.4587,4.4587,4.4587,4.4587,4.4654,4.5703,4.5974,4.5838,4.709,4.7597,4.7597,4.7597,4.8037,4.868,4.868,4.8815,4.9018,4.9018,4.9018,4.9018,4.9018,4.9018,4.9018,4.9018,4.9018,4.9243,5.0206,5.0463,5.0206,4.9243,4.939,4.9763,4.9763,5.0338,5.0879,5.0879,5.1488,5.1961,5.1961,5.2435,5.2841,5.2841,5.2841,5.2841,5.2841,5.2841,5.2841,5.2841,5.3198,5.3524,5.3729,5.4171,5.4618,5.4861,5.4362,5.3741,5.2841,5.2841,5.2942,5.3145,5.3145,5.3281,5.3518,5.3518,5.3518,5.3518,5.3518,5.3518,0.0,0.0,0.0,0.0,0.0,0.0,0.0,0.0,0.0,0.0,0.0,0.0,0.0,0.0,0.0,0.0,4.4282,4.4587,4.4587,4.4587,4.4587,4.4587,4.4587,4.4587,4.4587,4.4587,4.4587,4.4587,4.4587,4.4587,4.4587,4.4587,4.4587,4.4587,4.4587,4.4587,4.4587,4.4587,4.4587,4.4587,4.4831,4.4906,4.4852,4.4665,4.4587,4.4587,4.4587,4.4587,4.4688,4.6177,4.638,4.5872,4.7665,4.8173,4.797,4.824,4.8612,4.9018,4.9018,4.9168,4.9316,4.9316,4.9496,4.9698,4.9698,4.9904,5.0145,5.0145,5.0351,5.0814,5.1674,5.1894,5.1674,5.0814,5.0995,5.1305,5.1305,5.1863,5.2413,5.2413,5.3032,5.3547,5.3547,5.396,5.4269,5.4269,5.4269,5.4269,5.4269,5.4269,5.4269,5.4269,5.4614,5.4765,5.4765,5.5129,5.5402,5.5402,5.5009,5.4676,5.4269,5.3751,5.3518,5.3518,5.3518,5.3518,5.3518,5.3518,5.3518,5.3518,5.3518,5.3518,0.0,0.0,0.0,0.0,0.0,0.0,0.0,0.0,0.0,0.0,0.0,0.0,0.0,0.0,0.0,4.4451,4.4587,4.4587,4.4587,4.4587,4.4587,4.4587,4.4587,4.4587,4.4587,4.4587,4.4587,4.4587,4.4587,4.4587,4.4587,4.4587,4.4587,4.4587,4.4587,4.4587,4.4587,4.4609,4.4665,4.4665,4.5142,4.5338,4.5372,4.4961,4.472,4.472,4.472,4.4754,4.4924,4.6326,4.653,4.6282,4.8293,4.87,4.8252,4.8931,4.9168,4.9168,4.9168,4.9496,4.9988,4.9988,5.0293,5.0697,5.0768,5.1349,5.1946,5.1981,5.2544,5.3162,5.3288,5.3288,5.3324,5.345,5.3359,5.3176,5.3176,5.3809,5.4279,5.4279,5.4875,5.5402,5.5402,5.5402,5.5402,5.5402,5.5367,5.5367,5.5402,5.5402,5.5402,5.5402,5.5461,5.5519,5.5519,5.5484,5.5543,5.5543,5.5519,5.5519,5.5519,5.4333,5.3685,5.3685,5.3685,5.3618,5.3551,5.3551,5.3551,5.3518,5.3518,5.3518,0.0,0.0,0.0,0.0,0.0,0.0,0.0,0.0,0.0,0.0,0.0,0.0,0.0,0.0,0.0,4.4553,4.4587,4.4587,4.4587,4.4587,4.4587,4.4587,4.4587,4.4587,4.4587,4.4587,4.4587,4.4587,4.4587,4.4587,4.4587,4.4587,4.4587,4.4587,4.4587,4.4587,4.4587,4.4981,4.5161,4.5161,4.5648,4.59,4.59,4.58,4.5784,4.5784,4.5784,4.6133,4.676,4.7251,4.7983,4.8816,4.9459,4.9884,5.0105,5.0279,5.0314,5.0314,5.0314,5.0425,5.0535,5.0535,5.0589,5.0803,5.1454,5.1771,5.2052,5.2649,5.2966,5.3324,5.4491,5.4741,5.5027,5.6093,5.5114,5.3928,5.3928,5.4559,5.5121,5.5121,5.5262,5.5402,5.5402,5.5402,5.5402,5.5402,5.5367,5.5332,5.5367,5.5402,5.5402,5.5402,5.5808,5.609,5.609,5.6528,5.6793,5.6793,5.6366,5.609,5.609,5.5402,5.4983,5.4983,5.4983,5.4738,5.4235,5.4235,5.3946,5.3518,5.3518,5.3518,0.0,0.0,0.0,0.0,0.0,0.0,0.0,0.0,0.0,0.0,0.0,0.0,0.0,0.0,4.4587,4.4587,4.4587,4.4665,4.4906,4.472,4.4665,4.4906,4.472,4.4587,4.4587,4.4587,4.4665,4.4906,4.4961,4.5035,4.5302,4.5302,4.5196,4.4961,4.4961,4.4961,4.4961,4.5161,4.539,4.5699,4.6196,4.6613,4.6845,4.6341,4.6098,4.6133,4.652,4.6906,4.7362,4.8207,4.8958,4.9644,5.009,5.0425,5.0697,5.0697,5.0697,5.0697,5.0697,5.0911,5.1157,5.1157,5.156,5.2243,5.2636,5.3278,5.3956,5.4349,5.4741,5.524,5.5969,5.6129,5.6341,5.7029,5.6417,5.5669,5.5669,5.599,5.6221,5.6221,5.6221,5.6221,5.6221,5.6221,5.6221,5.6221,5.6221,5.6185,5.6221,5.6221,5.6221,5.6221,5.6528,5.674,5.674,5.7036,5.7188,5.7188,5.6933,5.674,5.674,5.642,5.5999,5.5402,5.5402,5.5224,5.4887,5.4579,5.4235,5.3946,5.3957,5.4025,0.0,0.0,0.0,0.0,0.0,0.0,0.0,0.0,0.0,0.0,0.0,0.0,0.0,4.472,4.4665,4.4643,4.4665,4.4852,4.5267,4.5035,4.5015,4.5425,4.5089,4.4831,4.472,4.4831,4.5015,4.5267,4.5425,4.5597,4.6049,4.6098,4.59,4.5442,4.5442,4.5442,4.5442,4.5494,4.58,4.6244,4.6753,4.7276,4.7657,4.6895,4.6601,4.6588,4.7307,4.7731,4.8084,4.9254,4.9854,5.0134,5.0665,5.0911,5.1017,5.1017,5.1017,5.1017,5.1017,5.1418,5.1965,5.1965,5.287,5.3929,5.4074,5.4979,5.6029,5.6174,5.6681,5.7188,5.7188,5.7188,5.7188,5.7188,5.7188,5.7188,5.7188,5.7188,5.7188,5.7188,5.7188,5.7188,5.7188,5.7188,5.7188,5.7188,5.7188,5.7188,5.7188,5.7188,5.7188,5.7188,5.7188,5.7188,5.7188,5.7188,5.7261,5.7406,5.7406,5.7478,5.7623,5.7623,5.7136,5.614,5.5857,5.5658,5.5543,5.5148,5.4876,5.4787,5.4903,5.4975,0.0,0.0,0.0,0.0,0.0,0.0,0.0,0.0,0.0,0.0,0.0,0.0,0.0,4.5214,4.5089,4.4665,4.4961,4.5214,4.532,4.5648,4.59,4.6,4.595,4.5734,4.5267,4.5631,4.5699,4.532,4.5699,4.6,4.6098,4.6098,4.6049,4.6,4.6,4.6,4.6,4.6436,4.6707,4.6799,4.7363,4.7615,4.7735,4.8294,4.854,4.854,4.8604,4.9478,5.0731,5.0449,5.0999,5.2065,5.1615,5.1835,5.2257,5.2257,5.2257,5.2257,5.2257,5.2773,5.3435,5.3435,5.4026,5.487,5.5486,5.5848,5.6138,5.6826,5.7116,5.7188,5.7188,5.7188,5.7188,5.7188,5.7188,5.7188,5.7188,5.7188,5.7188,5.7188,5.7188,5.7188,5.7188,5.7188,5.7188,5.7188,5.7188,5.7188,5.7188,5.7188,5.7188,5.7188,5.7188,5.7188,5.7188,5.7188,5.7478,5.8202,5.8239,5.8565,5.9253,5.9289,5.9237,5.9042,5.767,5.6688,5.6201,5.6787,5.6821,5.623,5.6344,5.6398,0.0,0.0,0.0,0.0,0.0,0.0,0.0,0.0,0.0,0.0,0.0,0.0,4.58,4.5749,4.5648,4.5477,4.5631,4.585,4.6147,4.6147,4.6196,4.6519,4.6293,4.6,4.5749,4.595,4.6098,4.6196,4.6389,4.666,4.6972,4.7017,4.6845,4.6566,4.6566,4.6566,4.6566,4.6753,4.7062,4.7363,4.7615,4.7953,4.8387,4.8749,4.8931,4.8967,4.9872,5.0633,5.1321,5.1488,5.1968,5.248,5.2209,5.2293,5.248,5.248,5.277,5.3168,5.3168,5.3711,5.4363,5.4363,5.4907,5.5595,5.5884,5.6319,5.6754,5.708,5.7188,5.7188,5.7188,5.7188,5.7188,5.7188,5.7188,5.7188,5.7188,5.7188,5.7188,5.7188,5.7188,5.7188,5.7188,5.7188,5.7188,5.7188,5.7188,5.7188,5.7188,5.7188,5.7188,5.7188,5.7587,5.7876,5.7876,5.8275,5.8709,5.9072,5.9072,5.9253,5.9579,5.9615,5.9615,5.9615,5.8927,5.8425,5.816,5.8121,5.7982,5.7694,5.7806,5.784,0.0,0.0,0.0,0.0,0.0,0.0,0.0,0.0,0.0,0.0,0.0,4.6972,4.6566,4.6424,4.6244,4.6098,4.6196,4.6436,4.6845,4.666,4.666,4.7062,4.6753,4.6436,4.6328,4.6424,4.6613,4.6845,4.7017,4.7276,4.7657,4.7699,4.7529,4.7107,4.7107,4.7107,4.7107,4.7107,4.732,4.7699,4.7699,4.8134,4.8931,4.9112,4.9329,4.9582,5.0778,5.1393,5.1647,5.2263,5.248,5.248,5.248,5.248,5.2516,5.2733,5.3168,5.3748,5.3929,5.4508,5.5196,5.5196,5.5703,5.6283,5.6283,5.6717,5.7188,5.7188,5.7188,5.7188,5.7188,5.7188,5.7188,5.7188,5.7188,5.7188,5.7188,5.7188,5.7188,5.7188,5.7188,5.7188,5.7188,5.7188,5.7188,5.7188,5.7369,5.7514,5.7514,5.7695,5.7804,5.7804,5.8347,5.8709,5.8709,5.9253,5.9687,5.9905,5.9905,6.0013,6.0194,6.0231,6.0231,6.0231,6.0231,6.0013,5.9615,5.9329,5.9235,5.9215,5.9348,5.9399,0.0,0.0,0.0,0.0,0.0,0.0,0.0,0.0,0.0,0.0,0.0,4.7657,4.7615,4.7196,4.6707,4.6196,4.6519,4.6845,4.6926,4.732,4.7615,4.7657,4.7615,4.7407,4.689,4.732,4.7407,4.6972,4.7363,4.7657,4.7699,4.7699,4.7657,4.7657,4.7657,4.7657,4.7657,4.7657,4.7657,4.7699,4.7699,4.8134,4.8931,4.9691,5.0452,5.1176,5.1249,5.1719,5.2444,5.248,5.248,5.248,5.248,5.248,5.2589,5.3349,5.3675,5.382,5.4581,5.5305,5.5921,5.5921,5.6464,5.7152,5.7152,5.7152,5.7188,5.7188,5.7188,5.7188,5.7188,5.7188,5.7188,5.7188,5.7188,5.7188,5.7188,5.7188,5.7188,5.7188,5.7188,5.7188,5.7188,5.7188,5.7188,5.7188,5.784,5.8347,5.8347,5.8999,5.947,5.947,5.9506,5.9542,5.9542,5.9579,5.9941,6.0701,6.0738,6.11,6.186,6.1897,6.1897,6.1897,6.1897,6.1136,5.9615,6.0322,6.0684,6.072,6.0791,6.0855,0.0,0.0,0.0,0.0,0.0,0.0,0.0,0.0,0.0,0.0,0.0,4.7699,4.7699,4.7536,4.7363,4.7151,4.732,4.7407,4.7407,4.7572,4.7699,4.7699,4.7699,4.7615,4.7407,4.7615,4.7615,4.7407,4.7615,4.7699,4.7699,4.7699,4.7699,4.7699,4.7699,4.7699,4.7699,4.7699,4.7699,4.7735,4.8242,4.8894,4.9691,5.0488,5.1285,5.2082,5.2082,5.2226,5.248,5.248,5.248,5.248,5.248,5.2806,5.3313,5.3603,5.4327,5.5196,5.5522,5.6102,5.6754,5.6754,5.6971,5.7188,5.7188,5.7188,5.7188,5.7188,5.7188,5.7188,5.7188,5.7188,5.7188,5.7188,5.7188,5.7188,5.7188,5.7188,5.7188,5.7188,5.7188,5.7188,5.7188,5.7623,5.7985,5.7985,5.8637,5.918,5.918,5.9434,5.9615,5.9615,6.0086,6.0375,6.0375,6.0846,6.1281,6.1571,6.1571,6.1716,6.2005,6.2005,6.2005,6.2005,6.2005,6.1752,6.1136,6.1462,6.1571,6.1607,6.164,6.1636,0.0,0.0,0.0,0.0,0.0,0.0,0.0,0.0,0.0,0.0,4.7699,4.7699,4.7699,4.7699,4.7699,4.7699,4.7699,4.7699,4.7699,4.7699,4.7699,4.7699,4.7953,4.8025,4.7735,4.7953,4.7989,4.7735,4.7699,0.0,4.7699,4.7699,4.7699,4.7699,4.7699,4.7699,4.7699,4.7699,4.7844,4.8134,4.8641,4.9474,5.0524,5.1067,5.1719,5.248,5.248,5.248,5.248,5.248,5.248,5.2516,5.2806,5.3241,5.3748,5.4291,5.5124,5.6029,5.6319,5.6754,5.7188,5.7188,5.7188,5.7188,5.7188,5.7188,5.7188,5.7188,5.7188,5.7188,5.7188,5.7188,5.7188,5.7188,5.7188,5.7188,5.7188,5.7188,5.7188,5.7188,5.7406,5.7587,5.7587,5.8275,5.8818,5.8818,5.9506,6.0013,6.0013,6.0267,6.0412,6.0412,6.0883,6.1208,6.1208,6.1716,6.2005,6.2005,6.2005,6.2005,6.2005,6.2005,6.2005,6.2005,6.2005,6.2005,6.2005,6.2005,6.2005,6.2005,6.2005,6.2005,0.0,0.0,0.0,0.0,0.0,0.0,0.0,0.0,0.0,0.0,4.7627,4.7663,4.7699,4.7699,4.7735,4.7735,4.7735,4.7735,4.7735,4.7735,4.7735,4.7772,4.846,4.8641,4.7844,4.8496,4.8605,4.7808,4.7735,4.7735,4.7699,4.7699,4.7699,4.7699,4.7735,4.7735,4.7735,4.7772,4.817,4.8967,4.8967,4.98,5.1285,5.1321,5.1756,5.248,5.248,5.248,5.248,5.248,5.2516,5.2625,5.3385,5.3748,5.3965,5.545,5.6029,5.6138,5.6935,5.7188,5.7188,5.7188,5.7188,5.7188,5.7188,5.7188,5.7188,5.7188,5.7188,5.7188,5.7188,5.7188,5.7188,5.7188,5.7188,5.7188,5.7188,5.7224,5.7224,5.7224,5.7876,5.842,5.842,5.9108,5.9651,5.9651,6.0339,6.0846,6.0846,6.1534,6.2005,6.2005,6.2005,6.2005,6.2005,6.2005,6.2005,6.2005,6.2005,6.2005,6.2005,6.2005,6.2005,6.2005,6.2005,6.2005,6.2005,6.2005,6.2005,6.2005,6.2005,6.2005,3.0677,0.0,0.0,0.0,0.0,0.0,0.0,0.0,0.0,4.5345,4.5961,4.6323,4.7482,4.7699,4.7916,4.8496,4.8098,4.7916,4.8496,4.8568,4.8786,4.9365,4.9619,4.9655,4.9438,4.9619,4.9438,0.0,4.8568,4.8315,4.7735,4.7699,4.7699,4.7699,4.8279,4.8568,4.8568,4.9148,4.9546,4.9764,5.0343,5.085,5.1321,5.19,5.2299,5.248,5.248,5.248,5.248,5.248,5.2842,5.3385,5.3603,5.4363,5.5414,5.5848,5.6355,5.6899,5.7116,5.7188,5.7188,5.7188,5.7188,5.7188,5.7188,5.7188,5.7188,5.7188,5.7188,5.7188,5.7188,5.7188,5.7188,5.7188,5.7188,5.7188,5.7188,5.7659,5.8058,5.8058,5.8239,5.8601,5.918,5.9941,6.0484,6.0484,6.1172,6.1679,6.1679,6.186,6.2005,6.2005,6.2005,6.2005,6.2005,6.2005,6.2005,6.2005,6.2005,6.2005,6.2005,6.2005,6.2005,6.2005,6.2005,6.2005,6.2005,6.2005,6.2005,6.2005,6.2005,6.2005,0.0,0.0,0.0,0.0,0.0,0.0,0.0,3.9875,0.0,0.0,4.5562,4.6106,4.7047,4.7482,4.7989,4.8786,4.8532,4.8496,4.9293,4.9401,4.9582,5.0017,5.0379,5.0452,5.0126,5.0379,5.0271,4.9474,4.9112,4.8568,4.7735,4.7699,4.7844,4.8206,4.8677,4.9075,4.9401,4.9872,5.0271,5.0597,5.1067,5.1466,5.1828,5.2299,5.248,5.248,5.248,5.248,5.2516,5.2842,5.3277,5.3748,5.4399,5.5196,5.6029,5.6355,5.679,5.7188,5.7188,5.7188,5.7188,5.7188,5.7188,5.7188,5.7188,5.7188,5.7188,5.7188,5.7188,5.7188,5.7188,5.7188,5.7188,5.7188,5.7188,5.7188,5.7188,5.784,5.8383,5.8383,5.8963,5.9542,6.0013,6.0774,6.1317,6.1317,6.1716,6.2005,6.2005,6.2005,6.2005,6.2005,6.2005,6.2005,6.2005,6.2005,6.2005,6.2005,6.2005,6.2005,6.2005,6.2005,6.2005,6.2005,6.2005,6.2005,6.2005,6.2005,6.2005,6.2005,6.2005,6.2005,0.0,0.0,0.0,0.0,0.0,0.0,3.9654,4.0019,4.0238,0.0,4.5273,4.5888,4.6069,4.6757,4.7554,4.8279,4.8677,4.922,5.009,5.0234,5.0271,5.0343,5.0995,5.114,5.0416,5.0995,5.1104,5.0271,4.9474,4.8713,4.8025,4.7989,4.8315,4.9039,4.9148,4.951,5.0279,5.0307,5.0705,5.143,5.143,5.1792,5.2526,5.2526,5.2526,5.2526,5.2526,5.2552,5.2697,5.3494,5.382,5.3965,5.5414,5.6029,5.621,5.6935,5.7188,5.7188,5.7188,5.7188,5.7188,5.7188,5.7188,5.7188,5.7188,5.7188,5.7188,5.7188,5.7188,5.7188,5.7188,5.7188,5.7188,5.7188,5.7188,5.7224,5.7297,5.7985,5.8565,5.8637,5.9832,6.0846,6.0919,6.1534,6.2005,6.2005,6.2005,6.2005,6.2005,6.2005,6.2005,6.2005,6.2005,6.2005,6.2005,6.2005,6.2005,6.2005,6.2005,6.2005,6.2005,6.2005,6.2005,6.2005,6.2005,6.2005,6.2005,6.2005,6.2005,6.2005,6.2005,6.2005,0.0,0.0,3.5447,0.0,0.0,0.0,3.5314,3.6921,3.8891,0.0,4.1252,4.2232,4.3503,4.4411,4.5031,4.5251,4.7393,4.9488,5.085,5.1067,5.1285,5.1937,5.2154,5.219,5.2045,5.2154,5.1937,5.1104,5.0307,4.98,4.9619,4.9619,4.9735,5.0003,5.0532,5.0967,5.1201,5.1765,5.2118,5.2263,5.2263,5.2381,5.2581,5.2581,5.2627,5.2717,5.2627,5.2944,5.3598,5.4375,5.4689,5.4762,5.5631,5.6391,5.6971,5.7152,5.7188,5.7188,5.7188,5.7188,5.7188,5.7188,5.7289,5.7338,5.7239,5.7289,5.7338,5.7239,5.7188,5.7188,5.7188,5.7188,5.7188,5.7188,5.7289,5.752,5.8021,5.8885,5.9683,6.0231,6.0593,6.1027,6.1679,6.1933,6.2005,6.2005,6.2005,6.2005,6.2005,6.2005,6.2005,6.2005,6.2005,6.2005,6.2005,6.2005,6.2005,6.2005,6.2005,6.2005,6.2005,6.2005,6.2005,6.2005,6.2005,6.2005,6.2005,6.2005,6.2005,6.2005,6.2005,6.2005,0.0,0.0,3.7192,3.7259,0.0,0.0,0.0,3.6619,3.7721,3.9756,4.0156,4.0666,4.2268,4.2887,4.3287,4.3725,4.6051,4.797,4.8369,5.0105,5.1285,5.1285,5.1647,5.19,5.19,5.2263,5.2154,5.1357,5.0923,5.0524,5.009,5.0177,5.0439,5.0882,5.1246,5.169,5.2134,5.24,5.2536,5.2536,5.2536,5.2581,5.259,5.2635,5.298,5.3389,5.3344,5.3736,5.4573,5.5268,5.5547,5.562,5.6332,5.6826,5.7188,5.7188,5.7188,5.7188,5.7188,5.7239,5.7289,5.7289,5.7388,5.7486,5.7388,5.7388,5.7388,5.7289,5.7239,5.7188,5.7289,5.7289,5.7289,5.7388,5.7437,5.7704,5.8442,5.9292,6.0143,6.084,6.1349,6.1696,6.2041,6.2168,6.2168,6.2114,6.2114,6.2114,6.2114,6.2114,6.2114,6.2222,6.2222,6.2222,6.2222,6.2222,6.2168,6.2114,6.2114,6.206,6.2005,6.2005,6.2005,6.2005,6.2005,6.2005,6.2005,6.2005,6.2005,6.2005,6.2005,6.2005,0.0,0.0,0.0,0.0,0.0,3.7046,0.0,0.0,0.0,3.9385,3.9495,0.0,0.0,0.0,0.0,0.0,0.0,0.0,0.0,4.7756,0.0,4.9742,5.0496,5.1112,5.1157,5.1402,5.1584,5.1547,5.1112,5.0786,5.0569,5.0693,5.1071,5.1762,5.1814,5.2149,5.285,5.2717,5.2635,5.2635,5.2635,5.2635,5.2717,5.2951,5.3434,5.4099,5.42,5.4748,5.5504,5.603,5.6309,5.6479,5.6985,5.7188,5.7188,5.7239,5.7239,5.7239,5.7239,5.7338,5.7437,5.7437,5.7486,5.7583,5.7631,5.7534,5.7437,5.7437,5.7338,5.7289,5.7388,5.7437,5.7437,5.7583,5.7729,5.8105,5.8859,5.9661,6.0514,6.1266,6.1959,6.2433,6.2238,6.2328,6.2344,6.2238,6.2238,6.2238,6.2238,6.2238,6.2238,6.2381,6.2433,6.2433,6.2433,6.2433,6.2344,6.2275,6.2238,6.2168,6.206,6.2005,6.2005,6.2005,6.2005,6.2005,6.2005,6.2005,6.2005,6.2005,6.2005,6.2005,0.0,0.0,0.0,0.0,3.9585,0.0,0.0,0.0,3.7034,3.6705,0.0,0.0,0.0,0.0,0.0,0.0,0.0,0.0,4.1533,4.3616,4.5945,4.7984,4.9471,5.0373,5.0502,4.93,4.9622,5.2263,5.0475,5.0148,5.2227,5.2336,5.2462,5.2827,5.2704,5.2777,5.298,5.285,5.2761,5.2761,5.2761,5.285,5.2974,5.3705,5.4159,5.4393,5.5001,5.5725,5.6447,5.639,5.6721,5.7279,5.7202,5.7188,5.7188,5.7338,5.7388,5.7388,5.7486,5.7534,5.7583,5.7583,5.7583,5.7631,5.7763,5.7679,5.7583,5.7583,5.7534,5.7534,5.7583,5.7583,5.7583,5.7583,5.8263,5.9042,5.9748,6.0601,6.1455,6.2105,6.2427,6.2552,6.2397,6.2381,6.2397,6.2381,6.2381,6.2381,6.2381,6.2381,6.2344,6.2433,6.2433,6.2433,6.2433,6.2433,6.2397,6.2381,6.2381,6.2328,6.2185,6.206,6.2005,6.2005,6.2005,6.2005,6.2005,6.2005,6.2005,6.2005,6.2005,6.2005,0.0,0.0,0.0,0.0,0.0,0.0,3.6046,0.0,3.6172,0.0,0.0,0.0,0.0,0.0,0.0,0.0,0.0,0.0,0.0,0.0,4.4089,0.0,0.0,0.0,4.8862,4.8389,4.8717,5.0496,4.9695,4.9768,5.1224,5.2295,5.2893,5.298,5.3017,5.306,5.3103,5.298,5.2893,5.2893,5.2893,5.3193,5.3712,5.4166,5.4869,5.5831,5.6116,5.6658,5.7391,5.7298,5.7386,5.7583,5.7486,5.7388,5.7338,5.7437,5.7486,5.7534,5.7583,5.7631,5.7763,5.781,5.7857,5.7857,5.7904,5.7857,5.7715,5.7715,5.7631,5.7583,5.7715,5.7715,5.7872,5.8396,5.8809,5.9443,6.0677,6.1275,6.1752,6.2508,6.2654,6.2705,6.2654,6.2603,6.2603,6.25,6.25,6.25,6.25,6.25,6.2552,6.2603,6.2603,6.2603,6.2603,6.2603,6.2603,6.25,6.2449,6.2344,6.2222,6.2168,6.206,6.2005,6.2005,6.2005,6.2005,6.2005,6.2005,6.2005,6.2005,6.2005,4.269,0.0,0.0,0.0,0.0,0.0,0.0,0.0,0.0,0.0,0.0,0.0,0.0,0.0,0.0,0.0,0.0,0.0,0.0,0.0,0.0,0.0,0.0,0.0,0.0,4.6976,4.7119,4.8794,4.8283,4.8648,5.0368,5.1877,5.2761,5.306,5.3146,5.3225,5.3225,5.3103,5.306,5.306,5.328,5.3683,5.4269,5.4796,5.5721,5.6822,5.7042,5.7446,5.7997,5.7904,5.7857,5.781,5.7726,5.7631,5.7486,5.7583,5.7631,5.7631,5.7715,5.781,5.7904,5.795,5.7997,5.7997,5.7997,5.795,5.7857,5.7857,5.781,5.7726,5.7857,5.8004,5.838,5.9014,5.9538,6.0199,6.1337,6.1777,6.2108,6.2695,6.2805,6.2805,6.2805,6.2805,6.2755,6.2654,6.2654,6.2654,6.2654,6.2654,6.2705,6.2805,6.2805,6.2805,6.2805,6.2805,6.2755,6.2654,6.25,6.2397,6.2291,6.2238,6.2222,6.2114,6.206,6.206,6.206,6.2005,6.2005,6.2005,6.2005,6.2005,0.0,0.0,0.0,3.9753,0.0,0.0,0.0,0.0,3.7661,0.0,0.0,0.0,0.0,0.0,0.0,0.0,0.0,0.0,0.0,0.0,0.0,0.0,0.0,0.0,0.0,4.4306,4.4088,0.0,4.5991,4.6394,5.0383,5.137,5.2254,5.3188,5.3225,5.3225,5.3225,5.3225,5.3188,5.3225,5.3995,5.4363,5.4473,5.6014,5.6748,5.6859,5.7629,5.796,5.7997,5.7997,5.7904,5.781,5.795,5.7904,5.781,5.781,5.781,5.781,5.795,5.7997,5.7997,5.7997,5.7997,5.7997,5.7997,5.7997,5.7997,5.7997,5.7997,5.7997,5.7997,5.8584,5.9171,5.9208,6.0382,6.152,6.1594,6.2218,6.2768,6.2805,6.2805,6.2805,6.2805,6.2805,6.2805,6.2805,6.2805,6.2805,6.2805,6.2805,6.2805,6.2805,6.2805,6.2805,6.2805,6.2805,6.2805,6.2805,6.2654,6.2603,6.2603,6.2449,6.2397,6.2381,6.2238,6.2185,6.2185,6.206,6.2005,6.2005,6.2005,6.2005,0.0,0.0,4.548,4.1956,0.0,0.0,0.0,0.0,0.0,0.0,0.0,0.0,0.0,0.0,0.0,0.0,0.0,0.0,0.0,0.0,0.0,0.0,0.0,0.0,0.0,0.0,0.0,0.0,4.4784,0.0,4.8155,5.0615,5.2082,5.2417,5.2931,5.3225,5.3225,5.3225,5.3482,5.3995,5.4289,5.495,5.6014,5.6565,5.7079,5.7593,5.7886,5.7997,5.7997,5.7997,5.7997,5.795,5.7997,5.7997,5.795,5.795,5.795,5.795,5.7997,5.7997,5.7997,5.7997,5.7997,5.7997,5.7997,5.7997,5.7997,5.7997,5.7997,5.8107,5.8657,5.9024,5.9501,6.0529,6.119,6.1741,6.2291,6.2622,6.2805,6.2805,6.2805,6.2805,6.2805,6.2805,6.2805,6.2805,6.2805,6.2805,6.2805,6.2805,6.2805,6.2805,6.2805,6.2805,6.2805,6.2805,6.2805,6.2805,6.2755,6.2705,6.2603,6.2552,6.25,6.2397,6.2381,6.2291,6.2185,6.2168,6.2114,6.2005,6.2005,6.2005,4.5993,4.6507,0.0,4.3461,4.2727,0.0,3.9386,0.0,0.0,0.0,0.0,0.0,0.0,0.0,0.0,0.0,0.0,0.0,0.0,0.0,0.0,0.0,0.0,0.0,0.0,0.0,4.2139,4.3791,4.4158,0.0,0.0,5.0105,5.1683,5.1977,5.2784,5.3335,5.3628,5.3628,5.4032,5.484,5.5133,5.5794,5.6822,5.7116,5.7519,5.7997,5.7997,5.7997,5.7997,5.7997,5.7997,5.7997,5.7997,5.7997,5.7997,5.7997,5.7997,5.7997,5.7997,5.7997,5.7997,5.7997,5.7997,5.7997,5.7997,5.7997,5.7997,5.7997,5.8217,5.8547,5.9098,5.9648,6.0309,6.1337,6.1814,6.2181,6.2695,6.2805,6.2805,6.2805,6.2805,6.2805,6.2805,6.2805,6.2805,6.2805,6.2805,6.2805,6.2805,6.2805,6.2805,6.2805,6.2805,6.2805,6.2805,6.2805,6.2805,6.2805,6.2805,6.2755,6.2654,6.2654,6.2603,6.2552,6.25,6.2397,6.2238,6.2185,6.2114,6.2005,6.2005,6.2005]},{"header":{"parameterUnit":"m.s-1","parameterCategory":1,"la1":30.6,"la2":29.2853,"lo1":-89.7004,"lo2":-87.6739,"dy":0.0162,"dx":0.0183,"nx":112,"ny":82,"refTime":"2025-01-20T06:00:00:Z","depth":0,"parameterNumber":3,"parameterNumberName":"V-component_of_WINDS"},"data":[0.0,0.0,0.0,0.0,0.0,0.0,0.0,0.0,0.0,0.0,0.0,0.0,0.0,0.0,0.0,0.0,0.0,0.0,0.0,0.0,0.0,0.0,0.0,0.0,0.0,0.0,0.0,0.0,0.0,0.0,0.0,0.0,0.0,0.0,0.0,0.0,0.0,0.0,0.0,0.0,0.0,0.0,0.0,0.0,0.0,0.0,0.0,0.0,0.0,0.0,0.0,0.0,0.0,0.0,0.0,0.0,0.0,0.0,0.0,0.0,0.0,0.0,0.0,0.0,0.0,0.0,0.0,0.0,0.0,0.0,0.0,0.0,0.0,0.0,0.0,0.0,0.0,0.0,0.0,0.0,0.0,0.0,0.0,0.0,0.0,0.0,0.0,0.0,0.0,0.0,0.0,-1.8204,-1.9208,-1.9811,-1.9811,-1.9736,-1.9058,-1.7601,0.0,0.0,0.0,0.0,0.0,0.0,0.0,0.0,0.0,0.0,0.0,0.0,0.0,0.0,0.0,0.0,0.0,0.0,0.0,0.0,0.0,0.0,0.0,0.0,0.0,0.0,0.0,0.0,0.0,0.0,0.0,0.0,0.0,0.0,0.0,0.0,0.0,0.0,0.0,0.0,0.0,0.0,0.0,0.0,0.0,0.0,0.0,0.0,0.0,0.0,0.0,0.0,0.0,0.0,0.0,0.0,0.0,0.0,0.0,0.0,0.0,0.0,0.0,0.0,0.0,0.0,0.0,0.0,0.0,0.0,0.0,0.0,0.0,0.0,0.0,0.0,0.0,0.0,0.0,0.0,0.0,0.0,0.0,0.0,0.0,0.0,0.0,0.0,0.0,0.0,0.0,0.0,0.0,0.0,0.0,0.0,0.0,0.0,0.0,0.0,0.0,0.0,0.0,0.0,-1.7124,-1.8731,-1.9434,-1.9811,-1.9811,-1.9409,-1.8832,-1.8129,0.0,0.0,0.0,0.0,0.0,0.0,0.0,0.0,0.0,0.0,0.0,0.0,0.0,0.0,0.0,0.0,0.0,0.0,0.0,0.0,0.0,0.0,0.0,0.0,0.0,0.0,0.0,0.0,0.0,0.0,0.0,0.0,0.0,0.0,0.0,0.0,0.0,0.0,0.0,0.0,0.0,0.0,0.0,0.0,0.0,0.0,0.0,0.0,0.0,0.0,0.0,0.0,0.0,0.0,0.0,0.0,0.0,0.0,0.0,0.0,0.0,0.0,0.0,0.0,0.0,0.0,0.0,0.0,0.0,0.0,0.0,0.0,0.0,0.0,0.0,0.0,0.0,0.0,0.0,0.0,0.0,0.0,0.0,0.0,0.0,0.0,0.0,0.0,0.0,0.0,0.0,0.0,0.0,0.0,0.0,0.0,0.0,0.0,0.0,0.0,0.0,0.0,0.0,-1.7124,-1.7953,-1.9309,-1.966,-1.9811,-1.9811,-1.9585,-1.9083,-1.8254,-1.7149,0.0,0.0,0.0,0.0,0.0,0.0,0.0,0.0,0.0,0.0,0.0,0.0,0.0,0.0,0.0,0.0,0.0,0.0,0.0,0.0,0.0,0.0,0.0,0.0,0.0,0.0,0.0,0.0,0.0,0.0,0.0,0.0,0.0,0.0,0.0,0.0,0.0,0.0,0.0,0.0,0.0,0.0,0.0,0.0,0.0,0.0,0.0,0.0,0.0,0.0,0.0,0.0,0.0,0.0,0.0,0.0,0.0,0.0,0.0,0.0,0.0,0.0,0.0,0.0,0.0,0.0,0.0,0.0,0.0,0.0,0.0,0.0,0.0,0.0,0.0,0.0,0.0,0.0,0.0,0.0,0.0,0.0,0.0,0.0,0.0,0.0,0.0,0.0,0.0,0.0,0.0,0.0,0.0,0.0,0.0,0.0,0.0,0.0,0.0,0.0,0.0,0.0,-1.8204,-1.8606,-1.9685,-1.9811,-1.9811,-1.9811,-1.9685,-1.9208,-1.8254,-1.7024,0.0,0.0,0.0,0.0,0.0,0.0,0.0,0.0,0.0,0.0,0.0,0.0,0.0,0.0,0.0,0.0,0.0,0.0,0.0,0.0,0.0,0.0,0.0,0.0,0.0,0.0,0.0,0.0,0.0,0.0,0.0,0.0,0.0,0.0,0.0,0.0,0.0,0.0,0.0,0.0,0.0,0.0,0.0,0.0,0.0,0.0,0.0,0.0,0.0,0.0,0.0,0.0,0.0,0.0,0.0,0.0,0.0,0.0,0.0,0.0,0.0,0.0,0.0,0.0,0.0,0.0,0.0,0.0,0.0,0.0,0.0,0.0,0.0,0.0,0.0,0.0,0.0,0.0,0.0,0.0,0.0,0.0,0.0,0.0,0.0,0.0,0.0,0.0,0.0,0.0,0.0,0.0,0.0,0.0,0.0,0.0,0.0,0.0,0.0,0.0,0.0,0.0,-1.8204,-1.8606,-1.9685,-1.9811,-1.9811,-1.9811,-1.9359,-1.8832,-1.8254,-1.6672,0.0,0.0,0.0,0.0,0.0,0.0,0.0,0.0,0.0,0.0,0.0,0.0,0.0,0.0,0.0,0.0,0.0,0.0,0.0,0.0,0.0,0.0,0.0,0.0,0.0,0.0,0.0,0.0,0.0,0.0,0.0,0.0,0.0,0.0,0.0,0.0,0.0,0.0,0.0,0.0,0.0,0.0,0.0,0.0,0.0,0.0,0.0,0.0,0.0,0.0,0.0,0.0,0.0,0.0,0.0,0.0,0.0,0.0,0.0,0.0,0.0,0.0,0.0,0.0,0.0,0.0,0.0,0.0,0.0,0.0,0.0,0.0,0.0,0.0,0.0,0.0,0.0,0.0,0.0,0.0,0.0,0.0,0.0,0.0,0.0,0.0,0.0,0.0,0.0,0.0,0.0,0.0,0.0,0.0,0.0,0.0,0.0,0.0,0.0,0.0,0.0,0.0,-1.8204,-1.8606,0.0,-1.9811,-1.9811,-1.9811,-1.961,-1.8982,-1.7777,0.0,0.0,0.0,0.0,0.0,0.0,0.0,0.0,0.0,0.0,0.0,0.0,0.0,0.0,0.0,0.0,0.0,0.0,0.0,0.0,0.0,0.0,0.0,0.0,0.0,0.0,0.0,0.0,0.0,0.0,0.0,0.0,0.0,0.0,0.0,0.0,0.0,0.0,0.0,0.0,0.0,0.0,0.0,0.0,0.0,0.0,0.0,0.0,0.0,0.0,0.0,0.0,0.0,0.0,0.0,0.0,0.0,0.0,0.0,0.0,0.0,0.0,0.0,0.0,0.0,0.0,0.0,0.0,0.0,0.0,0.0,0.0,0.0,0.0,0.0,0.0,0.0,0.0,0.0,0.0,0.0,0.0,0.0,0.0,0.0,0.0,0.0,0.0,0.0,0.0,0.0,0.0,0.0,0.0,0.0,0.0,0.0,0.0,0.0,0.0,0.0,0.0,-1.7928,-1.8355,-1.8807,0.0,-1.9811,-1.9811,-1.9811,-1.9484,-1.8756,-1.7476,0.0,0.0,0.0,0.0,0.0,0.0,0.0,0.0,0.0,0.0,0.0,0.0,0.0,0.0,0.0,0.0,0.0,0.0,0.0,0.0,0.0,0.0,0.0,0.0,0.0,0.0,0.0,0.0,0.0,0.0,0.0,0.0,0.0,0.0,0.0,0.0,0.0,0.0,0.0,0.0,0.0,0.0,0.0,0.0,0.0,0.0,0.0,0.0,0.0,0.0,0.0,0.0,0.0,0.0,0.0,0.0,0.0,0.0,0.0,0.0,0.0,0.0,0.0,0.0,0.0,0.0,0.0,0.0,0.0,0.0,0.0,0.0,0.0,0.0,0.0,0.0,0.0,0.0,0.0,0.0,0.0,0.0,0.0,0.0,0.0,0.0,0.0,0.0,0.0,0.0,0.0,0.0,0.0,0.0,0.0,0.0,0.0,0.0,0.0,0.0,0.0,0.0,-1.7978,-1.8681,-1.9233,-1.9736,-1.9811,-1.9811,-1.9811,-1.8832,-1.7978,0.0,0.0,0.0,0.0,0.0,0.0,0.0,0.0,0.0,0.0,0.0,0.0,0.0,0.0,0.0,0.0,0.0,0.0,0.0,0.0,0.0,0.0,0.0,0.0,0.0,0.0,0.0,0.0,0.0,0.0,0.0,0.0,0.0,0.0,0.0,0.0,0.0,0.0,0.0,0.0,0.0,0.0,0.0,0.0,0.0,0.0,0.0,0.0,0.0,0.0,0.0,0.0,0.0,0.0,0.0,0.0,0.0,0.0,0.0,0.0,0.0,0.0,0.0,0.0,0.0,0.0,0.0,0.0,0.0,0.0,0.0,0.0,0.0,0.0,0.0,0.0,0.0,0.0,0.0,0.0,0.0,0.0,0.0,0.0,0.0,0.0,0.0,0.0,0.0,0.0,0.0,0.0,0.0,0.0,0.0,0.0,0.0,0.0,0.0,0.0,0.0,0.0,0.0,-1.7978,-1.8681,-1.9233,-1.9736,-1.9811,-1.9811,-1.9811,-1.951,-1.8606,-1.6873,0.0,0.0,0.0,0.0,0.0,0.0,0.0,0.0,0.0,0.0,0.0,0.0,0.0,0.0,0.0,0.0,0.0,0.0,0.0,0.0,0.0,0.0,0.0,0.0,0.0,0.0,0.0,0.0,0.0,0.0,0.0,0.0,0.0,0.0,0.0,0.0,0.0,0.0,0.0,0.0,0.0,0.0,0.0,0.0,0.0,0.0,0.0,0.0,0.0,0.0,0.0,0.0,0.0,0.0,0.0,0.0,0.0,0.0,0.0,0.0,0.0,0.0,0.0,0.0,0.0,0.0,0.0,0.0,0.0,0.0,0.0,0.0,0.0,0.0,0.0,0.0,0.0,0.0,0.0,0.0,0.0,0.0,0.0,0.0,0.0,0.0,0.0,0.0,0.0,0.0,0.0,0.0,0.0,0.0,0.0,0.0,0.0,0.0,0.0,0.0,0.0,0.0,-1.8028,-1.8882,-1.9459,-1.9761,-1.9811,-1.9811,-1.9811,-1.961,-1.8731,-1.6974,0.0,0.0,0.0,0.0,0.0,0.0,0.0,0.0,0.0,0.0,0.0,0.0,0.0,0.0,0.0,0.0,0.0,0.0,0.0,0.0,0.0,0.0,0.0,0.0,0.0,0.0,0.0,0.0,0.0,0.0,0.0,0.0,0.0,0.0,0.0,0.0,0.0,0.0,0.0,0.0,0.0,0.0,0.0,0.0,0.0,0.0,0.0,0.0,0.0,0.0,0.0,0.0,0.0,0.0,0.0,0.0,0.0,0.0,0.0,0.0,0.0,0.0,0.0,0.0,0.0,0.0,0.0,0.0,0.0,0.0,0.0,0.0,0.0,0.0,0.0,0.0,0.0,0.0,0.0,0.0,0.0,0.0,0.0,0.0,0.0,0.0,0.0,0.0,0.0,0.0,0.0,0.0,0.0,0.0,0.0,0.0,0.0,0.0,0.0,0.0,0.0,0.0,-1.8006,-1.9133,-1.9811,-1.9886,-1.9886,-1.9886,-1.9886,-1.9459,-1.8681,-1.7526,0.0,0.0,0.0,0.0,0.0,0.0,0.0,0.0,0.0,0.0,0.0,0.0,0.0,0.0,0.0,0.0,0.0,0.0,0.0,0.0,0.0,0.0,0.0,0.0,0.0,0.0,0.0,0.0,0.0,0.0,0.0,0.0,0.0,0.0,0.0,0.0,0.0,0.0,0.0,0.0,0.0,0.0,0.0,0.0,0.0,0.0,0.0,0.0,0.0,0.0,0.0,0.0,0.0,0.0,0.0,0.0,0.0,0.0,0.0,0.0,-1.6923,0.0,0.0,0.0,0.0,0.0,0.0,0.0,0.0,0.0,0.0,0.0,0.0,0.0,0.0,0.0,0.0,0.0,0.0,0.0,0.0,0.0,0.0,0.0,0.0,0.0,0.0,0.0,0.0,0.0,0.0,0.0,0.0,0.0,0.0,0.0,0.0,0.0,0.0,0.0,0.0,0.0,-1.7887,-1.9083,-1.9987,-2.0439,-2.0489,-2.0489,-2.0489,-2.0388,-1.966,-1.8129,-1.7285,0.0,0.0,0.0,0.0,0.0,0.0,0.0,0.0,0.0,0.0,0.0,0.0,0.0,0.0,0.0,0.0,0.0,0.0,0.0,0.0,0.0,0.0,0.0,0.0,0.0,0.0,0.0,0.0,0.0,0.0,0.0,0.0,0.0,0.0,0.0,0.0,0.0,0.0,0.0,0.0,0.0,0.0,0.0,0.0,0.0,0.0,0.0,0.0,0.0,0.0,0.0,0.0,0.0,0.0,0.0,0.0,0.0,0.0,0.0,0.0,-1.8382,0.0,0.0,0.0,0.0,0.0,0.0,0.0,0.0,0.0,0.0,0.0,0.0,0.0,0.0,0.0,0.0,0.0,0.0,0.0,0.0,0.0,0.0,0.0,0.0,0.0,0.0,0.0,0.0,0.0,0.0,0.0,0.0,0.0,0.0,0.0,0.0,0.0,0.0,0.0,0.0,-1.7745,-1.9131,-2.0179,-2.0532,-2.0782,-2.0957,-2.1011,-2.0761,-2.0082,-1.8859,-1.7966,0.0,0.0,0.0,0.0,0.0,0.0,0.0,0.0,0.0,0.0,0.0,0.0,0.0,0.0,0.0,0.0,0.0,0.0,0.0,0.0,0.0,0.0,0.0,0.0,0.0,0.0,0.0,0.0,0.0,0.0,0.0,0.0,0.0,0.0,0.0,0.0,0.0,0.0,0.0,0.0,0.0,0.0,0.0,0.0,0.0,0.0,0.0,0.0,0.0,0.0,0.0,0.0,0.0,-2.2472,-2.3,-2.3366,-2.3366,-2.3703,-2.4004,-2.1694,-2.0586,-2.0407,-1.9554,0.0,0.0,0.0,0.0,0.0,0.0,0.0,0.0,0.0,0.0,0.0,0.0,0.0,0.0,0.0,0.0,0.0,0.0,0.0,0.0,0.0,0.0,0.0,0.0,-1.9744,-1.9576,-1.7845,0.0,0.0,0.0,0.0,0.0,0.0,0.0,0.0,0.0,0.0,0.0,-1.7897,-1.9294,-2.036,-2.0667,-2.1064,-2.1336,-2.1361,-2.0996,-2.0444,-1.974,-1.8683,-1.7627,0.0,0.0,0.0,0.0,0.0,0.0,0.0,0.0,0.0,0.0,0.0,0.0,0.0,0.0,0.0,0.0,0.0,0.0,0.0,0.0,0.0,0.0,0.0,0.0,0.0,0.0,0.0,0.0,0.0,0.0,0.0,0.0,-1.7024,-1.8731,0.0,0.0,0.0,0.0,0.0,0.0,0.0,0.0,0.0,0.0,0.0,0.0,0.0,-2.1719,-2.2698,-2.3276,-2.3602,-2.3678,-2.423,-2.4531,-2.4607,-2.4607,-2.4632,-2.4682,-2.433,0.0,-2.3326,-2.1624,0.0,0.0,0.0,0.0,0.0,0.0,0.0,0.0,0.0,0.0,0.0,0.0,0.0,0.0,0.0,0.0,0.0,0.0,0.0,0.0,0.0,0.0,-2.1572,-2.1187,-2.1139,-2.1115,0.0,-1.8898,-1.7147,-1.7027,-1.626,0.0,0.0,0.0,0.0,0.0,0.0,0.0,-1.8821,-1.9707,-2.06,-2.1535,-2.1682,-2.1731,-2.1731,-2.1682,-2.1387,-2.079,-1.9814,-1.9047,-1.8797,-1.7362,0.0,0.0,0.0,0.0,0.0,0.0,0.0,0.0,0.0,0.0,0.0,0.0,0.0,0.0,0.0,0.0,0.0,0.0,0.0,0.0,0.0,0.0,0.0,0.0,0.0,0.0,0.0,0.0,0.0,-1.7777,-1.9007,-1.9409,-1.9535,-1.9359,0.0,0.0,0.0,0.0,0.0,0.0,0.0,0.0,0.0,-2.2849,-2.2899,-2.3276,-2.4079,-2.4632,-2.4908,-2.4908,-2.546,-2.5737,-2.5737,-2.5737,-2.5737,-2.5737,-2.5737,-2.5611,-2.5259,-2.3393,-2.2105,-2.1124,0.0,0.0,0.0,0.0,-1.9202,-1.9239,-2.0451,-2.033,-1.9696,-1.9937,0.0,0.0,0.0,0.0,0.0,0.0,0.0,0.0,0.0,0.0,-2.2221,-2.227,-2.2077,-2.1837,-2.1837,-2.0682,-1.9384,0.0,-1.8157,-1.7508,-1.5756,0.0,0.0,0.0,0.0,-1.7968,-1.8984,-2.0096,-2.1107,-2.1628,-2.1945,-2.2116,-2.2116,-2.1848,-2.1579,-2.1219,-2.0491,-1.9934,-1.9564,-1.8573,-1.7605,0.0,0.0,0.0,0.0,0.0,0.0,0.0,0.0,0.0,0.0,0.0,0.0,0.0,0.0,0.0,0.0,0.0,0.0,0.0,0.0,0.0,0.0,0.0,0.0,0.0,0.0,0.0,0.0,-1.9535,-2.0564,-2.0263,-2.0865,-2.0966,0.0,0.0,0.0,0.0,0.0,0.0,-2.2096,-2.2523,-2.3251,-2.4381,-2.4406,-2.4682,-2.5234,-2.5611,-2.5812,-2.5812,-2.6332,-2.6533,-2.6533,-2.6533,-2.6533,-2.6533,-2.6533,-2.6465,-2.6296,-2.4828,-2.3517,-2.2444,-2.1785,-2.1049,-2.0418,-2.0595,-2.0644,-2.0779,-2.2187,-2.2308,-2.1837,-2.1957,-2.1284,-2.0249,-1.9456,0.0,0.0,0.0,0.0,-2.1524,-2.2847,-2.2895,-2.2654,-2.2919,-2.2678,-2.2366,-2.2221,-2.1885,-2.1211,0.0,-1.9817,-1.9336,-1.7219,0.0,0.0,0.0,0.0,-1.8855,-1.9528,-2.0658,-2.1512,-2.1752,-2.2116,-2.2359,-2.2359,-2.1995,-2.1717,-2.1596,-2.1115,-2.0634,-2.0225,-1.9672,-1.8903,-1.7845,0.0,0.0,0.0,0.0,0.0,0.0,0.0,0.0,0.0,0.0,0.0,0.0,0.0,0.0,0.0,0.0,0.0,0.0,0.0,0.0,0.0,0.0,0.0,0.0,0.0,0.0,0.0,0.0,0.0,-2.1343,-2.2347,0.0,0.0,0.0,0.0,-2.2196,-2.2673,-2.3251,-2.3828,-2.3904,-2.4406,-2.5485,-2.5511,-2.5787,-2.6433,-2.6458,-2.6483,-2.6483,-2.6508,-2.6533,-2.6533,-2.6533,-2.6533,-2.6533,-2.6533,-2.6396,-2.6164,-2.572,-2.4987,-2.4116,-2.3575,-2.2847,-2.2125,-2.2819,-2.2926,-2.2959,-2.3668,-2.3458,-2.2991,-2.3496,-2.2943,-2.2053,-2.2005,-2.1644,0.0,0.0,-2.2462,-2.2991,-2.3592,-2.3713,-2.3568,-2.3087,-2.2967,-2.2799,-2.2294,-2.2173,-2.1981,0.0,-2.0899,-2.037,-1.9696,0.0,-1.9624,-1.9576,-1.9648,-2.0081,-2.1139,-2.1356,-2.1596,-2.2101,-2.2173,-2.2197,-2.2197,-2.2173,-2.2149,-2.2149,-2.1668,-2.1356,-2.1332,-2.0803,-2.0009,-1.8927,-1.8374,0.0,0.0,0.0,0.0,0.0,0.0,0.0,0.0,0.0,0.0,0.0,0.0,0.0,0.0,0.0,0.0,0.0,0.0,0.0,0.0,0.0,0.0,0.0,0.0,0.0,0.0,0.0,0.0,-2.2523,-2.3226,0.0,-2.2347,-2.3125,-2.3602,-2.3427,-2.423,-2.4983,-2.5561,-2.5912,-2.6465,-2.7193,-2.6866,-2.6942,-2.7519,-2.6816,-2.664,-2.6992,-2.664,-2.6533,-2.6533,-2.6533,-2.6533,-2.6533,-2.6533,-2.6465,-2.6371,-2.6102,-2.5629,-2.5066,-2.4371,-2.3923,-2.3664,-2.361,-2.3562,-2.3568,-2.414,-2.3972,-2.352,-2.3713,-2.352,-2.3207,-2.3207,-2.3087,-2.3039,-2.3544,-2.3833,-2.4097,-2.4626,-2.4506,-2.4121,-2.3616,-2.3232,-2.2847,-2.2318,-2.2197,-2.2125,-2.1957,-2.1765,-2.1356,-2.0466,-2.061,-2.0586,-1.9889,-2.037,-2.0971,-2.1356,-2.1692,-2.1981,-2.2173,-2.2197,-2.2197,-2.2197,-2.18,-2.1463,-2.1463,-2.09,-2.0556,-2.0556,-2.0081,-1.9434,-1.8815,-1.7923,-1.6837,0.0,0.0,0.0,0.0,0.0,0.0,0.0,0.0,0.0,0.0,0.0,0.0,0.0,0.0,0.0,0.0,0.0,0.0,0.0,0.0,0.0,0.0,0.0,0.0,0.0,0.0,-2.3427,-2.3427,-2.4255,-2.4531,-2.3778,-2.4381,-2.4908,-2.5084,-2.5762,-2.6414,-2.6992,-2.7369,-2.772,-2.8097,-2.7745,-2.7745,-2.8097,-2.7369,-2.7193,-2.7544,-2.7193,-2.7017,-2.7017,-2.7017,-2.7017,-2.6992,-2.6816,-2.6671,-2.6532,-2.6392,-2.6012,-2.5417,-2.5078,-2.4864,-2.4747,-2.441,-2.429,-2.4338,-2.4675,-2.4578,-2.429,-2.429,-2.429,-2.4242,-2.4073,-2.4145,-2.4314,-2.4482,-2.465,-2.4867,-2.5228,-2.5059,-2.4626,-2.3929,-2.3496,-2.3063,-2.2342,-2.2197,-2.2197,-2.2197,-2.2197,-2.1981,-2.126,-2.1428,-2.1428,-2.0706,-2.1211,-2.1668,-2.1668,-2.1981,-2.2111,-2.1862,-2.1862,-2.1737,-2.1526,-2.0923,-2.0561,-2.0741,-2.0045,-1.9808,-2.0176,-1.9522,-1.9039,-1.8792,-1.77,-1.7059,-1.6799,0.0,0.0,0.0,0.0,0.0,0.0,0.0,0.0,0.0,0.0,0.0,0.0,0.0,0.0,0.0,0.0,0.0,0.0,0.0,0.0,0.0,0.0,0.0,-2.2372,-2.3326,-2.4054,-2.4079,-2.5511,-2.6063,-2.5008,-2.5887,-2.681,-2.7268,-2.7293,-2.7544,-2.8097,-2.8122,-2.8147,-2.8147,-2.8147,-2.8147,-2.8147,-2.8122,-2.8122,-2.8122,-2.8122,-2.8097,-2.8097,-2.8097,-2.8097,-2.8072,-2.7544,-2.7105,-2.6746,-2.6746,-2.6212,-2.5348,-2.556,-2.5465,-2.53,-2.53,-2.53,-2.53,-2.53,-2.53,-2.53,-2.53,-2.53,-2.5204,-2.4699,-2.4891,-2.5204,-2.4675,-2.4915,-2.53,-2.53,-2.53,-2.5059,-2.4049,-2.3785,-2.3496,-2.2438,-2.2221,-2.2221,-2.2197,-2.2197,-2.2197,-2.2197,-2.2197,-2.2197,-2.2197,-2.2197,0.0,-2.2197,-2.2197,-2.1925,-2.1187,-2.1123,-2.0869,-2.0226,-1.9659,-1.9594,-2.0052,-1.9262,-1.9199,-2.0182,-1.9243,-1.8755,-1.884,-1.7801,-1.7845,-1.8946,0.0,0.0,0.0,0.0,0.0,0.0,0.0,0.0,0.0,0.0,0.0,0.0,0.0,0.0,0.0,0.0,0.0,0.0,0.0,0.0,0.0,0.0,-2.305,-2.3477,-2.4481,-2.531,-2.5737,-2.654,-2.6942,-2.664,-2.7243,-2.772,-2.7871,-2.7871,-2.8122,-2.8674,-2.8699,-2.89,-2.9302,-2.8925,-2.89,-2.9327,-2.8524,-2.8298,-2.8699,-2.8298,-2.8097,-2.8097,-2.8097,-2.8097,-2.8097,-2.7946,-2.7751,-2.7458,-2.7385,-2.7066,-2.6651,-2.6191,-2.5732,-2.53,-2.53,-2.53,-2.53,-2.53,-2.53,-2.53,-2.53,-2.53,-2.5276,-2.5131,-2.518,-2.5276,-2.5131,-2.5204,-2.53,-2.53,-2.53,-2.5131,-2.4482,-2.4314,-2.4025,-2.2991,-2.2775,-2.2654,-2.227,-2.2197,-2.2197,-2.2197,-2.2197,-2.2197,-2.2197,-2.2197,0.0,-2.2197,-2.2197,-2.2135,-2.1925,-2.14,-2.125,-2.1588,-2.0094,-1.921,-1.9572,-1.8468,-1.7873,-1.8189,-1.7958,-1.7772,-1.782,-1.7256,-1.7127,0.0,0.0,0.0,0.0,0.0,0.0,0.0,0.0,0.0,0.0,0.0,0.0,0.0,0.0,0.0,0.0,0.0,0.0,0.0,0.0,0.0,0.0,-2.3301,-2.428,-2.4632,-2.5209,-2.5812,-2.6458,-2.681,-2.7017,-2.7268,-2.757,-2.7946,-2.8423,-2.8247,-2.8448,-2.9252,-2.9051,-2.9202,-2.9779,-2.9478,-2.9453,-2.9804,-2.9151,-2.8976,-2.9277,-2.8976,-2.8825,-2.8825,-2.8825,-2.8825,-2.88,-2.8474,-2.8226,-2.8027,-2.7777,-2.748,0.0,0.0,0.0,0.0,0.0,-2.5492,-2.53,-2.53,-2.53,-2.53,-2.53,-2.53,-2.53,-2.53,-2.53,-2.53,-2.53,-2.53,-2.53,-2.53,-2.53,-2.518,-2.465,-2.453,-2.429,-2.3496,-2.3304,-2.3207,-2.2919,-2.2678,0.0,-2.2534,-2.2342,-2.2197,-2.2197,-2.2197,-2.2197,-2.2197,-2.2197,-2.2073,-2.18,-2.106,-2.0831,-2.1122,-1.9444,0.0,0.0,0.0,-1.7109,-1.7109,-1.7367,0.0,0.0,0.0,0.0,0.0,0.0,0.0,0.0,-1.973,-1.9696,0.0,0.0,0.0,0.0,0.0,0.0,0.0,0.0,0.0,0.0,0.0,0.0,0.0,0.0,0.0,0.0,-2.4607,-2.5611,-2.5686,-2.5686,-2.5887,-2.6458,-2.6584,-2.6741,-2.7243,-2.7344,-2.777,-2.8775,-2.8448,-2.8624,-2.9628,0.0,0.0,0.0,0.0,-2.9804,-2.9804,-2.9804,-2.9804,-2.9804,-2.9804,-2.9804,-2.9804,-2.9804,-2.9804,-2.9754,-2.9074,-2.8622,-2.8418,-2.8163,-2.7742,-2.7103,-2.6983,-2.6935,-2.6863,-2.631,-2.5805,-2.5396,-2.5324,0.0,0.0,-2.53,-2.53,-2.53,-2.53,-2.53,-2.53,-2.53,-2.53,-2.53,-2.53,-2.53,-2.518,-2.4723,-2.4602,-2.4458,-2.3881,-2.3761,-2.3761,-2.3688,-2.3304,-2.2991,-2.3063,-2.2582,-2.2197,-2.2197,-2.2197,-2.2197,-2.2197,-2.2135,-2.1824,-2.1215,0.0,0.0,-1.9906,-1.8482,-1.7958,-1.8664,-1.7578,-1.6889,-1.6889,-1.7483,-1.8189,-1.9055,-1.8987,-1.9829,-2.1323,-2.1458,-2.1853,-2.2639,-2.0969,-2.1032,0.0,0.0,0.0,0.0,0.0,0.0,0.0,0.0,0.0,0.0,0.0,0.0,0.0,0.0,0.0,-2.433,-2.5109,-2.5762,-2.6239,-2.6289,-2.6408,-2.6508,-2.6841,-2.7168,-2.7268,-2.7695,-2.8021,-2.8247,-2.8574,-2.8875,-2.9076,-2.9428,-2.9679,-2.9804,-2.9804,-2.9804,-2.9804,-2.9804,-2.9804,-2.9804,0.0,0.0,-2.9804,-2.9804,-2.9804,-2.9779,-2.9679,-2.9294,-2.8983,-2.888,-2.8597,-2.8114,-2.7272,-2.6935,-2.6863,-2.631,-2.6021,-2.5877,-2.5468,-2.53,-2.53,-2.53,-2.53,-2.53,-2.53,-2.53,0.0,-2.53,-2.53,-2.53,-2.53,-2.53,-2.5276,-2.518,-2.5155,-2.4891,-2.3977,-2.3761,-2.364,-2.3207,-2.3063,-2.3111,-2.3544,-2.2823,-2.2197,-2.2197,-2.2197,-2.2197,-2.2197,-2.1651,-2.1412,-2.1632,-2.0552,-2.0112,-2.0995,-1.9768,-1.9112,-1.9471,-1.8676,-1.8193,-1.8193,-1.8734,-1.9081,-1.9239,-1.9239,-1.9857,-2.1094,-2.1544,-2.2275,-2.3295,-2.2912,-2.3159,0.0,0.0,0.0,0.0,0.0,0.0,0.0,0.0,0.0,0.0,0.0,-2.2171,-2.3,0.0,-2.4556,-2.5109,-2.5661,-2.6138,-2.6483,-2.6533,-2.6533,-2.6533,-2.6942,-2.7394,-2.767,-2.8197,-2.8649,-2.8925,-2.8925,-2.9051,-2.9352,-2.9352,-2.9503,-2.9779,-2.9804,-2.9804,-2.9804,-2.9804,-2.9804,-2.9804,-2.9804,-2.9804,-2.9804,-2.9702,-2.9599,-2.9599,-2.9365,-2.9131,-2.8973,-2.8816,-2.8657,-2.845,-2.7921,-2.756,-2.7296,-2.7007,-2.6743,-2.643,-2.5901,-2.5709,-2.5661,-2.5396,-2.53,-2.53,-2.53,-2.53,-2.53,-2.53,-2.53,-2.53,-2.53,-2.53,-2.53,-2.53,-2.53,-2.518,-2.465,-2.453,-2.4458,-2.4194,-2.3929,-2.3833,-2.4097,-2.3496,-2.2991,-2.2991,-2.2991,-2.2991,-2.2991,-2.2297,-2.1907,-2.2182,-2.0892,-2.0315,-2.1132,-2.0252,-1.9561,-1.9484,-1.9179,-1.8965,-1.8965,-1.9375,-1.9707,-1.9922,-2.0156,-2.0623,-2.1429,-2.1748,-2.2347,-2.3345,-2.3479,-2.4153,0.0,0.0,0.0,0.0,0.0,0.0,0.0,0.0,-2.1594,-2.2598,-2.315,-2.3627,-2.4205,-2.5008,-2.5636,-2.5737,-2.6163,-2.6533,-2.6533,-2.6609,-2.6684,-2.6684,-2.7017,-2.7494,-2.8047,-2.8499,-2.8976,-2.9428,-2.9126,-2.9126,-2.9603,-2.9302,-2.9302,-2.9779,-2.9804,-2.9804,-2.9804,-2.9804,-2.9804,-2.9804,-2.9804,-2.9804,-2.9779,-2.9599,-2.9496,-2.9419,-2.9028,-2.8791,-2.8791,-2.8578,-2.8522,-2.8522,-2.8522,-2.8258,-2.7873,-2.7753,-2.7464,-2.7007,-2.6454,-2.6262,-2.619,-2.5757,-2.5636,-2.5636,-2.5636,-2.5636,-2.5612,-2.5492,-2.5468,-2.5444,-2.5324,-2.53,-2.53,-2.53,-2.53,-2.5276,-2.518,-2.5155,-2.5155,-2.5155,-2.4819,-2.4554,-2.465,-2.4202,-2.38,-2.3585,-2.3561,-2.3494,-2.3337,-2.2639,-2.2183,-2.2295,-2.1013,-2.043,-2.0879,-2.0416,-1.9941,-1.9687,-1.9668,-1.9707,-1.9785,-2.0117,-2.0469,-2.082,-2.1172,-2.1582,-2.2012,-2.2012,-2.2363,-2.3104,-2.3451,-2.4442,-2.1343,-2.084,0.0,-2.1016,-2.1568,-2.2422,0.0,0.0,-2.3803,-2.4406,-2.4582,-2.4782,-2.531,-2.5511,-2.5762,-2.6289,-2.6483,-2.6533,-2.6533,-2.6892,-2.7193,-2.7193,-2.7243,-2.7494,-2.8047,-2.8172,-2.8222,-2.8298,-2.8699,-2.895,-2.9026,-2.9453,-2.9729,-2.9804,-2.9804,-2.9804,-2.9804,-2.9804,-2.9804,-2.9804,-2.9804,-2.9804,-2.9804,-2.9779,-2.9779,-2.9702,-2.9287,-2.8973,-2.8791,-2.8578,-2.8522,-2.8522,-2.8522,-2.8474,-2.8378,-2.7897,-2.7681,-2.756,-2.7031,-2.6839,-2.6839,-2.6767,-2.6743,-2.6743,-2.6743,-2.6743,-2.6647,-2.6142,-2.6021,-2.5901,-2.542,-2.53,-2.53,-2.53,-2.53,-2.518,-2.4699,-2.4602,-2.4602,-2.4602,-2.4554,-2.4675,-2.5131,-2.4566,-2.372,-2.2845,-2.2707,-2.2503,-2.1746,-2.1026,-2.0698,-2.1115,-2.042,-2.0171,-2.0604,-2.0566,-2.0644,-2.0996,-2.1016,-2.1191,-2.1582,-2.1641,-2.168,-2.1738,-2.1797,-2.2012,-2.2441,-2.2441,-2.2637,-2.3075,-2.3134,-2.4325,-2.2598,0.0,0.0,0.0,-2.2874,-2.3879,-2.4255,-2.4406,-2.4632,-2.5159,-2.5285,-2.5435,-2.5988,-2.6088,-2.6189,0.0,-2.6741,-2.6942,-2.6942,-2.7419,-2.7871,-2.8197,-2.8247,-2.8323,-2.8549,-2.8875,-2.9076,-2.9076,-2.9302,-2.9428,-2.9428,-2.9654,-2.9804,-2.9804,-2.9804,-2.9804,-2.9804,-2.9804,-2.9804,-2.9804,-2.9804,-2.9804,-2.9779,-2.9599,-2.9443,-2.9209,-2.8895,-2.8736,-2.8657,-2.8498,-2.8522,-2.8522,-2.8522,-2.8522,-2.8474,-2.8258,-2.8186,-2.8114,-2.7584,-2.7392,-2.7344,-2.7031,-2.6935,-2.6935,-2.6935,-2.6935,-2.6887,-2.6647,-2.6574,-2.6454,-2.5901,-2.5757,-2.5685,-2.5372,-2.53,-2.5252,-2.5035,-2.4987,-2.4823,-2.4402,-2.4237,-2.4165,-2.4013,-2.3694,-2.3172,-2.2266,-2.2512,-2.2728,-2.2368,-2.1618,-2.1036,-2.0787,-2.0682,-2.0762,-2.0937,-2.1191,-2.1406,-2.1602,-2.1621,-2.1699,-2.1875,-2.2109,-2.2246,-2.2246,-2.248,-2.2695,-2.2871,-2.2871,-2.2969,-2.3144,-2.3144,-2.3892,-2.31,0.0,0.0,-2.2975,-2.4029,-2.4983,-2.4732,-2.4983,-2.5385,-2.5762,-2.5837,-2.6013,-2.659,-2.6691,-2.6741,-2.6892,-2.7243,-2.7519,-2.7519,-2.7971,-2.8473,-2.8875,-2.9076,-2.9176,-2.9176,-2.9553,-2.9804,-2.9804,-2.993,-3.003,-3.003,-3.0156,-3.0156,-3.003,-3.003,-2.9955,-2.9804,-2.9804,-2.9779,-2.9702,-2.9702,-2.9702,-2.9624,-2.9443,-2.9106,-2.8791,-2.8657,-2.8578,-2.8522,-2.8522,-2.8522,-2.8522,-2.8522,-2.8522,-2.8522,-2.8522,-2.8522,-2.845,-2.8065,-2.7945,-2.7873,-2.7488,-2.7368,-2.7368,-2.7368,-2.7368,-2.7344,-2.72,-2.7152,-2.7031,-2.6478,-2.6334,-2.619,-2.5661,-2.5516,-2.5492,-2.5348,-2.53,-2.5087,-2.4276,-2.4108,-2.3891,-2.3106,-2.2809,-2.251,-2.1907,-2.2134,-2.236,-2.236,-2.1832,-2.1282,-2.082,-2.1035,-2.1289,-2.1406,-2.1699,-2.1934,-2.2051,-2.2051,-2.2109,-2.2227,-2.2519,-2.2676,-2.2676,-2.2988,-2.3144,-2.3144,-2.3144,-2.3144,-2.3144,-2.3144,-2.3474,0.0,0.0,-2.4079,-2.4607,-2.5159,-2.5711,-2.6264,-2.6458,-2.6483,-2.6508,-2.6508,-2.6659,-2.7168,-2.7268,-2.7444,-2.7971,-2.8072,-2.8072,-2.8072,-2.8549,-2.89,-2.8925,-2.9428,-2.9754,0.0,-2.9779,-2.9804,-2.9804,-3.0281,-3.0583,-3.0583,-3.106,-3.111,-3.0608,-3.0583,-3.0331,-2.9804,-2.9804,-2.9702,-2.9419,-2.9419,-2.9263,-2.9131,-2.9131,-2.8973,-2.8791,-2.8791,-2.8657,-2.8522,-2.8522,-2.8522,-2.8522,-2.8522,-2.8522,-2.8522,-2.8522,-2.8522,-2.8522,-2.8498,-2.8498,-2.8474,-2.8474,-2.8474,-2.8474,-2.8474,-2.8474,-2.8354,-2.7849,-2.7705,-2.7584,-2.7031,-2.6911,-2.6767,-2.6214,-2.6069,-2.5925,-2.542,-2.53,-2.5087,-2.4276,-2.4108,-2.3891,-2.3106,-2.236,-2.1832,-2.1832,-2.1165,-2.0644,-2.0644,-2.0644,-2.0801,-2.1172,-2.123,-2.1406,-2.1836,-2.1875,-2.207,-2.2461,-2.25,-2.2676,-2.3086,-2.3105,-2.3125,-2.3125,-2.3125,-2.3144,-2.3144,-2.3144,-2.3144,-2.3144,-2.3144,-2.3144,0.0,0.0,-2.4205,-2.5109,-2.5762,-2.6214,-2.6483,-2.6533,-2.6533,-2.6533,-2.6533,-2.6584,-2.676,-2.6741,-2.6917,-2.7469,-2.7871,-2.8222,-2.8599,-2.9151,-2.9503,-2.9503,-2.9679,0.0,0.0,0.0,0.0,-2.9804,-3.0306,-3.0608,-3.0608,-3.111,-3.1311,-3.1135,-3.1135,-3.0954,-3.0642,-3.0617,-3.0537,-3.0269,-2.9899,-2.9554,-2.9131,-2.8973,-2.887,-2.8791,-2.8657,-2.8578,-2.8522,-2.8522,-2.8522,-2.8522,-2.8522,-2.8522,-2.8522,-2.8522,-2.8522,-2.8522,-2.8522,-2.8522,-2.8522,-2.8522,-2.8522,-2.8522,-2.8522,-2.8522,-2.8474,-2.8306,-2.8234,-2.8114,-2.7584,-2.7464,-2.732,-2.6767,-2.6198,-2.5751,-2.5512,-2.499,-2.4381,-2.3608,-2.3452,-2.3218,-2.2369,-2.207,-2.1829,-2.1829,-2.1351,-2.1016,-2.1016,-2.1269,-2.1504,-2.166,-2.1914,-2.2148,-2.2285,-2.2559,-2.2773,-2.291,-2.293,-2.2988,-2.3125,-2.3144,-2.3144,-2.3144,-2.3144,-2.3144,-2.3144,-2.3144,-2.3144,-2.3144,-2.3144,-2.3144,0.0,-2.428,-2.4782,-2.5686,-2.6189,-2.6533,-2.6533,-2.6533,-2.6533,-2.6533,-2.6533,-2.6584,-2.6716,-2.6766,-2.6992,-2.7745,-2.8172,-2.8599,-2.9151,-2.9553,-2.9804,-2.9804,-2.9804,-2.9804,0.0,0.0,0.0,-2.9804,-3.0482,-3.0884,-3.0884,-3.1587,-3.1888,-3.1687,-3.1605,-3.1447,-3.1083,-3.1001,-3.0836,-3.0587,-3.0162,-2.9797,-2.9455,-2.91,-2.9003,-2.8923,-2.8674,-2.8522,-2.8522,-2.8522,-2.8522,-2.8522,-2.8522,-2.8522,-2.8522,-2.8522,-2.8522,-2.8522,-2.8522,-2.8522,-2.8522,-2.8522,-2.8522,-2.8522,-2.8522,-2.8522,-2.8419,-2.8099,-2.8018,-2.7844,-2.7195,-2.7023,-2.6883,-2.6372,-2.5789,-2.5329,-2.515,-2.4635,-2.4003,-2.3244,-2.3082,-2.2839,-2.204,-2.1894,-2.1894,-2.1894,-2.1777,-2.1641,-2.1484,-2.1719,-2.1953,-2.209,-2.2363,-2.2578,-2.2715,-2.2988,-2.3144,-2.3144,-2.3144,-2.3144,-2.3144,-2.3144,-2.3144,-2.3144,-2.3144,-2.3144,-2.3144,-2.3144,-2.3144,-2.3144,-2.3144,-2.3223,-2.4029,-2.4808,-2.5737,-2.6382,-2.6533,-2.6533,-2.6533,-2.6533,-2.6533,-2.6533,-2.6533,-2.6684,0.0,0.0,-2.7645,-2.8725,-2.89,-2.9151,-2.9754,-2.9829,-2.9854,0.0,0.0,0.0,0.0,0.0,0.0,-2.988,0.0,-3.1411,-3.1436,-3.2491,-3.2817,-3.2265,-3.2012,-3.168,-3.11,-3.0744,-3.0469,-3.0385,-3.0134,-3.011,-3.0062,-2.9474,-2.9258,-2.9316,-2.873,-2.8491,-2.8546,-2.8546,-2.8546,-2.8443,-2.8467,-2.8443,-2.8339,-2.8363,-2.8363,-2.8339,-2.8339,-2.8419,-2.8522,-2.8522,-2.8498,-2.8419,-2.8419,-2.8419,-2.8179,-2.7348,-2.7103,-2.6917,-2.5986,-2.5819,-2.571,-2.5169,-2.4979,-2.4849,-2.4335,-2.4147,-2.3908,-2.3225,-2.3063,-2.2839,-2.2099,-2.1953,-2.1953,-2.1953,-2.2285,-2.2402,-2.1973,-2.1934,-2.2109,-2.25,-2.2539,-2.2715,-2.3105,-2.3144,-2.3144,-2.3144,-2.3144,-2.3144,-2.3144,-2.3144,-2.3144,-2.3144,-2.3144,-2.3144,-2.3144,-2.3144,-2.3144,-2.3144,-2.3164,-2.3398,-2.4381,-2.5084,-2.5737,-2.6382,-2.6533,-2.6533,-2.6533,-2.6533,-2.6533,-2.6533,-2.6533,-2.6559,0.0,0.0,0.0,-2.8197,-2.8649,0.0,-3.0256,-3.0407,0.0,0.0,0.0,-3.0984,-3.0984,-3.0984,0.0,0.0,-3.1235,-3.1562,-3.1989,-3.2692,-3.2932,-3.2585,-3.2696,-3.2081,-3.069,-2.969,-2.9306,-2.9666,-2.9578,-2.9738,-3.0086,-2.916,-2.9174,-2.9869,-2.8949,-2.8774,-2.91,-2.91,-2.8454,-2.7557,-2.7846,-2.7401,-2.655,-2.6909,-2.6819,-2.6483,-2.6483,-2.7325,-2.8522,-2.8522,-2.8099,-2.751,-2.751,-2.6999,-2.64,-2.6257,-2.6174,-2.6069,-2.5819,-2.5819,-2.5797,-2.5583,-2.5061,-2.4619,-2.443,-2.3883,-2.3308,-2.3156,-2.3071,-2.3071,-2.2812,-2.2812,-2.2812,-2.2812,-2.291,-2.2832,-2.2402,-2.2617,-2.2852,-2.2969,-2.2988,-2.3027,-2.3125,-2.3144,-2.3144,-2.3144,-2.3144,-2.3144,-2.3144,-2.3144,-2.3144,-2.3144,-2.3144,-2.3144,-2.3144,-2.3144,-2.3144,-2.3144,-2.3477,-2.3691,-2.4933,-2.5561,-2.6063,-2.6458,-2.6533,-2.6533,-2.6533,-2.6533,-2.6533,-2.6533,-2.6533,0.0,0.0,0.0,0.0,0.0,0.0,0.0,-3.0457,-3.0608,-3.0809,0.0,-3.1386,0.0,-3.1386,-3.1386,-3.1486,0.0,-3.1763,-3.1888,-3.219,-3.2767,-3.3068,-3.2896,-3.2351,-3.1335,-2.9715,-2.905,-2.9101,-2.9757,-2.9285,-2.9418,-3.0131,-2.8828,-2.8627,-2.9063,0.0,-2.8064,-2.8326,-2.8326,-2.7912,-2.7178,-2.7446,-2.7037,-2.6389,-2.6672,-2.6606,-2.6367,-2.6367,-2.7048,-2.7842,-2.7487,-2.7158,-2.688,-2.6655,-2.639,-2.6018,-2.538,-2.5231,-2.5168,-2.4723,-2.4659,-2.4659,-2.4659,-2.4231,-2.3907,-2.3907,-2.3474,-2.3144,-2.3144,-2.3144,-2.3144,-2.3144,-2.3144,-2.3144,-2.3144,-2.3144,-2.3047,-2.2812,-2.2988,-2.3144,-2.3144,-2.3144,-2.3144,-2.3144,-2.3144,-2.3144,-2.3144,-2.3144,-2.3144,-2.3144,-2.3144,-2.3144,-2.3144,-2.3144,-2.3144,-2.3144,-2.332,-2.3418,-2.3437,-2.3867,-2.416,-2.5485,-2.6013,-2.6533,-2.6533,-2.6533,-2.6533,-2.6533,-2.6533,-2.6508,-2.6433,0.0,0.0,-2.5711,0.0,-2.7293,-2.7369,0.0,-2.9352,-3.0557,-3.0708,-3.0934,-3.1537,-3.1612,-3.1612,-3.1612,-3.1612,-3.1813,-3.229,-3.2315,-3.2315,-3.2315,-3.2792,-3.2982,-3.2896,-3.1247,-2.9784,-2.8588,-2.8402,-2.8773,-2.9784,-2.8958,-2.905,-2.9966,-2.8517,-2.7887,-2.7956,-2.7342,-2.7147,-2.7171,-2.7171,-2.7127,-2.6907,-2.6972,-2.6861,-2.6729,-2.6793,-2.6772,-2.6708,-2.6644,-2.6622,-2.6582,-2.6021,-2.6127,-2.6195,-2.5804,-2.5786,-2.5765,-2.4612,-2.4317,-2.4166,-2.3299,-2.3144,-2.3144,-2.3144,-2.3144,-2.3144,-2.3144,-2.3144,-2.3144,-2.3144,-2.3144,-2.3144,-2.3144,-2.3144,-2.3144,-2.3144,-2.3144,-2.3144,-2.3144,-2.3144,-2.3144,-2.3144,-2.3144,-2.3144,-2.3144,-2.3144,-2.3144,-2.3144,-2.3144,-2.3144,-2.3144,-2.3184,-2.3203,-2.3144,-2.3242,-2.3281,-2.3223,-2.3672,-2.3867,-2.3887,-2.4297,-2.4707,-2.5561,-2.6013,-2.6533,-2.6533,-2.6533,-2.6533,-2.6533,-2.6533,0.0,0.0,0.0,-2.6289,-2.5711,-2.6515,0.0,-2.7896,0.0,0.0,0.0,0.0,-3.1637,0.0,0.0,0.0,0.0,0.0,0.0,0.0,0.0,-3.2918,-3.2918,-3.3018,-3.2612,-3.1577,-2.912,-2.784,-2.7767,-2.6764,-2.6744,-2.7746,-2.7558,-2.8028,-2.8958,-2.7849,-2.7806,-2.8549,-2.7535,0.0,-2.776,-2.776,-2.7072,-2.6055,-2.6431,-2.5798,-2.4914,-2.5272,-2.5172,-2.4814,-2.4456,-2.4337,-2.4565,-2.5958,-2.5872,-2.5242,-2.489,-2.4206,-2.366,-2.3406,-2.3299,-2.3319,-2.3144,-2.3144,-2.3144,-2.3144,-2.3144,-2.3144,-2.3144,-2.3144,-2.3144,-2.3144,-2.3144,-2.3144,-2.3144,-2.3144,-2.3144,-2.3144,-2.3144,-2.3144,-2.3144,-2.3144,-2.3144,-2.3144,-2.3144,-2.3144,-2.3144,-2.3144,-2.3144,-2.3144,-2.3144,-2.3144,-2.3144,-2.3496,-2.3516,-2.3144,-2.3828,-2.4023,-2.3672,-2.4102,-2.4316,-2.4316,-2.4746,-2.5,-2.5887,-2.6239,-2.6533,-2.6533,-2.6533,-2.6533,-2.6533,0.0,0.0,0.0,0.0,-2.5511,-2.5234,-2.6113,0.0,0.0,0.0,0.0,0.0,0.0,0.0,0.0,0.0,0.0,0.0,0.0,0.0,0.0,0.0,-3.2351,-3.2351,-3.1689,-3.0749,-2.9195,-2.7757,-2.6724,-2.5959,-2.5322,-2.5491,-2.6475,-2.6032,-2.6311,-2.7211,-2.6218,-2.6154,-2.6848,-2.6283,-2.6303,-2.6795,-2.6795,-2.6247,-2.5418,-2.5618,-2.5159,-2.4434,-2.4648,-2.459,-2.4394,-2.418,-2.4121,-2.4264,-2.49,-2.4819,-2.4295,-2.3854,-2.3632,-2.3437,-2.3203,-2.3144,-2.3144,-2.3144,-2.3144,-2.3144,-2.3144,-2.3144,-2.3144,-2.3144,-2.3144,-2.3144,-2.3144,-2.3144,-2.3144,-2.3144,-2.3144,-2.3144,-2.3144,-2.3144,-2.3144,-2.3144,-2.3144,-2.3144,-2.3144,-2.3144,-2.3144,-2.3144,-2.3144,-2.3242,-2.3457,-2.3477,-2.3574,-2.3789,-2.4004,-2.4023,-2.3809,-2.4199,-2.4316,-2.4121,-2.4551,-2.4746,-2.4766,-2.5215,-2.5547,-2.6189,-2.6533,-2.6533,-2.6533,-2.6533,-2.6533,-2.6533,-2.6013,0.0,0.0,0.0,-2.4833,-2.4833,-2.5611,-2.654,0.0,0.0,0.0,0.0,0.0,0.0,0.0,0.0,0.0,0.0,0.0,0.0,0.0,0.0,-3.0785,-3.108,-2.9782,-2.8451,-2.7104,-2.6647,-2.5747,-2.4414,-2.4414,-2.4782,-2.5562,-2.4762,-2.4762,-2.5562,-2.4762,-2.4609,-2.4922,-2.4922,-2.5137,-2.5449,-2.5449,-2.5254,-2.4922,-2.4922,-2.4727,-2.4414,-2.4414,-2.4414,-2.4414,-2.4316,-2.4277,-2.4219,-2.3789,-2.3711,-2.3711,-2.3262,-2.3379,-2.3574,-2.3242,-2.3144,-2.3144,-2.3144,-2.3144,-2.3144,-2.3144,-2.3144,-2.3144,-2.3144,-2.3144,-2.3144,-2.3144,-2.3144,-2.3144,-2.3144,-2.3144,-2.3144,-2.3144,-2.3144,-2.3144,-2.3144,-2.3144,-2.3184,-2.3262,-2.3281,-2.3281,-2.3281,-2.3359,-2.3555,-2.3906,-2.3926,-2.4082,-2.4414,-2.4512,-2.4512,-2.4414,-2.4609,-2.4648,-2.4551,-2.5098,-2.5352,-2.5352,-2.5801,-2.6191,-2.6289,-2.6533,-2.6533,-2.6533,-2.6533,-2.6533,-2.6533,0.0,0.0,0.0,-2.4858,-2.4833,-2.4833,-2.5285,-2.6189,0.0,0.0,0.0,0.0,0.0,0.0,0.0,0.0,0.0,0.0,0.0,0.0,0.0,-2.8783,-2.8011,-2.9235,-2.7766,-2.6726,-2.6415,-2.528,-2.4545,-2.4414,-2.4414,-2.4414,-2.4506,-2.4414,-2.4414,-2.4506,-2.4414,-2.4434,-2.4473,-2.4473,-2.4492,0.0,-2.4531,-2.4512,-2.4473,-2.4473,-2.4453,-2.4414,-2.4414,-2.4414,-2.4355,-2.3984,-2.3848,-2.3769,-2.334,-2.3457,-2.3711,-2.3262,-2.3164,-2.3184,-2.3144,-2.3144,-2.3144,-2.3144,-2.3144,-2.3144,-2.3144,-2.3144,-2.3144,-2.3144,-2.3144,-2.3144,-2.3144,-2.3144,-2.3144,-2.3144,-2.3144,-2.3144,-2.3144,-2.3144,-2.3144,-2.3144,-2.3144,-2.3301,-2.3691,-2.373,-2.373,-2.373,-2.4082,-2.4316,-2.4355,-2.4355,-2.4375,-2.4414,-2.4805,-2.4824,-2.4414,-2.5215,-2.541,-2.5,-2.5859,-2.6269,-2.6269,-2.6699,-2.6914,-2.5787,-2.6189,-2.6533,-2.6533,-2.6533,-2.6533,-2.6533,0.0,0.0,-2.4858,-2.4556,-2.4431,-2.4757,-2.5234,-2.6138,0.0,-2.8097,0.0,0.0,0.0,0.0,0.0,0.0,0.0,0.0,0.0,0.0,0.0,-2.7457,-2.6474,-2.6313,-2.5792,-2.537,-2.5015,-2.4386,-2.3906,-2.3652,-2.3652,-2.3652,-2.3652,-2.3652,-2.3652,-2.3652,-2.3652,-2.3789,-2.4043,-2.4043,-2.418,0.0,-2.4414,-2.4277,-2.4043,-2.4043,-2.3887,-2.3652,-2.3652,-2.3652,-2.3613,-2.3457,-2.3398,-2.3379,-2.3203,-2.3262,-2.3359,-2.3184,-2.3144,-2.3144,-2.3144,-2.3144,-2.3144,-2.3144,-2.334,-2.3535,-2.3535,-2.373,-2.3906,-2.3906,-2.3906,-2.3906,-2.3906,-2.3906,-2.3906,-2.3906,-2.3906,-2.3906,-2.3906,-2.3906,-2.3906,-2.3906,-2.3906,-2.3984,-2.4141,-2.3945,-2.3887,-2.4141,-2.4316,-2.4531,-2.4785,-2.4805,-2.4922,-2.5195,-2.5371,-2.5391,-2.5215,-2.582,-2.6035,-2.5859,-2.6465,-2.6758,-2.6777,-2.6934,-2.7148,-2.5195,-2.5741,-2.6164,-2.6164,-2.6164,-2.6094,0.0,0.0,-2.4793,-2.4682,-2.429,-2.4142,-2.4583,-2.5203,-2.607,0.0,-2.795,-2.8499,-2.9628,0.0,0.0,0.0,0.0,0.0,0.0,0.0,0.0,0.0,-2.5936,-2.5138,-2.4303,-2.4337,-2.4177,-2.388,-2.3683,-2.3457,-2.3144,-2.3144,-2.3144,-2.3144,-2.3144,-2.3144,-2.3144,-2.3144,-2.3301,-2.3594,-2.3594,-2.3769,0.0,-2.4043,-2.3867,-2.3594,-2.3594,-2.3418,-2.3144,-2.3144,-2.3144,-2.3144,-2.3144,-2.3144,-2.3164,-2.3281,-2.334,-2.3359,-2.3477,-2.3437,-2.3359,-2.3477,-2.3516,-2.3516,-2.3516,-2.375,-2.3984,-2.3984,-2.4199,-2.4414,-2.4414,-2.4414,-2.4414,-2.4414,-2.4414,-2.4414,-2.4414,-2.4414,-2.4414,-2.4414,-2.4414,-2.4414,-2.4414,-2.4414,-2.4473,-2.459,-2.4453,-2.4434,-2.459,-2.4727,-2.4941,-2.5254,-2.5273,-2.5469,-2.5918,-2.5937,-2.5996,-2.6113,-2.6426,-2.6582,-2.6582,-2.7012,-2.7207,-2.7207,-2.7344,-2.7559,-2.4633,-2.496,-2.53,-2.53,-2.53,-2.5087,0.0,-2.4482,-2.4763,-2.4546,-2.4214,-2.414,-2.4449,-2.5117,-2.5909,-2.6796,-2.7558,-2.8499,-2.9628,0.0,0.0,0.0,0.0,0.0,0.0,0.0,0.0,-2.4677,-2.412,0.0,-2.3841,-2.3406,-2.3144,-2.3144,-2.3144,-2.3144,-2.3144,-2.3144,-2.3144,-2.3144,-2.3144,-2.3144,-2.3144,-2.3144,-2.3144,-2.3144,-2.3144,-2.3144,0.0,-2.3144,-2.3144,-2.3144,-2.3144,-2.3144,-2.3144,-2.3144,-2.3144,-2.3144,-2.3144,-2.3144,-2.3203,-2.3633,-2.3789,-2.3867,-2.4277,-2.4121,-2.3867,-2.4277,-2.4414,-2.4414,-2.4414,-2.4414,-2.4414,-2.4414,-2.4414,-2.4414,-2.4414,-2.4414,-2.4414,-2.4414,-2.4414,-2.4414,-2.4414,-2.4414,-2.4414,-2.4414,-2.4414,-2.4414,-2.4414,-2.4414,-2.459,-2.5019,-2.5449,-2.5547,-2.5098,-2.5469,-2.5723,-2.5723,-2.5723,-2.5918,-2.6367,-2.6387,-2.6582,-2.6992,-2.7012,-2.7012,-2.7012,-2.7441,-2.7656,-2.7676,-2.8086,-2.8281,-2.2854,-2.3629,-2.4399,-2.4143,-2.4307,-2.442,-2.4181,-2.3677,-2.3364,-2.3607,-2.3323,-2.3176,-2.3607,-2.4143,-2.5135,-2.6647,-2.7063,0.0,0.0,0.0,0.0,0.0,0.0,0.0,0.0,0.0,0.0,-2.4292,-2.4013,-2.3754,-2.358,-2.3319,-2.3144,-2.3144,-2.3144,-2.3144,-2.3144,-2.3144,-2.3144,-2.3144,-2.3144,-2.3144,-2.3144,-2.3144,-2.3144,-2.3144,-2.3144,-2.3144,-2.3144,-2.3144,-2.3144,-2.3144,-2.3144,-2.3144,-2.3144,-2.3144,-2.332,-2.3574,-2.3574,-2.3769,-2.4023,-2.418,-2.4414,-2.4746,-2.5176,-2.4805,-2.4238,-2.4375,-2.4414,-2.4414,-2.4414,-2.4629,-2.4863,-2.4863,-2.5098,-2.5312,-2.5312,-2.5312,-2.5312,-2.5312,-2.5312,-2.5312,-2.5312,-2.5312,-2.541,-2.5723,-2.5762,-2.5762,-2.5762,-2.5762,-2.5703,-2.5547,-2.5918,-2.6133,-2.5977,-2.6367,-2.6602,-2.6602,-2.6602,-2.6543,-2.6387,-2.6387,-2.6309,-2.6152,-2.6719,-2.7012,-2.7012,-2.7734,-2.8086,-2.8105,-2.8223,-2.8301,0.0,-2.2567,-2.3379,-2.336,-2.3469,-2.3576,-2.3083,-2.277,-2.2617,-2.2682,-2.2616,-2.2617,-2.2682,-2.3436,-2.4388,-2.5331,-2.5977,0.0,0.0,0.0,0.0,0.0,0.0,0.0,0.0,0.0,-2.4464,-2.4206,-2.3927,-2.3667,-2.3493,-2.3232,-2.3144,-2.3144,-2.3144,-2.3144,-2.3144,-2.3144,-2.3144,-2.3144,-2.3144,-2.3144,-2.3144,-2.3144,-2.3144,-2.3144,-2.3144,-2.3144,0.0,-2.3144,-2.3144,-2.3144,-2.3144,-2.3242,-2.3379,-2.3379,-2.3652,-2.4043,-2.4219,-2.4434,-2.4727,-2.5059,-2.5352,-2.5586,-2.5703,-2.5469,-2.5117,-2.4961,-2.4922,-2.4922,-2.4922,-2.5117,-2.5312,-2.5312,-2.5527,-2.5742,-2.5742,-2.5742,-2.5742,-2.5742,-2.5742,-2.5742,-2.5742,-2.5742,-2.584,-2.6094,-2.6133,-2.6133,-2.6133,-2.6133,-2.6035,-2.5762,-2.6269,-2.6621,-2.6621,-2.6875,-2.6953,-2.6777,-2.6777,-2.6738,-2.6621,-2.6621,-2.6641,-2.6699,-2.7226,-2.75,-2.75,-2.8027,-2.8301,-2.8301,-2.8301,-2.8301,0.0,-2.1773,-2.2252,-2.2665,-2.2796,-2.2487,-2.1303,-2.1751,0.0,-2.1677,-2.1978,-2.2252,-2.1695,-2.2827,-2.3745,-2.3334,-2.452,0.0,0.0,0.0,0.0,0.0,0.0,0.0,0.0,-2.4506,-2.4399,-2.4206,-2.3927,-2.3667,-2.3493,-2.3232,-2.3144,-2.3144,-2.3144,-2.3144,-2.3144,-2.3144,-2.3144,-2.3144,-2.3144,-2.3144,-2.3144,-2.3144,-2.3144,0.0,-2.3144,-2.3144,-2.3144,-2.3144,-2.3144,-2.3144,-2.3184,-2.3437,-2.3789,-2.3867,-2.416,-2.457,-2.5019,-2.5156,-2.5293,-2.6113,-2.6387,-2.6309,-2.5898,-2.6055,-2.625,-2.5859,-2.5742,-2.5742,-2.5742,-2.5742,-2.5742,-2.5742,-2.5742,-2.5742,-2.5742,-2.5742,-2.5742,-2.5742,-2.5762,-2.5781,-2.5781,-2.5801,-2.584,-2.5879,-2.5879,-2.5879,-2.5879,-2.5879,-2.5859,-2.584,-2.6562,-2.707,-2.707,-2.709,-2.6934,-2.6543,-2.6523,-2.668,-2.7051,-2.707,-2.7422,-2.8184,-2.8242,-2.8262,-2.8301,-2.8301,-2.8301,-2.8301,-2.8301,-2.8301,-1.996,0.0,-2.082,-2.0589,-2.0778,-2.0937,0.0,-2.0505,0.0,0.0,0.0,-2.0716,-2.1576,-2.1808,-2.2467,-2.4377,-2.4724,0.0,0.0,0.0,0.0,0.0,0.0,0.0,0.0,-2.4892,-2.4574,-2.3967,-2.3667,-2.3493,-2.3232,-2.3144,-2.3144,-2.3144,-2.3144,-2.3144,-2.3144,-2.3144,-2.3144,-2.3144,-2.3144,-2.3144,-2.3144,-2.3144,-2.3144,-2.3144,-2.3144,-2.3144,-2.3144,-2.3144,-2.3144,-2.3184,-2.3516,-2.3691,-2.3867,-2.4531,-2.5039,-2.5488,-2.5918,-2.6074,-2.6113,-2.6328,-2.6387,-2.6367,-2.6269,-2.6074,-2.5859,-2.5762,-2.5742,-2.5742,-2.5742,-2.5742,-2.5742,-2.5742,-2.5742,-2.5742,-2.5742,-2.5742,-2.5742,-2.5742,-2.6016,-2.623,-2.623,-2.6504,-2.6836,-2.7168,-2.7207,-2.7207,-2.7207,-2.7207,-2.709,-2.6758,-2.7187,-2.7519,-2.7519,-2.7812,-2.7949,-2.7851,-2.7851,-2.7754,-2.7519,-2.7519,-2.7441,-2.7324,-2.7637,-2.7969,-2.8301,-2.8301,-2.8301,-2.8301,-2.8301,-2.8301,-1.9313,-2.0079,-2.0741,-2.07,-2.0886,-2.101,0.0,0.0,0.0,0.0,0.0,0.0,-2.1031,0.0,0.0,0.0,0.0,0.0,0.0,0.0,0.0,0.0,0.0,0.0,0.0,-2.5276,-2.4995,-2.4484,-2.3998,-2.3703,-2.3437,-2.3242,-2.3144,-2.3144,-2.3144,-2.3242,-2.3437,-2.3437,-2.3535,-2.373,-2.3535,-2.3437,-2.3437,-2.3223,-2.3144,-2.3144,-2.3144,-2.3144,-2.3144,-2.3144,-2.3262,-2.3457,-2.3691,-2.4023,-2.4453,-2.5137,-2.5527,-2.582,-2.6465,-2.668,-2.6641,-2.6445,-2.6387,-2.6348,-2.6152,-2.5918,-2.5742,-2.5742,-2.5742,-2.5742,-2.5742,-2.5742,-2.5742,-2.5742,-2.5742,-2.5742,-2.5742,-2.5898,-2.6035,-2.6035,-2.6387,-2.668,-2.668,-2.6875,-2.709,-2.7324,-2.7363,-2.7363,-2.7363,-2.7363,-2.7285,-2.7031,-2.7402,-2.7676,-2.7676,-2.8047,-2.8203,-2.8027,-2.8008,-2.791,-2.7676,-2.7676,-2.7637,-2.7598,-2.7832,-2.8066,-2.8301,-2.8301,-2.8301,-2.8301,-2.8496,-2.8574,-1.923,-2.0224,-2.1259,-2.1445,-2.159,-2.1569,0.0,0.0,0.0,0.0,0.0,0.0,0.0,0.0,0.0,0.0,0.0,0.0,0.0,0.0,0.0,0.0,0.0,0.0,-2.5929,-2.5726,-2.5432,-2.5189,-2.4555,-2.4028,-2.3789,-2.3496,-2.3301,-2.3242,-2.3301,-2.3535,-2.3984,-2.3848,-2.4004,-2.4414,-2.4062,-2.3887,-2.3867,-2.3496,-2.334,-2.334,0.0,0.0,-2.3242,-2.3301,-2.3516,-2.3809,-2.3945,-2.4473,-2.5215,-2.5664,-2.5879,-2.6035,-2.6699,-2.6914,-2.6855,-2.6426,-2.6289,-2.623,-2.5859,-2.5742,-2.5742,-2.582,-2.5801,-2.5742,-2.5742,-2.5742,-2.5742,-2.5742,-2.5781,-2.584,-2.584,-2.6172,-2.6484,-2.6484,-2.6816,-2.7109,-2.7109,-2.7168,-2.7207,-2.7207,-2.7207,-2.7207,-2.7207,-2.7207,-2.7207,-2.7207,-2.7539,-2.7754,-2.7754,-2.8086,-2.8144,-2.7793,-2.7754,-2.7754,-2.7754,-2.7754,-2.793,-2.8281,-2.8301,-2.8301,-2.8301,-2.8359,-2.8398,-2.8398,-2.8828,-2.9023,-1.9996,-2.0948,-2.1445,-2.0348,-2.0659,-2.1093,0.0,0.0,0.0,0.0,0.0,0.0,0.0,0.0,0.0,0.0,0.0,0.0,0.0,0.0,0.0,0.0,0.0,-2.6615,-2.5865,-2.5825,-2.5478,-2.4934,-2.4539,-2.416,-2.3809,-2.4062,-2.4062,-2.3691,-2.4043,-2.4434,-2.4863,-2.416,-2.4004,-2.4414,-2.4355,-2.4316,-2.4316,-2.4258,-2.4219,-2.4219,0.0,-2.4023,-2.3711,-2.4062,-2.4043,-2.3867,-2.459,-2.5176,-2.5684,-2.6133,-2.6523,-2.6797,-2.6562,-2.6484,-2.6406,-2.5977,-2.584,-2.582,-2.5762,-2.5742,-2.582,-2.6191,-2.6016,-2.5742,-2.5742,-2.5742,-2.5742,-2.5742,-2.6016,-2.6289,-2.6289,-2.6621,-2.6914,-2.6914,-2.7266,-2.7559,-2.7559,-2.7851,-2.8086,-2.8086,-2.8086,-2.8086,-2.8086,-2.8086,-2.8086,-2.8086,-2.8144,-2.8203,-2.8203,-2.8262,-2.8262,-2.8203,-2.8203,-2.8203,-2.8203,-2.8203,-2.8223,-2.8301,-2.8301,-2.8301,-2.8301,-2.8652,-2.8828,-2.8828,-2.9277,-2.9473,-1.9582,-2.0463,-2.1131,-2.0514,-2.1213,0.0,0.0,0.0,0.0,0.0,0.0,0.0,0.0,0.0,0.0,0.0,0.0,0.0,0.0,0.0,0.0,0.0,0.0,-2.6512,-2.6215,-2.6099,-2.5809,-2.5516,-2.509,-2.4687,-2.4492,-2.4434,-2.4336,-2.4141,-2.4316,-2.4629,-2.5059,-2.4668,-2.4707,-2.5137,-2.4883,-2.4766,-2.4766,-2.4531,-2.4414,-2.4414,0.0,-2.4316,-2.4141,-2.4336,-2.4453,-2.4512,-2.4922,-2.5352,-2.5762,-2.5957,-2.6309,-2.6621,-2.6191,-2.6191,-2.6348,-2.6152,-2.625,-2.6426,-2.6426,-2.6426,-2.6465,-2.668,-2.625,-2.584,-2.6309,-2.625,-2.6152,-2.6367,-2.6582,-2.6719,-2.6719,-2.707,-2.7363,-2.7363,-2.7715,-2.8008,-2.8008,-2.8164,-2.8301,-2.8301,-2.8301,-2.8301,-2.8301,-2.8301,-2.8301,-2.8301,-2.8301,-2.8301,-2.8301,-2.8301,-2.8301,-2.8301,-2.8301,-2.8301,-2.8301,-2.8301,-2.8301,-2.8301,-2.8516,-2.8633,-2.8633,-2.9062,-2.9277,-2.9277,-2.9707,-2.9902,-1.9499,-2.0185,-2.0879,0.0,0.0,0.0,0.0,0.0,0.0,0.0,0.0,0.0,0.0,0.0,0.0,0.0,0.0,0.0,0.0,0.0,0.0,-2.636,-2.64,-2.64,-2.6304,-2.6207,-2.6091,-2.6014,-2.5506,-2.5176,-2.5078,-2.4844,-2.4668,-2.457,-2.4668,-2.4883,-2.5215,-2.5215,-2.5391,-2.5742,-2.5391,-2.5215,-2.5215,-2.4883,-2.4727,-2.4727,-2.4727,-2.4668,-2.457,-2.4687,-2.4863,-2.5098,-2.5293,-2.5586,-2.5898,-2.5898,-2.6094,-2.6348,-2.5996,-2.6172,-2.6543,-2.6543,-2.6758,-2.7012,-2.7012,-2.7012,-2.7031,-2.7129,-2.6621,-2.6191,-2.6855,-2.6777,-2.6621,-2.6934,-2.709,-2.7168,-2.7168,-2.75,-2.7812,-2.7812,-2.8066,-2.8301,-2.8301,-2.8301,-2.8301,-2.8301,-2.8301,-2.8301,-2.8301,-2.8301,-2.8301,-2.8301,-2.8301,-2.834,-2.8437,-2.8437,-2.8476,-2.8594,-2.8398,-2.8301,-2.8301,-2.8301,-2.834,-2.8437,-2.875,-2.8965,-2.9062,-2.9512,-2.9726,-2.9726,-3.0156,-3.0351,-2.0741,-2.0905,-2.1022,0.0,0.0,0.0,0.0,0.0,0.0,0.0,0.0,0.0,0.0,0.0,0.0,0.0,0.0,0.0,0.0,0.0,-2.6071,-2.6091,-2.6091,-2.6014,-2.5742,-2.6014,-2.6014,-2.5742,-2.5703,-2.5508,-2.5098,-2.543,-2.5449,-2.5039,-2.543,-2.5664,-2.5684,-2.5684,-2.5703,-2.5742,-2.5703,-2.5684,-2.5684,-2.5664,-2.5644,-2.5644,-2.5644,-2.541,-2.5059,-2.5469,-2.541,-2.5156,-2.5977,-2.6309,-2.6348,-2.6348,-2.6367,-2.6387,-2.6348,-2.6621,-2.6973,-2.6973,-2.6992,-2.7012,-2.7012,-2.7012,-2.709,-2.75,-2.7285,-2.6934,-2.6992,-2.6992,-2.6973,-2.7012,-2.7324,-2.7617,-2.7617,-2.7949,-2.8242,-2.8242,-2.8262,-2.8301,-2.8301,-2.8301,-2.8301,-2.8301,-2.8301,-2.8301,-2.8301,-2.8301,-2.8301,-2.8301,-2.8301,-2.8457,-2.8848,-2.8867,-2.9043,-2.9453,-2.873,-2.8301,-2.8301,-2.8301,-2.8476,-2.8867,-2.8906,-2.9121,-2.9531,-2.9941,-3.0156,-3.0156,-3.0625,-3.084,-1.9748,-2.0062,0.0,0.0,0.0,0.0,0.0,0.0,0.0,0.0,0.0,0.0,0.0,0.0,0.0,0.0,0.0,0.0,0.0,-2.582,-2.582,-2.582,-2.582,-2.582,-2.5742,-2.582,-2.582,-2.5742,-2.5742,-2.5664,-2.5488,-2.5644,-2.5664,-2.5488,-2.5644,-2.5742,-2.5742,-2.5742,-2.5742,-2.5742,-2.5742,-2.5742,-2.5742,-2.5742,-2.5742,-2.5742,-2.5742,-2.5644,-2.5488,-2.5664,-2.5801,-2.5918,-2.625,-2.6387,-2.6387,-2.6387,-2.6562,-2.6777,-2.6777,-2.7051,-2.7422,-2.7422,-2.7598,-2.7812,-2.7812,-2.7812,-2.7851,-2.8008,-2.793,-2.7812,-2.7812,-2.7617,-2.748,-2.7754,-2.793,-2.8047,-2.8047,-2.8184,-2.8301,-2.8301,-2.8496,-2.8672,-2.8672,-2.8906,-2.9082,-2.9082,-2.9082,-2.9082,-2.9082,-2.9082,-2.9082,-2.9082,-2.9082,-2.916,-2.9316,-2.9316,-2.9394,-2.9551,-2.9277,-2.9082,-2.9082,-2.9082,-2.916,-2.9316,-2.957,-2.9805,-2.9961,-3.041,-3.0625,-3.0625,-3.082,-3.0898,-1.9072,-1.9449,0.0,0.0,0.0,0.0,0.0,0.0,0.0,0.0,0.0,0.0,0.0,0.0,0.0,0.0,0.0,0.0,-2.5742,-2.5742,-2.5742,-2.5742,-2.5742,-2.5742,-2.5742,-2.5742,-2.5742,-2.5742,-2.5742,-2.5742,-2.5742,-2.5742,-2.5742,-2.5742,-2.5742,-2.5742,-2.5742,-2.5742,-2.5742,-2.5742,-2.5742,-2.5742,-2.5742,-2.5742,-2.5742,-2.5742,-2.5742,-2.5742,-2.5742,-2.5742,-2.5996,-2.6406,-2.6543,-2.6582,-2.6582,-2.6582,-2.6855,-2.7226,-2.7226,-2.75,-2.7871,-2.7871,-2.8066,-2.8301,-2.8301,-2.8301,-2.8301,-2.8301,-2.8301,-2.8301,-2.8301,-2.8086,-2.793,-2.8223,-2.8301,-2.8301,-2.8301,-2.8398,-2.8496,-2.8496,-2.8828,-2.9121,-2.9121,-2.9375,-2.957,-2.957,-2.957,-2.957,-2.957,-2.957,-2.957,-2.957,-2.957,-2.9629,-2.9766,-2.9766,-2.9824,-2.998,-2.998,-2.9863,-2.959,-2.957,-2.9629,-2.9766,-3.0059,-3.0273,-3.041,-3.0742,-3.0898,-3.0898,-3.0898,-3.0898,-1.8915,0.0,0.0,0.0,0.0,0.0,0.0,0.0,0.0,0.0,0.0,0.0,0.0,0.0,0.0,0.0,0.0,0.0,-2.5742,-2.5742,-2.5742,-2.5742,-2.5742,-2.5742,-2.5742,-2.5742,-2.5742,-2.5742,-2.5742,-2.5742,-2.5742,-2.5742,-2.5742,-2.5742,-2.5742,-2.5742,-2.5742,-2.5742,-2.5742,-2.5742,-2.5742,-2.5742,-2.5742,-2.5742,-2.5742,-2.5742,-2.5742,-2.5742,-2.5742,-2.5742,-2.5996,-2.6426,-2.6855,-2.7031,-2.7031,-2.7031,-2.7305,-2.7676,-2.7676,-2.7949,-2.8301,-2.8301,-2.8301,-2.8301,-2.8301,-2.8301,-2.8301,-2.8301,-2.8301,-2.8301,-2.8301,-2.8301,-2.8301,-2.8301,-2.8301,-2.8301,-2.8301,-2.8633,-2.8926,-2.8926,-2.9277,-2.957,-2.957,-2.959,-2.959,-2.959,-2.959,-2.959,-2.959,-2.959,-2.959,-2.959,-2.959,-2.9746,-3.0176,-3.0195,-3.0391,-3.0859,-3.0879,-3.0488,-2.9629,-2.959,-2.9785,-3.0195,-3.0195,-3.043,-3.0898,-3.0898,-3.0898,-3.0898,-3.0898,-3.0898,-1.798,0.0,0.0,0.0,0.0,0.0,0.0,0.0,0.0,0.0,0.0,0.0,0.0,0.0,0.0,0.0,0.0,-2.5742,-2.5742,-2.5742,-2.5742,-2.5742,-2.5742,-2.5742,-2.5742,-2.5742,-2.5742,-2.5742,-2.5742,-2.5742,-2.5742,-2.5742,-2.5742,-2.5742,-2.5742,-2.5742,-2.5742,-2.5742,-2.5742,-2.5742,-2.5742,-2.5742,-2.5742,-2.5742,-2.5742,-2.5742,-2.5742,-2.5742,-2.5781,-2.6387,-2.6543,-2.6465,-2.7187,-2.748,-2.748,-2.748,-2.7734,-2.8105,-2.8105,-2.8184,-2.8301,-2.8301,-2.8301,-2.8301,-2.8301,-2.8301,-2.8301,-2.8301,-2.8301,-2.8145,-2.7544,-2.7399,-2.7544,-2.8145,-2.8516,-2.873,-2.873,-2.9062,-2.9375,-2.9375,-2.9726,-3.0,-3.0,-3.0273,-3.0508,-3.0508,-3.0508,-3.0508,-3.0508,-3.0508,-3.0508,-3.0508,-2.964,-2.9212,-2.9325,-2.8501,-2.7979,-2.8104,-2.9057,-2.9789,-3.0508,-3.0508,-3.0566,-3.0684,-3.0684,-3.0762,-3.0898,-3.0898,-3.0898,-3.0898,-3.0898,-3.0898,0.0,0.0,0.0,0.0,0.0,0.0,0.0,0.0,0.0,0.0,0.0,0.0,0.0,0.0,0.0,0.0,-2.5566,-2.5742,-2.5742,-2.5742,-2.5742,-2.5742,-2.5742,-2.5742,-2.5742,-2.5742,-2.5742,-2.5742,-2.5742,-2.5742,-2.5742,-2.5742,-2.5742,-2.5742,-2.5742,-2.5742,-2.5742,-2.5742,-2.5742,-2.5742,-2.5235,-2.502,-2.5118,-2.5528,-2.5742,-2.5742,-2.5742,-2.5742,-2.5801,-2.666,-2.6777,-2.6484,-2.7519,-2.7812,-2.7695,-2.7851,-2.8066,-2.8301,-2.8301,-2.796,-2.7618,-2.7618,-2.7295,-2.6844,-2.6844,-2.6955,-2.7085,-2.7085,-2.7196,-2.716,-2.6614,-2.6441,-2.6614,-2.716,-2.7401,-2.7567,-2.7567,-2.8013,-2.831,-2.831,-2.8644,-2.8923,-2.8923,-2.9146,-2.9313,-2.9313,-2.9313,-2.9313,-2.9313,-2.9313,-2.9313,-2.9313,-2.8582,-2.8206,-2.8206,-2.7486,-2.7021,-2.7021,-2.7727,-2.8462,-2.9313,-3.0411,-3.0898,-3.0898,-3.0898,-3.0898,-3.0898,-3.0898,-3.0898,-3.0898,-3.0898,-3.0898,0.0,0.0,0.0,0.0,0.0,0.0,0.0,0.0,0.0,0.0,0.0,0.0,0.0,0.0,0.0,-2.5664,-2.5742,-2.5742,-2.5742,-2.5742,-2.5742,-2.5742,-2.5742,-2.5742,-2.5742,-2.5742,-2.5742,-2.5742,-2.5742,-2.5742,-2.5742,-2.5742,-2.5742,-2.5742,-2.5742,-2.5742,-2.5742,-2.5625,-2.5528,-2.5528,-2.451,-2.398,-2.3998,-2.4922,-2.543,-2.543,-2.543,-2.545,-2.5546,-2.6478,-2.6594,-2.6319,-2.7602,-2.7835,-2.7439,-2.7825,-2.796,-2.796,-2.796,-2.7295,-2.63,-2.63,-2.5626,-2.4727,-2.4761,-2.4906,-2.5196,-2.5213,-2.5486,-2.5642,-2.556,-2.556,-2.5577,-2.5494,-2.5594,-2.5792,-2.5792,-2.6099,-2.6473,-2.6473,-2.6765,-2.7021,-2.7021,-2.7021,-2.7021,-2.7021,-2.7004,-2.7004,-2.7021,-2.7021,-2.7021,-2.7021,-2.69,-2.6779,-2.6779,-2.6762,-2.6641,-2.6641,-2.6779,-2.6779,-2.6779,-2.9194,-3.0528,-3.0528,-3.0528,-3.0645,-3.0762,-3.0762,-3.0762,-3.0898,-3.0898,-3.0898,0.0,0.0,0.0,0.0,0.0,0.0,0.0,0.0,0.0,0.0,0.0,0.0,0.0,0.0,0.0,-2.5723,-2.5742,-2.5742,-2.5742,-2.5742,-2.5742,-2.5742,-2.5742,-2.5742,-2.5742,-2.5742,-2.5742,-2.5742,-2.5742,-2.5742,-2.5742,-2.5742,-2.5742,-2.5742,-2.5742,-2.5742,-2.5742,-2.4805,-2.4393,-2.4393,-2.3384,-2.2885,-2.2885,-2.3085,-2.3203,-2.3203,-2.3203,-2.3379,-2.3697,-2.5124,-2.5245,-2.4739,-2.6298,-2.6245,-2.5392,-2.548,-2.5498,-2.5498,-2.5498,-2.5278,-2.5058,-2.5058,-2.4948,-2.4778,-2.4957,-2.5111,-2.5247,-2.5537,-2.569,-2.5577,-2.4833,-2.4659,-2.4499,-2.381,-2.4972,-2.6302,-2.6302,-2.661,-2.6884,-2.6884,-2.6953,-2.7021,-2.7021,-2.7021,-2.7021,-2.7021,-2.7004,-2.6987,-2.7004,-2.7021,-2.7021,-2.7021,-2.6172,-2.5562,-2.5562,-2.4579,-2.3961,-2.3961,-2.4949,-2.5562,-2.5562,-2.7021,-2.7864,-2.7864,-2.7864,-2.8343,-2.9294,-2.9294,-2.9903,-3.0898,-3.0898,-3.0898,0.0,0.0,0.0,0.0,0.0,0.0,0.0,0.0,0.0,0.0,0.0,0.0,0.0,0.0,-2.5742,-2.5742,-2.5742,-2.5528,-2.502,-2.543,-2.5528,-2.502,-2.543,-2.5742,-2.5742,-2.5742,-2.5528,-2.502,-2.4922,-2.4707,-2.4214,-2.4214,-2.4412,-2.4922,-2.4922,-2.4922,-2.4922,-2.4393,-2.3881,-2.3285,-2.2282,-2.1489,-2.0979,-2.1979,-2.2484,-2.2501,-2.2689,-2.2877,-2.31,-2.4298,-2.4543,-2.4213,-2.5248,-2.5278,-2.4727,-2.4727,-2.4727,-2.4727,-2.4727,-2.4283,-2.3855,-2.3855,-2.3633,-2.326,-2.3435,-2.3721,-2.4023,-2.4198,-2.4372,-2.4306,-2.3902,-2.3825,-2.3626,-2.3186,-2.3947,-2.4785,-2.4785,-2.4928,-2.5178,-2.5178,-2.5178,-2.5178,-2.5178,-2.5178,-2.5178,-2.5178,-2.5178,-2.5162,-2.5178,-2.5178,-2.5178,-2.5178,-2.4579,-2.4085,-2.4085,-2.3479,-2.3106,-2.3106,-2.3728,-2.4085,-2.4085,-2.4826,-2.5668,-2.7021,-2.7021,-2.7383,-2.7966,-2.8564,-2.9294,-2.9903,-3.0839,-3.1191,0.0,0.0,0.0,0.0,0.0,0.0,0.0,0.0,0.0,0.0,0.0,0.0,0.0,-2.543,-2.5528,-2.5645,-2.5528,-2.5118,-2.4196,-2.4707,-2.4824,-2.3899,-2.4609,-2.5235,-2.543,-2.5235,-2.4824,-2.4196,-2.3899,-2.3484,-2.2584,-2.2484,-2.2885,-2.3782,-2.3782,-2.3782,-2.3782,-2.3683,-2.3085,-2.2181,-2.1183,-2.0189,-1.9376,-2.1248,-2.1978,-2.2097,-2.2311,-2.2511,-2.2678,-2.3493,-2.3779,-2.3645,-2.4166,-2.4283,-2.4061,-2.4061,-2.4061,-2.4061,-2.4061,-2.3568,-2.273,-2.273,-2.2306,-2.1789,-2.1847,-2.2213,-2.2637,-2.2696,-2.2901,-2.3106,-2.3106,-2.3106,-2.3106,-2.3106,-2.3106,-2.3106,-2.3106,-2.3106,-2.3106,-2.3106,-2.3106,-2.3106,-2.3106,-2.3106,-2.3106,-2.3106,-2.3106,-2.3106,-2.3106,-2.3106,-2.3106,-2.3106,-2.3106,-2.3106,-2.3106,-2.3106,-2.3135,-2.3193,-2.3193,-2.3223,-2.3281,-2.3281,-2.4253,-2.6477,-2.6344,-2.6399,-2.6641,-2.7797,-2.8415,-2.8672,-3.0433,-3.1262,0.0,0.0,0.0,0.0,0.0,0.0,0.0,0.0,0.0,0.0,0.0,0.0,0.0,-2.4295,-2.4609,-2.5528,-2.4922,-2.4295,-2.4097,-2.3384,-2.2885,-2.2685,-2.2785,-2.3302,-2.4196,-2.3502,-2.3285,-2.4097,-2.3285,-2.2685,-2.2484,-2.2484,-2.2584,-2.2685,-2.2685,-2.2685,-2.2685,-2.1777,-2.1285,-2.1081,-1.9983,-1.948,-1.9286,-1.9881,-2.0106,-2.0106,-2.0257,-2.0494,-2.1143,-2.2198,-2.2307,-2.1699,-2.2846,-2.2539,-2.1645,-2.1645,-2.1645,-2.1645,-2.1645,-2.1725,-2.1861,-2.1861,-2.1965,-2.2169,-2.2418,-2.2564,-2.2681,-2.2959,-2.3076,-2.3106,-2.3106,-2.3106,-2.3106,-2.3106,-2.3106,-2.3106,-2.3106,-2.3106,-2.3106,-2.3106,-2.3106,-2.3106,-2.3106,-2.3106,-2.3106,-2.3106,-2.3106,-2.3106,-2.3106,-2.3106,-2.3106,-2.3106,-2.3106,-2.3106,-2.3106,-2.3106,-2.3223,-2.3515,-2.353,-2.3662,-2.394,-2.3954,-2.4084,-2.4456,-2.3888,-2.4209,-2.5317,-2.573,-2.6496,-2.7729,-2.9487,-3.0303,0.0,0.0,0.0,0.0,0.0,0.0,0.0,0.0,0.0,0.0,0.0,0.0,-2.3085,-2.3185,-2.3384,-2.38,-2.3502,-2.2985,-2.2383,-2.2383,-2.2282,-2.1692,-2.208,-2.2685,-2.3185,-2.2785,-2.2484,-2.2282,-2.1878,-2.1387,-2.079,-2.0688,-2.0979,-2.1591,-2.1591,-2.1591,-2.1591,-2.1183,-2.0585,-1.9983,-1.948,-1.9374,-1.955,-1.9696,-1.9769,-1.9784,-2.015,-2.0457,-2.0735,-2.1459,-2.1526,-2.1203,-2.1759,-2.166,-2.1203,-2.1203,-2.132,-2.1481,-2.1481,-2.1701,-2.1964,-2.1964,-2.2184,-2.2462,-2.2579,-2.2754,-2.293,-2.3062,-2.3106,-2.3106,-2.3106,-2.3106,-2.3106,-2.3106,-2.3106,-2.3106,-2.3106,-2.3106,-2.3106,-2.3106,-2.3106,-2.3106,-2.3106,-2.3106,-2.3106,-2.3106,-2.3106,-2.3106,-2.3106,-2.3106,-2.3106,-2.3106,-2.3267,-2.3384,-2.3384,-2.3545,-2.372,-2.3866,-2.3866,-2.394,-2.4071,-2.4086,-2.4086,-2.4086,-2.3808,-2.3902,-2.4538,-2.5422,-2.6119,-2.675,-2.8507,-2.9312,0.0,0.0,0.0,0.0,0.0,0.0,0.0,0.0,0.0,0.0,0.0,-2.079,-2.1591,-2.1895,-2.2181,-2.2484,-2.2282,-2.1777,-2.0979,-2.1387,-2.1387,-2.0585,-2.1183,-2.1777,-2.2097,-2.1895,-2.1489,-2.0979,-2.0688,-2.0189,-1.9376,-1.9272,-1.9687,-2.0483,-2.0483,-2.0483,-2.0483,-2.0483,-2.0086,-1.9272,-1.9272,-1.9447,-1.9769,-1.9842,-1.993,-2.0033,-2.0516,-2.0764,-2.0867,-2.1115,-2.1203,-2.1203,-2.1203,-2.1203,-2.1218,-2.1306,-2.1481,-2.1715,-2.1789,-2.2023,-2.2301,-2.2301,-2.2506,-2.274,-2.274,-2.2915,-2.3106,-2.3106,-2.3106,-2.3106,-2.3106,-2.3106,-2.3106,-2.3106,-2.3106,-2.3106,-2.3106,-2.3106,-2.3106,-2.3106,-2.3106,-2.3106,-2.3106,-2.3106,-2.3106,-2.3106,-2.3179,-2.3237,-2.3237,-2.331,-2.3354,-2.3354,-2.3574,-2.372,-2.372,-2.394,-2.4115,-2.4203,-2.4203,-2.4247,-2.432,-2.4335,-2.4335,-2.4335,-2.4335,-2.4247,-2.4086,-2.5184,-2.5603,-2.5747,-2.736,-2.8173,0.0,0.0,0.0,0.0,0.0,0.0,0.0,0.0,0.0,0.0,0.0,-1.9376,-1.948,-2.0277,-2.1285,-2.2282,-2.1692,-2.0979,-2.0893,-2.0086,-1.948,-1.9376,-1.948,-1.9879,-2.0877,-2.0086,-1.9879,-2.079,-1.9983,-1.9376,-1.9272,-1.9272,-1.9376,-1.9376,-1.9376,-1.9376,-1.9376,-1.9376,-1.9376,-1.9272,-1.9272,-1.9447,-1.9769,-2.0077,-2.0384,-2.0676,-2.0706,-2.0896,-2.1189,-2.1203,-2.1203,-2.1203,-2.1203,-2.1203,-2.1247,-2.1554,-2.1686,-2.1745,-2.2052,-2.2345,-2.2593,-2.2593,-2.2813,-2.3091,-2.3091,-2.3091,-2.3106,-2.3106,-2.3106,-2.3106,-2.3106,-2.3106,-2.3106,-2.3106,-2.3106,-2.3106,-2.3106,-2.3106,-2.3106,-2.3106,-2.3106,-2.3106,-2.3106,-2.3106,-2.3106,-2.3106,-2.3369,-2.3574,-2.3574,-2.3837,-2.4027,-2.4027,-2.4042,-2.4057,-2.4057,-2.4071,-2.4218,-2.4525,-2.454,-2.4686,-2.4993,-2.5008,-2.5008,-2.5008,-2.5008,-2.4701,-2.4086,-2.4525,-2.4672,-2.4687,-2.6433,-2.7254,0.0,0.0,0.0,0.0,0.0,0.0,0.0,0.0,0.0,0.0,0.0,-1.9272,-1.9272,-1.9569,-1.9983,-2.038,-2.0086,-1.9879,-1.9879,-1.9583,-1.9272,-1.9272,-1.9272,-1.948,-1.9879,-1.948,-1.948,-1.9879,-1.948,-1.9272,-1.9272,-1.9272,-1.9272,-1.9272,-1.9272,-1.9272,-1.9272,-1.9272,-1.9272,-1.9286,-1.9491,-1.9755,-2.0077,-2.0398,-2.072,-2.1042,-2.1042,-2.1101,-2.1203,-2.1203,-2.1203,-2.1203,-2.1203,-2.1335,-2.154,-2.1657,-2.195,-2.2301,-2.2432,-2.2667,-2.293,-2.293,-2.3018,-2.3106,-2.3106,-2.3106,-2.3106,-2.3106,-2.3106,-2.3106,-2.3106,-2.3106,-2.3106,-2.3106,-2.3106,-2.3106,-2.3106,-2.3106,-2.3106,-2.3106,-2.3106,-2.3106,-2.3106,-2.3281,-2.3427,-2.3427,-2.3691,-2.391,-2.391,-2.4013,-2.4086,-2.4086,-2.4276,-2.4393,-2.4393,-2.4583,-2.4759,-2.4876,-2.4876,-2.4935,-2.5052,-2.5052,-2.5052,-2.5052,-2.5052,-2.4949,-2.4701,-2.4832,-2.4876,-2.4891,-2.5532,-2.5846,0.0,0.0,0.0,0.0,0.0,0.0,0.0,0.0,0.0,0.0,-1.9272,-1.9272,-1.9272,-1.9272,-1.9272,-1.9272,-1.9272,-1.9272,-1.9272,-1.9272,-1.9272,-1.9272,-1.9374,-1.9403,-1.9286,-1.9374,-1.9389,-1.9286,-1.9272,0.0,-1.9272,-1.9272,-1.9272,-1.9272,-1.9272,-1.9272,-1.9272,-1.9272,-1.933,-1.9447,-1.9652,-1.9989,-2.0413,-2.0633,-2.0896,-2.1203,-2.1203,-2.1203,-2.1203,-2.1203,-2.1203,-2.1218,-2.1335,-2.1511,-2.1715,-2.1935,-2.2271,-2.2637,-2.2754,-2.293,-2.3106,-2.3106,-2.3106,-2.3106,-2.3106,-2.3106,-2.3106,-2.3106,-2.3106,-2.3106,-2.3106,-2.3106,-2.3106,-2.3106,-2.3106,-2.3106,-2.3106,-2.3106,-2.3106,-2.3106,-2.3193,-2.3267,-2.3267,-2.3545,-2.3764,-2.3764,-2.4042,-2.4247,-2.4247,-2.4349,-2.4408,-2.4408,-2.4598,-2.473,-2.473,-2.4935,-2.5052,-2.5052,-2.5052,-2.5052,-2.5052,-2.5052,-2.5052,-2.5052,-2.5052,-2.5052,-2.5052,-2.5052,-2.5052,-2.5052,-2.5052,-2.5052,0.0,0.0,0.0,0.0,0.0,0.0,0.0,0.0,0.0,0.0,-1.9242,-1.9257,-1.9272,-1.9272,-1.9286,-1.9286,-1.9286,-1.9286,-1.9286,-1.9286,-1.9286,-1.9301,-1.9579,-1.9652,-1.933,-1.9594,-1.9638,-1.9316,-1.9286,-1.9286,-1.9272,-1.9272,-1.9272,-1.9272,-1.9286,-1.9286,-1.9286,-1.9301,-1.9462,-1.9784,-1.9784,-2.012,-2.072,-2.0735,-2.0911,-2.1203,-2.1203,-2.1203,-2.1203,-2.1203,-2.1218,-2.1262,-2.1569,-2.1715,-2.1803,-2.2403,-2.2637,-2.2681,-2.3003,-2.3106,-2.3106,-2.3106,-2.3106,-2.3106,-2.3106,-2.3106,-2.3106,-2.3106,-2.3106,-2.3106,-2.3106,-2.3106,-2.3106,-2.3106,-2.3106,-2.3106,-2.3106,-2.312,-2.312,-2.312,-2.3384,-2.3603,-2.3603,-2.3881,-2.4101,-2.4101,-2.4379,-2.4583,-2.4583,-2.4862,-2.5052,-2.5052,-2.5052,-2.5052,-2.5052,-2.5052,-2.5052,-2.5052,-2.5052,-2.5052,-2.5052,-2.5052,-2.5052,-2.5052,-2.5052,-2.5052,-2.5052,-2.5052,-2.5052,-2.5052,-2.5052,-2.5052,-1.2394,0.0,0.0,0.0,0.0,0.0,0.0,0.0,0.0,-1.8321,-1.8569,-1.8716,-1.9184,-1.9272,-1.936,-1.9594,-1.9433,-1.936,-1.9594,-1.9623,-1.9711,-1.9945,-2.0047,-2.0062,-1.9974,-2.0047,-1.9974,0.0,-1.9623,-1.952,-1.9286,-1.9272,-1.9272,-1.9272,-1.9506,-1.9623,-1.9623,-1.9857,-2.0018,-2.0106,-2.034,-2.0545,-2.0735,-2.0969,-2.113,-2.1203,-2.1203,-2.1203,-2.1203,-2.1203,-2.135,-2.1569,-2.1657,-2.1964,-2.2389,-2.2564,-2.2769,-2.2988,-2.3076,-2.3106,-2.3106,-2.3106,-2.3106,-2.3106,-2.3106,-2.3106,-2.3106,-2.3106,-2.3106,-2.3106,-2.3106,-2.3106,-2.3106,-2.3106,-2.3106,-2.3106,-2.3106,-2.3296,-2.3457,-2.3457,-2.353,-2.3676,-2.391,-2.4218,-2.4437,-2.4437,-2.4715,-2.492,-2.492,-2.4993,-2.5052,-2.5052,-2.5052,-2.5052,-2.5052,-2.5052,-2.5052,-2.5052,-2.5052,-2.5052,-2.5052,-2.5052,-2.5052,-2.5052,-2.5052,-2.5052,-2.5052,-2.5052,-2.5052,-2.5052,-2.5052,-2.5052,0.0,0.0,0.0,0.0,0.0,0.0,0.0,-1.6009,0.0,0.0,-1.8408,-1.8628,-1.9008,-1.9184,-1.9389,-1.9711,-1.9608,-1.9594,-1.9916,-1.9959,-2.0033,-2.0208,-2.0355,-2.0384,-2.0252,-2.0355,-2.0311,-1.9989,-1.9842,-1.9623,-1.9286,-1.9272,-1.933,-1.9477,-1.9667,-1.9828,-1.9959,-2.015,-2.0311,-2.0442,-2.0633,-2.0794,-2.094,-2.113,-2.1203,-2.1203,-2.1203,-2.1203,-2.1218,-2.135,-2.1525,-2.1715,-2.1979,-2.2301,-2.2637,-2.2769,-2.2945,-2.3106,-2.3106,-2.3106,-2.3106,-2.3106,-2.3106,-2.3106,-2.3106,-2.3106,-2.3106,-2.3106,-2.3106,-2.3106,-2.3106,-2.3106,-2.3106,-2.3106,-2.3106,-2.3106,-2.3106,-2.3369,-2.3588,-2.3588,-2.3823,-2.4057,-2.4247,-2.4554,-2.4774,-2.4774,-2.4935,-2.5052,-2.5052,-2.5052,-2.5052,-2.5052,-2.5052,-2.5052,-2.5052,-2.5052,-2.5052,-2.5052,-2.5052,-2.5052,-2.5052,-2.5052,-2.5052,-2.5052,-2.5052,-2.5052,-2.5052,-2.5052,-2.5052,-2.5052,-2.5052,-2.5052,0.0,0.0,0.0,0.0,0.0,0.0,-1.572,-1.5966,-1.6257,0.0,-1.8291,-1.854,-1.8613,-1.8891,-1.9213,-1.9506,-1.9667,-1.9886,-2.0237,-2.0296,-2.0311,-2.034,-2.0603,-2.0662,-2.0369,-2.0603,-2.0647,-2.0311,-1.9989,-1.9681,-1.9403,-1.9389,-1.952,-1.9813,-1.9857,-2.0003,-2.0186,-2.0325,-2.0486,-2.0779,-2.0779,-2.0925,-2.1089,-2.1089,-2.1089,-2.1089,-2.1089,-2.1233,-2.1291,-2.1613,-2.1745,-2.1803,-2.2389,-2.2637,-2.271,-2.3003,-2.3106,-2.3106,-2.3106,-2.3106,-2.3106,-2.3106,-2.3106,-2.3106,-2.3106,-2.3106,-2.3106,-2.3106,-2.3106,-2.3106,-2.3106,-2.3106,-2.3106,-2.3106,-2.3106,-2.312,-2.3149,-2.3427,-2.3662,-2.3691,-2.4174,-2.4583,-2.4613,-2.4862,-2.5052,-2.5052,-2.5052,-2.5052,-2.5052,-2.5052,-2.5052,-2.5052,-2.5052,-2.5052,-2.5052,-2.5052,-2.5052,-2.5052,-2.5052,-2.5052,-2.5052,-2.5052,-2.5052,-2.5052,-2.5052,-2.5052,-2.5052,-2.5052,-2.5052,-2.5052,-2.5052,-2.5052,0.0,0.0,-1.3607,0.0,0.0,0.0,-1.3733,-1.4451,-1.5418,0.0,-1.6353,-1.6742,-1.7246,-1.7606,-1.7738,-1.7711,-1.8669,-1.9744,-2.0545,-2.0633,-2.072,-2.0984,-2.1072,-2.1086,-2.1028,-2.1072,-2.0984,-2.0647,-2.0325,-2.012,-2.0047,-2.0047,-1.9968,-1.9823,-2.0288,-2.0463,-2.0298,-2.0783,-2.1057,-2.1115,-2.1115,-2.1031,-2.0845,-2.0845,-2.073,-2.05,-2.073,-2.0989,-2.1248,-2.1831,-2.2096,-2.2125,-2.2476,-2.2784,-2.3018,-2.3091,-2.3106,-2.3106,-2.3106,-2.3106,-2.3106,-2.3106,-2.2856,-2.2731,-2.2981,-2.2856,-2.2731,-2.2981,-2.3106,-2.3106,-2.3106,-2.3106,-2.3106,-2.3106,-2.2856,-2.2803,-2.3442,-2.3493,-2.3811,-2.4335,-2.4481,-2.4657,-2.492,-2.5022,-2.5052,-2.5052,-2.5052,-2.5052,-2.5052,-2.5052,-2.5052,-2.5052,-2.5052,-2.5052,-2.5052,-2.5052,-2.5052,-2.5052,-2.5052,-2.5052,-2.5052,-2.5052,-2.5052,-2.5052,-2.5052,-2.5052,-2.5052,-2.5052,-2.5052,-2.5052,-2.5052,-2.5052,0.0,0.0,-1.4184,-1.4116,0.0,0.0,0.0,-1.4149,-1.4764,-1.546,-1.5616,-1.5814,-1.6437,-1.6678,-1.6834,-1.6894,-1.8024,-1.9017,-1.9175,-1.999,-2.072,-2.072,-2.0867,-2.0969,-2.0969,-2.1115,-2.1072,-2.075,-2.0574,-2.0413,-2.0237,-2.0019,-1.9996,-2.0043,-2.0186,-2.0231,-2.0274,-2.0773,-2.096,-2.096,-2.096,-2.0845,-2.0716,-2.0601,-2.047,-2.0494,-2.0611,-2.0897,-2.1222,-2.191,-2.2161,-2.219,-2.2617,-2.2959,-2.3106,-2.3106,-2.3106,-2.3106,-2.3106,-2.2981,-2.2856,-2.2856,-2.2606,-2.2355,-2.2606,-2.2606,-2.2606,-2.2856,-2.2981,-2.3106,-2.2856,-2.2856,-2.2856,-2.2606,-2.248,-2.244,-2.3021,-2.3206,-2.3389,-2.3966,-2.4166,-2.4458,-2.4752,-2.4645,-2.4645,-2.4781,-2.4781,-2.4781,-2.4781,-2.4781,-2.4781,-2.451,-2.451,-2.451,-2.451,-2.451,-2.4645,-2.4781,-2.4781,-2.4916,-2.5052,-2.5052,-2.5052,-2.5052,-2.5052,-2.5052,-2.5052,-2.5052,-2.5052,-2.5052,-2.5052,-2.5052,0.0,0.0,0.0,0.0,0.0,-1.4128,0.0,0.0,0.0,-1.5119,-1.5161,0.0,0.0,0.0,0.0,0.0,0.0,0.0,0.0,-1.8812,0.0,-1.9845,-2.0274,-2.0521,-2.041,-2.0638,-2.071,-2.0696,-2.0521,-2.039,-2.0303,-2.0096,-1.9989,-2.0259,-2.0019,-2.0018,-2.0155,-2.05,-2.0601,-2.0601,-2.0601,-2.0601,-2.05,-2.0326,-2.0378,-2.0496,-2.067,-2.0879,-2.1306,-2.1789,-2.2039,-2.2248,-2.2879,-2.3106,-2.3106,-2.2981,-2.2981,-2.2981,-2.2981,-2.2731,-2.248,-2.248,-2.2355,-2.2104,-2.1978,-2.223,-2.248,-2.248,-2.2731,-2.2856,-2.2606,-2.248,-2.248,-2.2104,-2.216,-2.2159,-2.2594,-2.2902,-2.3078,-2.3518,-2.3784,-2.3966,-2.436,-2.4238,-2.4088,-2.436,-2.436,-2.436,-2.436,-2.436,-2.436,-2.4102,-2.3966,-2.3966,-2.3966,-2.3966,-2.4088,-2.4374,-2.436,-2.4645,-2.4916,-2.5052,-2.5052,-2.5052,-2.5052,-2.5052,-2.5052,-2.5052,-2.5052,-2.5052,-2.5052,-2.5052,0.0,0.0,0.0,0.0,-1.4702,0.0,0.0,0.0,-1.3939,-1.3815,0.0,0.0,0.0,0.0,0.0,0.0,0.0,0.0,-1.5735,-1.6742,-1.7867,-1.866,-1.9362,-1.9843,-1.9512,-1.9048,-1.9297,-2.0587,-2.001,-1.988,-2.0573,-2.0616,-2.0401,-1.9883,-2.0099,-2.0127,-1.9809,-2.0155,-2.0385,-2.0385,-2.0385,-2.0155,-1.9938,-2.0213,-2.0115,-1.9932,-2.0427,-2.0835,-2.1245,-2.1505,-2.2058,-2.2563,-2.2966,-2.3106,-2.3106,-2.2731,-2.2606,-2.2606,-2.2355,-2.223,-2.2104,-2.2104,-2.2104,-2.1978,-2.174,-2.1853,-2.2104,-2.2104,-2.223,-2.223,-2.2104,-2.2104,-2.2104,-2.2104,-2.2074,-2.2222,-2.2786,-2.296,-2.313,-2.384,-2.3652,-2.3543,-2.3952,-2.4102,-2.3952,-2.4102,-2.4102,-2.4102,-2.4102,-2.4102,-2.4088,-2.3966,-2.3966,-2.3966,-2.3966,-2.3966,-2.3952,-2.4102,-2.4102,-2.4238,-2.4495,-2.4916,-2.5052,-2.5052,-2.5052,-2.5052,-2.5052,-2.5052,-2.5052,-2.5052,-2.5052,-2.5052,0.0,0.0,0.0,0.0,0.0,0.0,-1.312,0.0,-1.3344,0.0,0.0,0.0,0.0,0.0,0.0,0.0,0.0,0.0,0.0,0.0,-1.7035,0.0,0.0,0.0,-1.8879,-1.8696,-1.8823,-1.9637,-1.9325,-1.9354,-1.992,-2.0074,-2.004,-1.9809,-1.9822,-1.9707,-1.9591,-1.9809,-2.004,-2.004,-2.004,-2.002,-2.0082,-1.9983,-2.0107,-2.0321,-2.0563,-2.0902,-2.1173,-2.1423,-2.1742,-2.2104,-2.2355,-2.2606,-2.2731,-2.248,-2.2355,-2.223,-2.2104,-2.1978,-2.174,-2.1614,-2.1488,-2.1488,-2.1362,-2.1488,-2.1866,-2.1866,-2.1978,-2.2104,-2.1866,-2.1866,-2.1782,-2.1833,-2.1842,-2.193,-2.2535,-2.2606,-2.2781,-2.3215,-2.327,-2.3133,-2.327,-2.3406,-2.3406,-2.3679,-2.3679,-2.3679,-2.3679,-2.3679,-2.3543,-2.3406,-2.3406,-2.3406,-2.3406,-2.3406,-2.3406,-2.3679,-2.3816,-2.4088,-2.451,-2.4645,-2.4916,-2.5052,-2.5052,-2.5052,-2.5052,-2.5052,-2.5052,-2.5052,-2.5052,-2.5052,-1.5538,0.0,0.0,0.0,0.0,0.0,0.0,0.0,0.0,0.0,0.0,0.0,0.0,0.0,0.0,0.0,0.0,0.0,0.0,0.0,0.0,0.0,0.0,0.0,0.0,-1.7798,-1.797,-1.873,-1.8534,-1.8674,-1.9208,-1.9525,-1.9726,-1.9707,-1.9475,-1.9372,-1.9372,-1.9591,-1.9707,-1.9707,-1.9788,-1.9938,-2.0155,-2.008,-2.0281,-2.0681,-2.0762,-2.0909,-2.1109,-2.1362,-2.1488,-2.1614,-2.1727,-2.1978,-2.2355,-2.2104,-2.1978,-2.1978,-2.1866,-2.1614,-2.1362,-2.1235,-2.1109,-2.1109,-2.1109,-2.1235,-2.1488,-2.1488,-2.1614,-2.1727,-2.1488,-2.1543,-2.1538,-2.1625,-2.167,-2.1911,-2.2325,-2.2485,-2.2605,-2.2819,-2.2859,-2.2859,-2.2859,-2.2859,-2.2996,-2.327,-2.327,-2.327,-2.327,-2.327,-2.3133,-2.2859,-2.2859,-2.2859,-2.2859,-2.2859,-2.2996,-2.327,-2.3679,-2.3952,-2.4224,-2.436,-2.451,-2.4781,-2.4916,-2.4916,-2.4916,-2.5052,-2.5052,-2.5052,-2.5052,-2.5052,0.0,0.0,0.0,-1.4469,0.0,0.0,0.0,0.0,-1.3707,0.0,0.0,0.0,0.0,0.0,0.0,0.0,0.0,0.0,0.0,0.0,0.0,0.0,0.0,0.0,0.0,-1.6236,-1.6265,0.0,-1.731,-1.7346,-1.8837,-1.9207,-1.9407,-1.9359,-1.9372,-1.9372,-1.9372,-1.9372,-1.9359,-1.9372,-1.9653,-1.9786,-1.9826,-2.0388,-2.0655,-2.0695,-2.0975,-2.1096,-2.1109,-2.1109,-2.1362,-2.1614,-2.1235,-2.1362,-2.1614,-2.1614,-2.1614,-2.1614,-2.1235,-2.1109,-2.1109,-2.1109,-2.1109,-2.1109,-2.1109,-2.1109,-2.1109,-2.1109,-2.1109,-2.1109,-2.1109,-2.1323,-2.1537,-2.155,-2.1977,-2.2392,-2.2418,-2.2645,-2.2846,-2.2859,-2.2859,-2.2859,-2.2859,-2.2859,-2.2859,-2.2859,-2.2859,-2.2859,-2.2859,-2.2859,-2.2859,-2.2859,-2.2859,-2.2859,-2.2859,-2.2859,-2.2859,-2.2859,-2.327,-2.3406,-2.3406,-2.3816,-2.3952,-2.4102,-2.436,-2.4495,-2.4495,-2.4916,-2.5052,-2.5052,-2.5052,-2.5052,0.0,0.0,-1.6553,-1.5271,0.0,0.0,0.0,0.0,0.0,0.0,0.0,0.0,0.0,0.0,0.0,0.0,0.0,0.0,0.0,0.0,0.0,0.0,0.0,0.0,0.0,0.0,0.0,0.0,-1.6522,0.0,-1.7765,-1.8547,-1.9085,-1.9078,-1.9265,-1.9372,-1.9372,-1.9372,-1.9466,-1.9653,-1.976,-2.0,-2.0388,-2.0588,-2.0775,-2.0962,-2.1069,-2.1109,-2.1109,-2.1109,-2.1109,-2.1235,-2.1109,-2.1109,-2.1235,-2.1235,-2.1235,-2.1235,-2.1109,-2.1109,-2.1109,-2.1109,-2.1109,-2.1109,-2.1109,-2.1109,-2.1109,-2.1109,-2.1109,-2.1149,-2.1349,-2.1483,-2.1657,-2.2031,-2.2271,-2.2472,-2.2672,-2.2792,-2.2859,-2.2859,-2.2859,-2.2859,-2.2859,-2.2859,-2.2859,-2.2859,-2.2859,-2.2859,-2.2859,-2.2859,-2.2859,-2.2859,-2.2859,-2.2859,-2.2859,-2.2859,-2.2859,-2.2859,-2.2996,-2.3133,-2.3406,-2.3543,-2.3679,-2.3952,-2.4102,-2.4224,-2.4495,-2.4645,-2.4781,-2.5052,-2.5052,-2.5052,-1.674,-1.6927,0.0,-1.5818,-1.5551,0.0,-1.4335,0.0,0.0,0.0,0.0,0.0,0.0,0.0,0.0,0.0,0.0,0.0,0.0,0.0,0.0,0.0,0.0,0.0,0.0,0.0,-1.5337,-1.5939,-1.6072,0.0,0.0,-1.8237,-1.8811,-1.8918,-1.9212,-1.9412,-1.9519,-1.9519,-1.9666,-1.996,-2.0067,-2.0307,-2.0681,-2.0788,-2.0935,-2.1109,-2.1109,-2.1109,-2.1109,-2.1109,-2.1109,-2.1109,-2.1109,-2.1109,-2.1109,-2.1109,-2.1109,-2.1109,-2.1109,-2.1109,-2.1109,-2.1109,-2.1109,-2.1109,-2.1109,-2.1109,-2.1109,-2.1109,-2.1189,-2.1309,-2.151,-2.171,-2.1951,-2.2325,-2.2498,-2.2632,-2.2819,-2.2859,-2.2859,-2.2859,-2.2859,-2.2859,-2.2859,-2.2859,-2.2859,-2.2859,-2.2859,-2.2859,-2.2859,-2.2859,-2.2859,-2.2859,-2.2859,-2.2859,-2.2859,-2.2859,-2.2859,-2.2859,-2.2859,-2.2996,-2.327,-2.327,-2.3406,-2.3543,-2.3679,-2.3952,-2.436,-2.4495,-2.4781,-2.5052,-2.5052,-2.5052]}]]